[[[{"header":{"parameterUnit":"kt","parameterCategory":2,"dx":1,"dy":1,"la1":29.285339999999998,"la2":30.599998999999997,"lo1":-89.70041500000002,"lo2":-87.6738589999976,"nx":112,"ny":82,"refTime":"2022-10-15T00:00:00:Z","depth":0,"parameterNumber":1,"parameterNumberName":"U-component_of_WINDS"},"data":[13.098,13.0915,0.0,13.0146,13.0793,0.0,12.9752,0.0,0.0,0.0,0.0,0.0,0.0,0.0,0.0,0.0,0.0,0.0,0.0,12.6285,0.0,0.0,0.0,0.0,0.0,0.0,0.0,0.0,0.0,0.0,0.0,0.0,15.4172,15.6698,15.9408,16.1045,16.1459,16.4126,16.5666,16.6158,16.5666,16.6018,16.6933,16.5947,16.6018,16.6994,16.6994,16.6994,16.6994,16.6994,16.6994,16.6994,16.6994,16.6994,16.6994,16.6994,16.6994,16.6994,16.6994,16.6994,16.6994,16.6994,16.6994,16.6994,16.6994,16.6994,16.6994,16.6994,16.6994,16.6994,16.6994,16.6994,16.6994,16.6994,16.6994,16.6994,16.6994,16.6994,16.6994,16.6994,16.6994,16.6994,16.6994,16.6994,16.6994,16.6994,16.6994,16.6994,16.6994,16.6994,16.6994,16.6994,16.6994,16.6994,16.6994,16.6994,16.6994,16.6994,16.6994,16.6994,16.6994,16.6994,16.6994,16.6994,16.6994,16.6994,16.6994,16.6994,16.6994,16.6994,16.6994,16.5877,0.0,0.0,12.7551,12.7121,0.0,0.0,0.0,0.0,0.0,0.0,0.0,0.0,0.0,0.0,0.0,0.0,0.0,0.0,0.0,0.0,13.0026,13.263,0.0,0.0,0.0,0.0,0.0,0.0,0.0,0.0,0.0,15.2702,15.4172,15.6768,15.8335,15.969,16.0737,16.2295,16.3844,16.5384,16.4891,16.5454,16.6933,16.5877,16.6018,16.6994,16.6994,16.6994,16.6994,16.6994,16.6994,16.6994,16.6994,16.6994,16.6994,16.6994,16.6994,16.6994,16.6994,16.6994,16.6994,16.6994,16.6994,16.6994,16.6994,16.6994,16.6994,16.6994,16.6994,16.6994,16.6994,16.6994,16.6994,16.6994,16.6994,16.6994,16.6994,16.6994,16.6994,16.6994,16.6994,16.6994,16.6994,16.6088,16.5384,16.5384,16.5384,16.5384,16.5384,16.5384,16.5384,16.5384,16.5384,16.5384,16.5384,16.5384,16.5384,16.5384,16.5384,16.5384,16.5384,16.5384,16.5384,16.5384,16.5384,16.5384,16.5384,16.5384,16.5384,16.5384,16.5384,16.4266,0.0,0.0,0.0,12.4997,0.0,0.0,0.0,0.0,11.8553,0.0,0.0,0.0,0.0,0.0,0.0,0.0,0.0,0.0,0.0,0.0,13.3961,13.8544,0.0,0.0,0.0,0.0,0.0,0.0,0.0,0.0,15.0802,15.2139,15.3688,15.522,15.683,15.7684,15.7754,15.9197,16.0755,16.2304,16.3914,16.5454,16.6933,16.6924,16.6994,16.6994,16.6994,16.6994,16.6994,16.6994,16.6994,16.6994,16.6994,16.6933,16.6924,16.6924,16.6994,16.6994,16.6994,16.6994,16.6994,16.6994,16.6994,16.6994,16.6994,16.6994,16.6994,16.6994,16.6994,16.6994,16.6994,16.6994,16.6994,16.6994,16.6994,16.6994,16.6994,16.6994,16.6924,16.6924,16.6933,16.6853,16.6862,16.4266,16.2234,16.2304,16.2304,16.2304,16.2304,16.2304,16.2234,16.2234,16.2234,16.2234,16.2234,16.2304,16.2304,16.2304,16.2304,16.2304,16.2304,16.2304,16.2304,16.2304,16.2304,16.2304,16.2304,16.2304,16.2304,16.2304,16.2234,16.2163,12.2386,0.0,0.0,0.0,0.0,0.0,0.0,0.0,0.0,0.0,0.0,0.0,0.0,0.0,0.0,0.0,0.0,12.7277,0.0,13.1111,13.5539,0.0,0.0,0.0,0.0,0.0,0.0,0.0,0.0,15.2773,15.0739,15.2139,15.3688,15.522,15.683,15.8185,15.9338,15.9778,16.0755,16.2304,16.3914,16.4891,16.5314,16.6431,16.6994,16.6994,16.6994,16.6994,16.6994,16.6994,16.6994,16.6994,16.6994,16.6299,16.5454,16.6581,16.6994,16.6994,16.6994,16.6994,16.6994,16.6994,16.6994,16.6994,16.6994,16.6994,16.6994,16.6994,16.6994,16.6994,16.6994,16.6994,16.6994,16.6994,16.6994,16.6994,16.6994,16.6994,16.6651,16.5525,16.5314,16.4891,16.3774,16.1952,16.1036,16.2163,16.2304,16.2304,16.2304,16.1318,16.0614,16.0614,16.0614,16.0614,16.0614,16.167,16.2304,16.2304,16.2304,16.2304,16.2304,16.2304,16.2304,16.2304,16.2304,16.2304,16.2304,16.2304,16.2304,16.2234,15.9954,15.8959,0.0,0.0,0.0,0.0,0.0,0.0,11.4148,0.0,11.3696,0.0,0.0,0.0,0.0,0.0,0.0,0.0,13.023,0.0,0.0,0.0,13.906,0.0,0.0,0.0,0.0,0.0,0.0,0.0,15.1232,15.1998,14.9824,15.1162,15.2702,15.4313,15.5228,15.6777,15.8977,15.8352,15.9127,16.1318,16.2234,16.3008,16.3703,16.4619,16.5384,16.6018,16.6018,16.637,16.6924,16.6299,16.6018,16.6088,16.6712,16.644,16.5736,16.6651,16.6994,16.6994,16.6994,16.6994,16.6994,16.6994,16.6994,16.6994,16.6994,16.6994,16.6994,16.6994,16.6994,16.6994,16.6994,16.6994,16.6792,16.6158,16.6018,16.5806,16.5173,16.5032,16.4548,16.2999,16.2647,16.2225,16.0587,15.9611,15.9047,15.9329,15.9963,16.0103,15.947,15.9188,15.8977,15.8977,15.8977,15.8977,15.8977,15.9822,16.0385,16.0385,16.0385,16.0385,16.0385,16.0385,16.0385,16.0385,16.0385,16.0385,16.0385,16.0385,16.0385,16.0315,15.8458,15.7675,0.0,0.0,0.0,0.0,11.3499,0.0,0.0,0.0,0.0,11.4599,0.0,11.8957,12.3543,0.0,0.0,0.0,0.0,0.0,13.5202,13.863,14.2768,14.6805,14.5161,0.0,0.0,15.1083,15.0802,14.8002,15.052,15.1013,14.8205,14.9683,15.1373,15.2914,15.3116,15.4665,15.7613,15.6276,15.6997,15.9699,15.991,16.0684,16.2022,16.2234,16.3078,16.4407,16.4407,16.5173,16.636,16.5173,16.4619,16.4759,16.5736,16.6158,16.6229,16.6572,16.6722,16.6722,16.6924,16.6994,16.6994,16.6994,16.6862,16.6722,16.6722,16.6722,16.6722,16.6722,16.6722,16.6651,16.6501,16.6431,16.6088,16.4689,16.4407,16.3985,16.2586,16.2304,16.1811,16.0271,15.9989,15.9417,15.7684,15.7402,15.6971,15.5783,15.6768,15.712,15.5783,15.6487,15.7191,15.7323,15.7182,15.7191,15.7402,15.7534,15.7675,15.7675,15.7675,15.7675,15.7675,15.7675,15.7675,15.7675,15.7675,15.7675,15.7675,15.7675,15.7675,15.7675,15.7675,15.7675,0.0,0.0,0.0,0.0,0.0,11.2539,0.0,0.0,0.0,11.612,11.9464,12.3565,12.8128,13.0535,13.27,13.5504,0.0,0.0,0.0,13.9952,0.0,14.0797,14.2478,0.0,0.0,14.5286,14.5224,14.459,14.6272,14.7046,14.6483,14.9104,15.1373,15.2914,15.4172,15.5783,15.7605,15.7323,15.7472,15.8115,15.9408,16.013,16.0473,16.1741,16.2436,16.2788,16.2788,16.2938,16.3281,16.4266,16.4619,16.4407,16.2225,16.1318,16.16,16.4187,16.5102,16.5252,16.6501,16.6994,16.6994,16.6994,16.6158,16.5102,16.5102,16.5102,16.5102,16.5102,16.5102,16.483,16.3562,16.321,16.314,16.2867,16.2788,16.2647,16.2374,16.2304,16.1811,16.0271,15.9989,15.9065,15.6214,15.5783,15.6065,15.705,15.7464,15.7534,15.7261,15.522,15.4384,15.5642,15.4665,15.4384,15.5651,15.6909,15.7675,15.7675,15.7675,15.7675,15.7675,15.7675,15.7675,15.7675,15.7675,15.7675,15.7675,15.7675,15.7675,15.7675,15.7675,15.7675,0.0,0.0,0.0,11.2539,0.0,0.0,0.0,11.5331,11.7543,11.9808,12.3134,12.71,13.1654,13.4881,13.7348,13.8869,14.0374,14.0789,13.917,14.0296,14.1352,14.1352,14.2048,0.0,14.3597,14.3659,14.3659,14.3659,14.5137,14.5974,14.5974,14.8963,15.1373,15.2914,15.4524,15.6065,15.7605,15.7675,15.7675,15.7675,15.8467,15.8836,15.8827,15.9602,16.0394,16.1107,16.1107,16.1609,16.2304,16.2304,16.2304,16.2234,16.1459,16.1107,16.1318,16.2858,16.3492,16.3562,16.4407,16.4619,16.4478,16.3703,16.2938,16.2163,16.1362,16.1151,16.1151,16.1151,16.1151,16.0931,16.0165,15.9954,15.9813,15.8968,15.9391,15.9751,15.8977,15.9391,15.9531,15.7921,15.8273,15.8335,15.6768,15.5853,15.5299,15.5299,15.5299,15.5299,15.5299,15.4665,15.4462,15.5228,15.4595,15.4172,15.4172,15.4876,15.5642,15.6417,15.6487,15.6839,15.7613,15.7675,15.7675,15.7675,15.7675,15.7675,15.7675,15.7675,15.7675,15.7675,15.7675,15.7675,0.0,0.0,0.0,0.0,0.0,0.0,11.4712,11.7426,12.0761,12.3466,12.6361,12.9704,13.4281,13.8123,14.0573,14.0446,14.1986,14.2119,13.9037,13.9882,14.1211,14.2197,14.1415,0.0,14.2611,14.2752,14.2752,14.2752,14.3878,14.4997,14.5904,14.8392,15.0872,15.3328,15.4384,15.5792,15.7605,15.7675,15.7675,15.7675,15.7675,15.7675,15.7675,15.7675,15.8326,15.9558,15.9558,16.0253,16.1309,16.0332,15.9769,15.9628,16.0887,16.138,16.145,16.1741,16.1881,16.1881,16.2234,16.2304,16.2084,16.0825,16.02,15.9769,15.8475,15.8106,15.8036,15.7754,15.7675,15.7675,15.7675,15.7402,15.698,15.5994,15.6276,15.6557,15.5924,15.6487,15.6909,15.5924,15.6768,15.7534,15.7261,15.6135,15.4876,15.3609,15.3398,15.3547,15.382,15.4736,15.5431,15.5713,15.5228,15.4454,15.3547,15.3398,15.3961,15.5228,15.558,15.6346,15.7605,15.7675,15.7675,15.7675,15.7675,15.7675,15.7675,15.7675,15.7675,15.7675,15.7675,15.7675,11.0465,11.1469,11.2539,11.2539,11.456,0.0,11.4984,11.8995,12.3449,12.5189,12.7819,13.1173,13.5761,13.7041,13.7354,13.7376,13.9748,14.0515,13.7518,13.8348,13.8833,13.773,13.8552,13.9318,13.9451,13.953,13.953,13.953,13.9663,14.1555,14.5771,14.6334,14.9149,15.4868,15.3891,15.4665,15.7613,15.7675,15.7675,15.7675,15.7675,15.7675,15.7675,15.7675,15.7745,15.7895,15.7895,15.7965,15.8247,15.9479,15.9197,15.7895,15.8106,15.8176,15.8317,15.969,16.0262,16.0482,16.1811,16.2304,16.2304,16.2093,16.1107,15.9919,15.9778,15.9699,15.9408,15.8036,15.7675,15.7675,15.7675,15.6628,15.5853,15.712,15.5361,15.4172,15.6839,15.6417,15.5932,15.7191,15.7543,15.7182,15.5783,15.544,15.522,15.5088,15.5088,15.558,15.698,15.6065,15.5853,15.7261,15.4876,15.3758,15.4947,15.5088,15.5088,15.529,15.6628,15.7472,15.7675,15.7675,15.7675,15.7675,15.7675,15.7675,15.7675,15.7675,15.7675,15.7675,15.7675,15.7675,10.9133,11.0211,11.1469,11.2333,0.0,0.0,11.7238,12.045,12.4364,12.761,12.9949,13.2246,13.4987,13.7689,13.8898,13.7146,13.863,13.9256,13.7166,13.8066,13.8755,13.8137,13.8622,13.8966,13.8966,13.8966,13.8966,13.8966,13.8966,14.0226,14.3104,14.5857,14.8963,15.2491,15.3758,15.544,15.7605,15.7675,15.7675,15.7675,15.7675,15.7675,15.7675,15.7675,15.7675,15.7675,15.7675,15.7675,15.7684,15.8326,15.8256,15.7675,15.7675,15.7675,15.7754,15.8396,15.8616,15.8687,15.9382,15.9593,15.932,15.7498,15.6442,15.5536,15.3713,15.3846,15.4409,15.3758,15.4243,15.4938,15.4938,15.4454,15.411,15.4736,15.4665,15.4665,15.5994,15.6487,15.6346,15.5149,15.4938,15.4736,15.4032,15.3961,15.3961,15.3961,15.3961,15.4524,15.6065,15.5713,15.5228,15.4947,15.375,15.2914,15.2632,15.2562,15.3336,15.522,15.5924,15.6698,15.7613,15.7675,15.7675,15.7675,15.7675,15.7675,15.7675,15.7675,15.7675,15.7675,15.7675,15.7675,10.827,0.0,0.0,0.0,0.0,0.0,11.8891,12.1996,12.563,12.9315,13.1636,13.3453,13.4912,13.8189,13.9819,13.7237,13.8066,13.8614,13.7581,13.834,13.8966,13.8966,13.8966,13.8966,13.8966,13.8966,0.0,0.0,13.8966,13.9663,14.1211,14.5373,14.876,15.1232,15.3468,15.544,15.698,15.7402,15.7675,15.7675,15.7675,15.7675,15.7675,15.7675,15.7675,15.7675,15.7675,15.7675,15.7675,15.7675,15.7675,15.7675,15.7675,15.7675,15.7675,15.7675,15.7675,15.7675,15.7675,15.7675,15.7261,15.5017,15.4243,15.382,15.1576,15.1646,15.2491,15.2077,15.3046,15.4172,15.3758,15.3336,15.3125,15.3539,15.3477,15.3609,15.4454,15.558,15.5713,15.3406,15.2984,15.2843,15.2421,15.2702,15.2984,15.2984,15.3328,15.4172,15.5783,15.5572,15.4876,15.3758,15.3257,15.2491,15.1365,15.1725,15.2702,15.4524,15.5501,15.6276,15.6971,15.7402,15.7675,15.7675,15.7675,15.7675,15.7675,15.7675,15.7675,15.7675,15.7675,15.7675,0.0,0.0,0.0,11.427,11.6909,11.9079,11.9145,12.3534,12.8086,12.9885,13.2488,13.4944,13.6519,13.8044,13.8552,13.7096,13.8066,13.8966,13.8896,13.8966,13.8966,13.8966,13.8966,13.8966,13.8966,13.8966,13.8966,0.0,13.8966,13.9663,14.1211,14.4301,14.8172,15.2764,15.2984,15.382,15.5369,15.6909,15.7675,15.7675,15.7675,15.7675,15.7675,15.7675,15.7675,15.7675,15.7675,15.7675,15.7675,15.7675,15.7675,15.7675,15.7675,15.7675,15.7675,15.7675,15.7675,15.7675,15.7675,15.7675,15.7605,15.7534,15.7543,15.7464,15.7393,15.7393,15.7112,15.558,15.6276,15.7182,15.5642,15.411,15.3336,15.4876,15.1787,14.934,15.2421,15.3054,15.3125,15.2984,15.2984,15.2491,15.0951,15.2007,15.2984,15.2984,15.4243,15.5783,15.7402,15.6276,15.529,15.522,15.3899,15.2976,15.2914,15.4313,15.4595,15.3125,15.5924,15.6909,15.5431,15.6839,15.7675,15.7675,15.7675,15.7675,15.7675,15.7675,15.7675,15.7675,15.7675,15.7675,10.8007,10.9668,11.1469,11.2916,11.5472,11.7576,11.7576,12.0639,12.4415,12.7932,13.0296,13.2443,13.4832,13.7333,13.8552,13.7103,13.8066,13.8966,13.8966,13.8966,13.8966,13.8966,13.8966,13.8966,13.8966,13.8966,13.8966,13.8966,0.0,0.0,13.9741,14.1774,14.409,14.6702,14.883,15.1162,15.3758,15.5299,15.6065,15.6135,15.712,15.7675,15.7675,15.7675,15.7675,15.7675,15.7675,15.7675,15.7675,15.7675,15.7675,15.7675,15.7675,15.7675,15.7675,15.7675,15.7675,15.7675,15.7675,15.7675,15.7323,15.5228,15.4524,15.4172,15.2069,15.2139,15.2914,15.235,15.3328,15.4454,15.3891,15.3336,15.3125,15.3618,15.2562,15.1717,15.2773,14.9729,14.6764,14.6764,14.6764,14.6632,14.6069,14.7327,14.8673,14.9754,15.1232,15.3116,15.5783,15.4727,15.4172,15.522,15.3891,15.2984,15.2984,15.3477,15.3547,15.3054,15.4947,15.5853,15.5299,15.6839,15.7675,15.7675,15.7675,15.6628,15.4524,15.4524,15.4524,15.4524,15.4524,15.4524,10.8616,11.0457,11.2166,11.3104,11.5915,11.8304,11.7738,12.0687,12.4589,12.7933,13.0292,13.2533,13.4898,13.7357,13.8692,13.7792,13.8411,13.8966,13.8966,13.8966,13.8826,13.827,13.8685,13.8763,13.8278,13.8685,13.8966,13.8966,13.953,13.9803,13.9803,14.1845,14.3448,14.4434,14.7,14.9551,15.2139,15.3688,15.4454,15.4524,15.5501,15.6276,15.6839,15.6839,15.7112,15.7613,15.705,15.6839,15.6839,15.7402,15.7675,15.7675,15.7675,15.7675,15.7675,15.7675,15.7675,15.7675,15.7675,15.7675,15.7323,15.5299,15.4665,15.4313,15.228,15.2007,15.221,15.1655,15.221,15.2843,15.228,15.2139,15.1998,15.1444,15.0864,15.0292,14.9729,14.6483,14.3659,14.3659,14.3659,14.3659,14.3659,14.4926,14.6334,14.7344,14.9261,15.1162,15.2632,15.2421,15.235,15.2773,15.2421,15.2139,15.2139,15.2632,15.2773,15.221,15.3609,15.4243,15.368,15.5158,15.5994,15.5994,15.5994,15.5017,15.2984,15.2984,15.2984,15.2984,15.2984,15.2984,11.0005,11.2416,11.4548,11.4542,11.7782,12.0579,11.9034,12.3193,12.7857,12.947,13.224,13.4916,13.6532,13.7926,13.8896,13.8966,13.8966,13.8966,13.8966,13.8966,13.8481,13.7033,13.8066,13.8278,13.6885,13.8066,13.8896,13.8896,14.0296,14.1211,14.1352,14.4222,14.5904,14.5974,14.7493,14.9058,15.0528,15.1998,15.2773,15.2843,15.2914,15.375,15.5228,15.5228,15.5994,15.7323,15.5853,15.5228,15.5299,15.6768,15.7464,15.7543,15.7543,15.7543,15.7675,15.7675,15.7675,15.7675,15.7675,15.7675,15.7613,15.7464,15.7402,15.7402,15.7182,15.6144,15.4665,15.3257,15.2773,15.2421,15.1021,15.0528,15.0035,14.8565,14.6992,14.5481,14.3941,14.3526,14.3386,14.3386,14.3386,14.3386,14.3386,14.4645,14.5622,14.5763,14.8259,14.9683,14.8346,14.9472,14.9903,14.8565,14.9754,15.0599,15.0528,15.2007,15.2148,15.052,15.1928,15.221,15.0739,15.2139,15.2984,15.2984,15.2843,15.2773,15.2773,15.2773,15.2773,15.2773,15.2773,15.2773,10.9742,11.1595,11.2835,11.3032,11.4657,11.611,11.57,11.9424,12.3647,12.6216,13.0014,13.3733,13.6367,13.7166,13.7722,13.8826,13.8966,13.8966,13.8966,13.8966,13.8481,13.7033,13.7166,13.6814,13.528,13.647,13.737,13.737,13.8763,14.0085,14.1274,14.3174,14.4785,14.5974,14.7493,14.8495,14.8917,14.934,15.0106,15.1232,15.2421,15.3195,15.3539,15.3539,15.3829,15.4172,15.3758,15.3539,15.3618,15.4032,15.4876,15.5924,15.5924,15.6628,15.7675,15.7675,15.7675,15.7675,15.7675,15.7675,15.7253,15.4938,15.4172,15.3758,15.1365,15.0387,15.0247,15.1021,15.0387,14.9692,15.0458,14.8893,14.7046,14.6694,14.5349,14.4152,14.373,14.1837,14.0163,14.0163,14.0163,14.0163,14.0163,14.0515,14.1133,14.233,14.3182,14.4379,14.6342,14.6897,14.7899,14.9824,15.0387,15.0176,14.8988,15.0317,15.0098,14.7327,14.9737,15.1091,15.0669,15.2139,15.2984,15.2984,15.0669,14.948,14.948,14.948,14.948,14.948,14.948,14.948,11.0026,11.2152,11.3897,11.3439,11.5308,11.7054,11.6468,11.9745,12.3621,12.5962,12.847,13.0972,13.3302,13.4342,13.5532,13.7714,13.8066,13.8278,13.8896,13.8966,13.8481,13.7033,13.6822,13.647,13.5625,13.5695,13.6329,13.7652,13.9178,14.0367,14.1282,14.4097,14.5787,14.5974,14.7493,14.8002,14.7273,14.7994,14.8416,14.8603,15.0168,15.1294,15.1928,15.1928,15.1576,15.0951,15.1646,15.1928,15.1998,15.2702,15.3477,15.4313,15.4313,15.522,15.6628,15.6628,15.705,15.7675,15.7675,15.7675,15.7323,15.558,15.5017,15.4736,15.2914,15.1928,15.1435,15.1646,15.1021,15.0247,14.9754,14.7837,14.5833,14.5129,14.3245,14.1555,14.1555,14.0226,13.8966,13.8966,13.8966,13.8966,13.8966,13.8966,13.9248,14.0155,14.0852,14.1704,14.2752,14.4082,14.5638,14.7414,14.7555,14.7485,14.7273,14.8118,14.7828,14.6123,14.8259,14.9613,14.9613,15.0458,15.0951,15.0951,14.9199,14.8283,14.8283,14.8283,14.8283,14.8283,14.8283,14.8283,11.1198,11.3686,11.6108,11.4691,11.7052,11.9508,11.8485,12.1568,12.5079,12.6555,12.6865,12.7435,12.9188,13.0793,13.2842,13.575,13.6603,13.7307,13.8552,13.8896,13.8481,13.7033,13.6822,13.6681,13.6251,13.5209,13.5554,13.82,13.9811,14.0859,14.1274,14.5381,14.7141,14.6044,14.7493,14.7563,14.5982,14.7563,14.7563,14.5982,14.7563,14.9058,15.0317,15.0317,14.9621,14.8424,14.9754,15.0317,15.0458,15.1787,15.2491,15.2702,15.2702,15.3609,15.5017,15.5017,15.5994,15.7332,15.7332,15.7472,15.7613,15.7393,15.7332,15.7261,15.705,15.6065,15.4736,15.3336,15.2702,15.1725,14.8988,14.6851,14.4997,14.3667,14.1133,13.8966,13.8966,13.8966,13.8966,13.8966,13.8966,13.8966,13.8966,13.8966,13.8966,13.8966,14.0155,14.0507,13.9178,14.1555,14.3315,14.3315,14.3526,14.4222,14.5552,14.5841,14.5974,14.5974,14.7493,14.8283,14.8283,14.8283,14.8283,14.8283,14.8283,14.8283,14.8283,14.8283,14.8283,14.8283,14.8283,14.8283,11.4631,11.5905,11.6224,11.4722,11.4699,11.5349,11.6424,11.9213,12.206,12.3385,12.3647,12.4555,12.7365,12.9181,13.0871,13.2701,13.5187,13.6962,13.7166,13.827,13.8481,13.7033,13.6822,13.5828,13.3264,13.3927,13.4717,13.528,13.6751,13.8708,14.1211,14.3315,14.4934,14.5974,14.7493,14.7563,14.5982,14.7563,14.7563,14.5982,14.7563,14.8424,14.8706,14.8706,14.8565,14.8362,14.8635,14.8706,14.8776,14.8988,14.9895,15.1091,15.1091,15.1998,15.3398,15.3398,15.4384,15.5713,15.5713,15.6557,15.7402,15.6135,15.5713,15.544,15.4172,15.3618,15.3336,15.3046,15.1091,14.8988,14.8424,14.524,14.2048,14.1767,14.0296,13.8966,13.8966,13.8966,13.8966,13.8966,13.8966,13.8966,13.8966,13.8966,13.8966,13.8966,13.9248,13.9311,13.9037,14.0578,14.1696,14.1696,14.2893,14.3738,14.4011,14.5278,14.5974,14.5974,14.7493,14.8283,14.8283,14.8283,14.8283,14.8283,14.8283,14.8283,14.8283,14.8283,14.8283,14.8283,14.8283,14.8283,11.4906,11.6238,11.7078,11.5517,11.4408,11.4342,11.6725,11.8423,11.986,12.133,12.2302,12.3295,12.4837,12.6386,12.7921,12.947,13.1723,13.3779,13.5413,13.6955,13.7863,13.7926,13.7299,13.6525,13.5798,13.4264,13.399,13.5625,13.6399,13.7792,13.9952,14.233,14.4019,14.4715,14.628,14.6342,14.4785,14.7141,14.7563,14.5982,14.7563,14.8283,14.8283,14.8283,14.8283,14.8283,14.8283,14.8283,14.8283,14.8283,14.8776,14.9402,14.9402,15.0396,15.1787,15.1787,15.2773,15.4102,15.4102,15.5088,15.6276,15.558,15.5853,15.6417,15.5642,15.544,15.5228,15.4454,15.3125,15.1576,14.9965,14.664,14.3518,14.2752,14.1352,13.9952,13.9178,13.8966,13.8966,13.8966,13.8966,13.902,13.9265,13.9288,13.9356,13.9459,13.9489,13.9489,13.9489,14.0029,14.0691,14.153,14.1383,14.1907,14.3526,14.4363,14.5137,14.5904,14.7493,14.8283,14.8283,14.8283,14.8283,14.8283,14.8283,14.8283,14.8283,14.8283,14.8283,14.8283,14.7485,14.7062,11.493,11.6576,11.7898,11.6644,11.5165,11.4673,11.713,11.7693,11.825,12.0143,12.2,12.3295,12.2879,12.4421,12.5957,12.6872,12.8343,13.0322,13.3082,13.4843,13.6525,13.834,13.7511,13.7307,13.8411,13.5306,13.4187,13.6681,13.6822,13.744,13.8896,14.1626,14.3174,14.3174,14.4645,14.4715,14.3167,14.5944,14.671,0.0,14.7062,14.8002,14.8283,14.7994,14.7782,14.7853,14.8143,14.8283,14.8283,14.8283,14.8283,14.8283,14.8283,14.9058,15.0106,15.0106,15.1162,15.2491,15.2491,15.3477,15.4806,15.4806,15.5853,15.712,15.712,15.7402,15.7253,15.5361,15.4595,15.3539,15.0027,14.7336,14.52,14.3941,14.2189,14.0507,13.9248,13.902,13.9073,13.9073,13.9134,13.9263,13.9574,13.9619,13.9723,13.9911,13.9955,13.9955,13.9947,13.9783,14.0106,14.1379,14.0039,14.0404,14.3504,14.3707,14.4434,14.6342,14.7633,14.8283,14.8283,14.8283,14.8283,14.8283,14.8283,14.8283,14.8283,14.8283,14.8283,14.8283,14.7062,14.6334,11.6662,11.7967,11.8115,11.8045,11.6784,11.5729,11.601,11.6074,11.6919,11.9862,12.2909,12.4562,12.3083,12.533,12.6872,12.5611,12.6724,12.8343,13.0033,13.1645,13.3686,13.6673,13.6962,13.6892,13.7033,13.6673,13.6532,13.6822,13.6822,13.744,13.8896,14.0578,14.1555,14.1555,14.3034,14.3104,14.1563,14.3245,14.4019,14.387,14.5419,14.6913,14.8283,14.6843,14.6193,14.6264,14.7712,14.8283,14.8283,14.8283,14.8283,14.8283,14.8283,14.8424,14.8565,14.8565,14.9543,15.088,15.088,15.1858,15.3187,15.3187,15.4243,15.5501,15.5501,15.6487,15.7041,15.4032,15.2139,15.0027,14.5505,14.4082,14.38,14.3659,14.1352,13.9178,13.9037,13.9265,13.9477,13.9477,13.9731,13.9859,13.9923,13.9889,13.9925,13.9955,13.9955,13.9947,13.9974,13.9945,14.0008,14.0116,13.9749,14.0756,14.3949,14.3857,14.4942,14.7923,14.8213,14.8283,14.8283,14.8283,14.8283,14.8283,14.8283,14.8283,14.8283,14.8283,14.8283,14.8283,14.8143,14.7352,11.6919,11.8179,11.839,11.9376,11.839,11.6778,11.489,11.5172,11.6503,11.8672,12.1585,12.3858,12.4203,12.4492,12.5119,12.6379,12.5541,12.5886,12.9392,12.9603,13.1237,13.6251,13.5977,13.611,13.7926,13.7377,13.6822,13.6822,13.6822,13.7096,13.7652,13.9107,13.9944,13.9944,14.1422,14.1915,14.1352,14.2893,14.3659,14.3659,14.4293,14.4864,14.5443,14.4856,14.4574,14.4645,14.6209,14.6913,14.6984,14.7923,14.8283,14.8283,14.8283,14.8283,14.8283,14.8283,14.8706,14.9269,14.9269,15.0247,15.1576,15.1576,15.2632,15.3891,15.3891,15.4313,15.4384,15.221,15.1162,15.0035,14.7211,14.5091,14.3222,14.1592,14.0941,14.05,13.9738,13.9667,13.9536,13.8601,13.8491,13.836,13.7617,13.7453,13.7524,13.7699,13.7727,13.772,13.7699,13.8227,13.8564,13.8586,13.8972,14.0073,14.2267,14.2346,14.3605,14.6702,14.6913,14.7344,14.8283,14.8283,14.8283,14.8283,14.8283,14.8283,14.8283,14.8283,14.8283,14.8283,14.7352,14.6553,11.4961,11.6426,11.7412,11.9862,11.9024,11.7066,11.5312,11.6074,11.7271,11.7482,12.0317,12.3154,12.4274,12.3999,12.428,12.6449,12.4555,12.414,12.7921,12.7921,12.9477,13.4835,13.492,13.5554,13.8137,13.7785,13.7511,13.7511,13.7511,13.7511,13.7511,13.8411,13.8966,13.8966,14.0085,14.0648,14.0648,14.1696,14.2471,14.2963,14.2963,14.2752,14.2259,14.2752,14.2963,14.3096,14.5137,14.5974,14.6123,14.7704,14.8283,14.8283,14.8283,14.8283,14.8283,14.8283,14.8283,14.8283,14.8283,14.9058,14.9965,14.9965,15.1021,15.228,15.228,15.2632,15.2632,15.1091,15.0669,15.0035,14.7563,14.5382,14.3128,14.0352,14.0136,14.0274,13.8889,13.8673,13.8454,13.7304,13.7155,13.6934,13.6097,13.5996,13.6058,13.6262,13.6499,13.6704,13.6704,13.7484,13.8068,13.8068,13.8156,13.8929,14.0472,14.0611,14.1978,14.5059,14.5763,14.6466,14.7638,14.8543,14.8676,14.7812,14.8324,14.8487,14.8283,14.8452,14.8452,14.8283,14.7203,14.6404,11.0461,11.2362,11.4679,11.9376,11.8179,11.6292,11.7827,11.9376,11.9587,11.6503,11.962,12.2872,12.2879,12.414,12.5182,12.5189,12.3858,12.3435,12.4978,12.652,12.8695,13.1849,13.3568,13.5139,13.6681,13.8137,13.8966,13.8966,13.8966,13.8966,13.8966,13.8966,13.8966,13.8966,13.9037,13.9037,13.9037,13.9037,13.9803,14.1352,14.1352,14.0507,13.9107,14.0648,14.1352,14.1493,14.4645,14.5974,14.6123,14.7704,14.8283,14.8283,14.8283,14.8283,14.8283,14.8283,14.8283,14.8283,14.8283,14.8362,14.8362,14.8362,14.941,15.0669,15.0669,15.1787,15.2632,15.1091,15.0669,14.9605,14.4934,14.3935,14.35,14.0665,13.8769,13.721,13.5701,13.5621,13.5936,13.5865,13.6092,13.6282,13.6282,13.6282,13.6289,13.6289,13.7067,13.7574,13.7574,13.8418,13.8982,13.8982,13.7618,13.7317,13.8863,13.9013,14.0367,14.3456,14.5129,14.601,14.6223,14.9147,14.946,14.6626,14.8323,14.8943,14.8283,14.8678,14.867,14.8283,14.8283,14.7493,11.1376,11.2362,11.3277,11.9094,11.8954,11.6989,11.5377,11.6215,11.7053,11.608,11.784,12.0317,12.245,12.1521,12.1789,12.609,12.369,12.2909,12.7703,12.6034,12.6245,13.1567,13.1652,13.2371,13.4998,13.5625,13.6392,13.7448,13.7511,13.7926,13.8896,13.8966,13.8966,13.8966,13.8966,13.8966,13.8966,13.8966,13.9248,13.9741,13.9963,13.9736,13.9037,13.9451,13.9733,13.9811,14.1915,14.2823,14.2963,14.5638,14.6694,14.6843,14.7923,14.8283,14.8283,14.8283,14.8283,14.8283,14.8283,14.8283,14.8283,14.8283,14.8635,14.9058,14.9058,14.941,14.9692,14.9199,14.9058,14.8107,14.3814,14.2818,14.1914,13.8043,13.6778,13.633,13.6026,13.6085,13.5797,13.4721,13.4574,13.4285,13.3234,13.357,13.3973,13.3973,13.4762,13.5379,13.5379,13.563,13.6092,13.6916,13.7351,13.7757,13.8317,13.9408,14.0914,14.2868,14.3976,14.5157,14.6658,14.767,14.8225,14.8425,14.9015,14.9172,14.8967,14.9141,14.9062,14.8967,14.8967,14.8747,10.9047,10.9757,11.0672,11.5722,11.6285,11.5165,11.3834,11.5165,11.6708,11.6708,11.7482,11.8755,12.074,11.9466,11.9811,12.49,12.3274,12.2768,12.6661,12.5682,12.6027,12.9955,13.0589,13.1504,13.3427,13.4146,13.4928,13.5906,13.5984,13.6603,13.8066,13.8137,13.8411,13.8966,13.8966,13.8966,13.8966,13.9159,13.9159,13.8966,13.9243,13.9296,13.922,13.922,13.9288,13.9409,14.0887,14.1531,14.1734,14.4137,14.5481,14.6044,14.7062,14.7782,14.8283,14.8283,14.8283,14.8283,14.8283,14.8283,14.8283,14.8283,14.8283,14.8283,14.8283,14.8283,14.8378,14.85,14.8541,14.7713,14.3968,14.3103,14.2063,13.7765,13.6368,13.5929,13.5464,13.4933,13.4226,13.3221,13.3072,13.2853,13.2216,13.2613,13.3094,13.339,13.4238,13.4804,13.4804,13.508,13.5573,13.6279,13.7083,13.7413,13.6921,13.8619,14.0143,14.1208,14.4119,14.6059,14.6623,14.7872,14.8547,14.8633,14.9301,14.9523,14.9274,14.9415,14.9407,14.9274,14.9274,14.9274,10.4336,10.5457,10.7281,11.0256,11.089,11.1095,11.2644,11.5447,11.7693,11.7834,11.8039,11.8115,11.8039,11.8045,11.8967,12.188,12.252,12.2725,12.3013,12.5541,12.7435,12.7639,13.023,13.199,13.199,13.3357,13.4216,13.4364,13.4364,13.4991,13.661,13.6822,13.7448,13.8763,13.8896,13.8966,13.8966,13.9334,13.9356,13.9035,13.9058,13.9273,13.9585,13.9585,13.9694,13.9974,14.1197,14.1782,14.1845,14.316,14.4505,14.5694,14.5976,14.6899,14.8175,14.8292,14.8283,14.8283,14.8283,14.8283,14.8283,14.8283,14.83,14.8324,14.8246,14.827,14.8414,14.8688,14.8808,14.822,14.5015,14.4381,14.3377,13.8917,13.7011,13.564,13.4135,13.265,13.1599,13.1599,13.1664,13.1972,13.28,13.3082,13.3412,13.428,13.5207,13.5793,13.5793,13.64,13.6867,13.6867,13.6867,13.6393,13.5291,13.7021,13.836,13.9037,14.523,14.7994,14.6283,14.92,14.9895,14.7711,14.9438,15.0035,14.9345,14.9748,14.9741,14.9345,14.9345,14.9345,10.4054,10.4682,10.5674,10.8643,10.7651,10.6372,10.7991,11.0666,11.3136,11.4397,11.6503,11.7834,11.6644,11.6426,11.6644,11.7354,11.953,12.1923,12.4344,12.5259,12.659,12.9047,12.9955,13.0371,13.0371,13.0737,13.1441,13.2638,13.2708,13.342,13.4998,13.6195,13.7025,13.7307,13.8411,13.8966,13.8966,13.9113,13.9301,13.9734,14.0048,13.993,13.9585,13.9585,13.963,13.9705,13.9968,14.023,14.0609,14.3266,14.3936,14.3377,14.576,14.6822,14.7079,14.7958,14.8283,14.8283,14.8283,14.8283,14.8283,14.8283,14.8525,14.8515,14.7323,14.7929,14.8795,14.7489,14.8315,14.8692,14.4538,14.3516,14.2084,13.6296,13.4724,13.4064,13.2436,13.1878,13.1599,13.1599,13.2133,13.2686,13.2924,13.4105,13.5134,13.5332,13.602,13.6558,13.6558,13.6697,13.6867,13.6867,13.6867,13.6713,13.6434,13.6881,13.8028,13.989,14.3869,14.6129,14.6181,14.8146,14.9199,14.9032,15.0605,15.0984,15.0012,15.0088,15.0159,15.0012,15.0012,15.0012,10.3075,10.328,10.3708,10.5328,10.504,10.4612,10.5457,10.856,11.1658,11.3207,11.5447,11.706,11.6925,11.6919,11.6919,11.6919,11.8327,12.0291,12.2698,12.305,12.4183,12.7365,12.8336,12.904,12.9737,12.9815,13.023,13.1075,13.1145,13.1786,13.3357,13.4334,13.5176,13.5944,13.7496,13.8347,13.8347,13.8347,13.8886,13.9955,14.0201,14.0172,14.0045,14.0045,14.004,14.0164,0.0,14.007,14.0372,14.1843,14.2414,14.2477,14.4163,14.5191,14.58,14.7167,14.7661,14.7802,14.8532,14.8719,14.8606,14.8696,14.8823,14.8792,14.8048,14.8504,14.9133,14.8345,14.845,14.8014,14.4757,14.2952,14.0987,13.6855,13.4884,13.3921,13.3798,13.2592,13.1956,13.3087,13.3148,13.3251,13.4057,13.4982,13.5834,13.6177,13.6558,13.6867,13.6867,13.6867,13.6867,13.6867,13.6867,13.6867,13.6867,13.6867,13.8041,14.0906,14.2742,14.4644,14.6743,14.7685,14.8398,14.9017,14.9881,14.9781,14.8833,14.8833,14.8563,14.809,14.809,14.809,10.2018,10.1883,10.1737,10.2018,10.3075,10.4119,10.433,10.7369,11.0678,11.2432,11.4045,11.5588,11.72,11.7687,11.7904,11.8115,11.7968,11.839,11.9932,12.0355,12.1565,12.4478,12.6238,12.7787,12.9322,12.947,12.9611,12.9815,12.9815,13.0448,13.1778,13.2236,13.3148,13.4405,13.6271,13.7147,13.7077,13.729,13.8227,13.9738,13.9738,14.0067,14.056,14.056,14.0624,14.0836,0.0,14.0589,14.0603,14.0493,14.1087,14.2058,14.235,14.3227,14.4515,14.5847,14.6589,14.7117,14.8487,14.8936,14.8967,14.918,14.9188,14.9054,14.8983,14.9242,14.9484,14.9856,14.9007,14.7501,14.5588,14.3016,14.051,13.8675,13.6085,13.42,13.529,13.358,13.2406,13.4555,13.4122,13.3851,13.5403,13.5807,13.6107,13.6779,13.6867,13.6867,13.6867,13.6867,13.6867,13.6867,13.6867,13.6867,13.6867,13.6867,13.8212,14.1348,14.1496,14.3048,14.6547,14.666,14.7125,14.8021,14.8223,14.8029,14.7362,14.6837,14.6346,14.5809,14.5588,14.5488,10.2018,10.1109,10.041,10.1742,10.223,10.2723,10.4049,10.4899,10.6243,10.8995,11.0819,11.2362,11.3975,11.5312,11.6637,11.7975,11.706,11.6778,11.832,11.9651,12.1213,12.3006,12.4555,12.6168,12.7717,12.785,12.8414,12.9744,12.9815,12.9955,13.0167,13.147,13.2337,13.2618,13.439,13.507,13.4487,13.579,13.7287,13.8834,13.8834,13.9378,14.056,14.056,14.0581,14.0624,0.0,0.0,14.0993,14.2241,14.2141,14.1272,14.2576,14.3124,14.3153,14.343,14.4949,14.6968,14.7259,14.8157,14.9204,14.9259,14.9517,14.9512,14.8192,14.8879,15.0095,15.0148,15.002,14.9435,14.7844,14.5172,14.2134,13.9189,13.6164,13.3636,13.252,13.2536,13.2848,13.3213,13.4415,13.5351,13.5674,13.6242,13.6677,13.6851,13.6867,13.6867,13.6867,13.6867,13.6867,13.6867,13.6867,13.6867,13.6867,13.6867,13.7696,13.9643,13.9792,14.0626,14.2653,14.2723,14.3675,14.5685,14.6993,14.7864,14.8283,14.5518,14.5141,14.6865,14.5449,14.5076,10.0889,10.0358,10.019,10.17,10.2018,10.223,10.2934,10.3773,10.5034,10.7223,10.8924,11.0678,11.3066,11.482,11.6356,11.7898,11.8327,11.8327,11.8186,11.8813,11.9805,12.136,12.2999,12.4562,12.6097,12.7013,12.785,12.8716,12.957,13.0134,13.0225,13.117,13.1678,13.1678,13.3445,13.4133,13.3751,13.4561,13.5776,13.7346,13.8188,13.8897,13.9498,14.036,14.0788,14.0788,14.0788,14.0794,14.0985,14.1705,14.1562,14.0985,14.1705,14.1899,14.1913,14.2775,14.4383,14.6221,14.6221,14.78,14.9792,14.9792,14.98,14.9751,14.9191,14.9619,15.023,15.023,14.9667,14.8826,14.8127,14.4987,14.1634,14.0193,13.783,13.6009,13.608,13.5528,13.5368,13.6658,13.6299,13.5848,13.6251,13.6587,13.6867,13.6867,13.6867,13.6867,13.6867,13.6867,13.6867,13.6867,13.6867,13.6867,13.6867,13.6867,13.7168,13.7923,13.8897,13.9722,14.0535,14.1422,14.2806,14.4655,14.6282,14.6994,14.6693,14.5205,14.48,14.5312,14.408,14.3609,9.9971,0.0,9.9826,10.1654,10.2063,10.2018,0.0,10.3004,10.4266,10.5809,10.7363,10.9206,11.194,11.3981,11.5799,11.7412,11.8954,11.9517,11.839,11.8244,11.8739,11.9989,12.1802,12.3423,12.4676,12.5813,12.6919,12.7852,12.9058,13.001,13.053,13.0901,13.107,13.107,13.2536,13.3322,13.3101,13.3315,13.4135,13.5718,13.6904,13.7682,13.8117,13.9686,14.0407,14.0407,14.0771,14.0913,14.0913,14.0913,14.0913,14.0913,14.0913,14.0913,14.1056,14.2283,14.391,14.5608,14.5608,14.7662,15.023,15.023,15.0151,15.0015,15.0234,15.023,15.023,15.023,14.9381,14.8469,14.8469,14.5258,14.1982,14.191,13.9933,13.8395,13.9041,13.8362,13.7912,13.9026,13.7761,13.6616,13.6779,13.6867,13.6867,13.6867,13.6867,13.6867,13.6867,13.6867,13.6867,13.6867,13.6867,13.6867,13.6867,13.6867,13.6867,13.6867,13.8072,13.8748,13.8748,14.0007,14.1488,14.304,14.4397,14.4866,14.4404,14.4035,14.3525,14.2998,14.1955,14.1684,0.0,9.9207,9.8467,10.151,10.2116,10.2018,10.2018,10.2159,0.0,10.426,10.5809,10.7357,10.8924,11.1664,11.4186,11.5729,11.7341,11.832,11.8186,11.8425,11.8688,11.9069,12.1522,12.3393,12.3699,12.3611,12.4788,12.7683,12.8219,12.8988,13.0168,13.0516,13.0674,13.0674,13.1375,13.1729,13.1709,13.1729,13.2585,13.4129,13.42,13.4991,13.6496,13.8046,13.8752,0.0,14.0336,14.0913,14.0913,14.0913,14.0913,14.0913,14.0913,14.0913,14.0913,14.1056,14.2975,14.5608,14.5608,14.7662,15.023,15.023,15.0215,15.0271,15.0294,15.023,15.023,15.023,15.0159,15.0087,15.0087,14.7669,14.518,14.4637,14.2134,13.9276,13.7319,13.8688,13.944,13.659,13.7699,13.8617,13.7086,13.6867,13.6867,13.6867,13.6867,13.6867,13.6867,13.6867,13.6867,13.6867,13.6867,13.6867,13.6867,13.6867,13.6867,13.6867,13.6946,13.702,13.702,13.7168,13.7993,13.9718,13.987,14.0659,14.216,14.0531,14.0067,14.0586,13.9051,13.9464,9.7349,9.776,9.8524,10.0223,10.1427,10.2138,10.2058,10.2018,10.2511,10.4054,10.5662,10.7146,10.8572,11.1453,11.4045,11.5588,11.7291,11.8746,11.9728,11.9259,11.8838,11.8931,11.9931,12.0969,12.205,12.2958,12.4027,12.5376,12.741,12.8858,12.959,13.0641,13.1199,13.1199,13.1481,13.1599,13.1599,13.1599,13.1878,13.2514,13.3493,13.4278,13.4849,13.6425,13.7132,13.7203,13.8759,13.9472,0.0,14.055,14.0913,14.0913,14.0913,14.1291,14.1934,14.1934,14.3293,14.5005,14.3999,14.5303,14.7384,14.7384,14.8033,14.8961,14.9945,14.8875,14.7687,14.9318,15.0462,15.1355,15.2016,14.989,14.7239,14.5941,14.4418,14.271,14.0907,14.1726,14.2206,13.998,13.9463,13.8822,13.7172,13.6867,13.6867,13.6867,13.6867,13.6867,13.6867,13.6867,13.6867,13.6867,13.6867,13.6867,13.6867,13.6867,13.6867,13.6867,13.6867,13.6867,13.6867,13.6867,13.7622,13.935,13.935,14.0238,14.1868,14.1278,14.1059,14.1352,14.115,14.0949,9.6235,9.6899,9.7892,9.9623,10.076,10.1542,10.2017,10.208,10.237,10.3427,10.5246,10.7,10.8003,11.0678,11.3302,11.4997,11.6662,11.813,11.9343,11.9244,11.8975,11.9055,11.9142,11.9799,12.1261,12.2403,12.3266,12.3923,12.6094,12.7898,12.8999,13.025,13.0879,13.0879,13.1379,13.1599,13.1599,13.1599,13.1599,13.1599,13.265,13.3214,13.3286,13.4784,13.5504,0.0,13.7496,13.828,13.8378,13.9725,14.0594,14.1038,14.1045,14.1823,14.2916,14.2916,14.3733,14.4658,14.3596,14.4296,14.5628,14.5593,14.6328,14.7399,14.8447,14.7313,14.5931,14.7771,14.9263,15.0511,15.1209,15.0031,14.8148,14.6289,14.5909,14.519,14.2346,14.3052,14.3485,14.082,13.9792,13.8822,13.7172,13.6867,13.6867,13.6867,13.6867,13.6867,13.6867,13.6867,13.6867,13.6867,13.6867,13.6867,13.6867,13.6867,13.6867,13.6867,13.6867,13.6867,13.6867,13.6867,13.7395,13.8525,13.8596,13.9115,14.03,13.9784,13.9561,13.9549,13.9471,13.9069,9.7503,9.7004,9.6453,9.9851,10.0198,10.0194,10.1836,10.2127,10.2018,10.2018,10.4542,10.6712,10.6718,10.9123,11.1744,11.3623,11.499,11.606,11.6571,11.7945,11.9043,11.9289,11.9567,12.0281,12.1508,12.1697,12.2331,12.3877,12.436,0.0,12.8506,12.8986,12.9225,12.9219,13.073,13.1599,13.1599,13.1599,13.1599,13.1599,13.1599,13.1599,13.1671,13.3214,13.3914,13.4066,13.6498,13.7593,0.0,13.8641,13.9901,14.1304,14.127,14.2325,14.3812,14.3812,14.4225,14.4817,14.485,14.5131,14.5583,14.5579,14.5544,14.5608,14.5565,14.5565,14.5558,14.5565,14.6334,14.7122,14.7148,14.7864,14.7976,14.5748,14.6402,14.6045,14.0588,14.2008,14.2817,13.7911,13.8298,13.8897,13.7168,13.6871,13.6867,13.6867,13.6867,13.6867,13.6867,13.6867,13.6867,13.6867,13.6867,13.6867,13.6867,13.6793,13.6793,13.6867,13.6793,13.6793,13.6867,13.6867,13.6867,13.6867,13.6793,13.6793,13.6793,13.5249,13.451,13.4436,13.2736,13.288,9.6496,9.7279,9.8245,9.99,10.1047,10.1804,10.204,10.2069,10.2018,10.2018,10.3632,10.5386,10.6507,10.8279,11.0846,11.4925,11.5107,11.5626,11.816,11.8159,11.7513,11.6438,11.8397,11.9497,11.876,12.0673,12.2163,12.265,12.3895,12.4919,12.5752,12.5905,12.6513,12.7565,12.9147,12.9938,12.9938,13.1022,13.1599,13.1599,13.1599,13.1599,13.1599,13.2092,13.2649,13.3375,13.5162,13.6343,0.0,13.8411,13.9234,13.9677,13.9688,14.0402,14.1564,14.2744,14.3311,14.3612,14.4728,14.4348,14.3616,14.4689,14.4532,14.4021,14.424,14.3894,14.3792,14.5539,14.576,14.61,14.8534,14.9035,14.8487,14.6733,14.6648,14.6187,14.3369,14.4463,14.5206,14.2594,14.1562,14.0609,13.8897,13.7622,13.6867,13.6867,13.6867,13.6867,13.6867,13.6867,13.6867,13.6867,13.6867,13.6867,13.6867,13.5836,13.5691,13.6797,13.5836,13.5691,13.6797,13.6867,13.6867,13.6867,13.5761,13.5171,13.5171,13.3545,13.2732,13.2732,13.2216,13.288,9.5917,9.6806,9.8117,10.0027,10.1044,10.1733,10.2194,10.2153,10.2018,10.2018,10.328,10.4899,10.6436,10.7945,11.0227,11.3948,11.4382,11.4875,11.6511,11.6462,11.5749,11.4349,11.6869,11.8224,11.6643,11.9848,12.1851,12.1215,12.2654,12.3582,12.3582,12.4236,12.5021,12.6008,12.75,12.8648,12.929,13.023,13.095,13.1599,13.1599,13.1599,13.1599,13.1599,13.1889,13.2521,13.3773,0.0,0.0,13.712,13.8263,13.9159,13.9159,13.9846,14.1099,14.2133,14.2208,14.2073,14.3726,14.3282,14.2313,14.3877,14.3551,14.268,14.3567,14.3463,14.3315,14.4836,14.4889,14.4891,14.6748,14.6902,14.6168,14.4256,14.4327,14.417,14.1777,14.3122,14.4323,14.2606,14.1496,14.0609,13.9573,13.7997,13.6867,13.6867,13.6867,13.6867,13.6867,13.6867,13.6867,13.6867,13.6867,13.6867,13.6867,13.5984,13.5836,13.6797,13.5984,13.584,13.6797,13.6281,13.591,13.591,13.4362,13.3174,13.2575,13.1539,13.0722,13.0058,13.0058,13.0574,9.5861,9.631,9.7066,10.0374,10.0752,10.0841,10.2494,10.2423,10.2134,10.2297,10.3314,10.4688,10.6401,10.7857,10.9504,11.1791,11.3113,11.3651,11.2992,11.3804,11.4043,11.2856,11.5371,11.6643,11.5205,11.9057,12.1144,11.9812,12.1078,12.1851,12.1851,12.3445,12.4385,12.4385,12.593,12.7422,12.8797,12.9154,13.0016,13.1385,13.1521,13.1599,13.1606,13.1703,13.1807,13.1889,13.28,0.0,0.0,13.5451,13.7125,13.9123,13.9123,14.0089,14.1418,14.1641,14.1055,14.0523,14.2171,14.2087,14.1517,14.3196,14.2666,14.1659,14.3352,14.3704,14.3575,14.4035,14.3862,14.3506,14.3073,14.2955,14.2298,14.0135,14.0906,14.1269,13.8208,14.0077,14.1872,14.0316,13.9945,13.9792,13.9647,13.822,13.702,13.6871,13.6867,13.6867,13.6867,13.6867,13.6867,13.6867,13.6867,13.6867,13.6867,13.6723,13.6723,13.6867,13.6723,13.6649,13.6649,13.5245,13.4436,13.4288,13.2657,13.1094,12.9671,12.9523,12.8632,12.7154,12.7154,12.7154,9.7399,9.8178,9.8817,10.1575,10.232,10.2769,10.4008,10.3227,10.264,10.4035,10.3421,10.3407,10.6328,10.6053,10.7182,11.2572,11.1885,11.1487,11.3962,11.363,11.3037,11.2808,11.4432,11.5419,11.5128,11.7065,11.8795,11.9669,12.002,12.0234,12.0234,12.1714,12.2636,12.2636,12.4224,12.5235,12.5598,12.8012,12.9439,12.9796,13.1022,13.1599,13.1625,13.2338,13.3071,13.3775,13.4678,0.0,13.6288,13.6513,13.6887,13.7395,13.7395,13.7618,13.8064,13.9417,13.9746,13.9828,14.1549,14.1456,14.0866,14.2526,14.2483,14.204,14.3641,14.2718,14.1817,14.5155,14.4087,14.2153,14.3555,14.3385,14.2593,14.1614,14.2602,14.3559,14.2817,14.424,14.559,14.5219,14.4096,14.2821,14.1571,13.9936,13.8373,13.702,13.6867,13.6867,13.6867,13.6867,13.6867,13.6867,13.6867,13.6867,13.6867,13.5687,13.5542,13.6797,13.5691,13.5026,13.5026,13.4659,13.3916,13.2583,13.0941,12.9968,12.9671,12.8338,12.7451,12.7154,12.7154,12.7154,9.7006,9.7543,9.8269,10.1173,10.1764,10.2059,10.3442,10.2951,10.2489,10.3464,10.2863,10.2866,10.5372,10.5183,10.6218,11.1089,11.0848,11.0843,11.3377,11.3157,11.2742,11.2742,11.4146,11.4777,11.4004,11.6078,11.744,11.7505,11.8878,11.9741,11.9741,12.0514,12.1286,12.2059,12.2927,12.3802,12.4599,12.6234,12.7804,12.9296,13.0088,13.1084,13.2252,13.2722,13.3429,13.4338,13.4794,13.5516,13.6298,13.6298,13.6496,13.6867,13.6867,13.6867,13.6942,13.7845,13.8166,13.8405,14.0081,14.0315,13.9993,14.0905,14.0991,14.1001,14.2594,14.218,14.1582,14.3842,14.3074,14.1646,14.1807,14.1574,14.093,13.976,14.0069,14.0733,14.0733,14.2012,14.3213,14.3213,14.3126,14.2602,14.0976,13.9941,13.8826,13.7094,13.6867,13.6867,13.6867,13.6867,13.6867,13.6867,13.6867,13.6867,13.6867,13.6133,13.5984,13.6797,13.6058,13.532,13.4585,13.3768,13.2505,13.0867,12.9229,12.8483,12.8483,12.7525,12.7154,12.7154,12.7154,12.7154,9.6219,9.6377,9.7044,10.0215,10.0746,10.0913,10.2699,10.2767,10.2429,10.2712,10.2538,10.2788,10.4397,10.4569,10.5634,10.9119,10.9825,11.0601,11.2395,11.2714,11.2742,11.2742,11.3867,11.4146,11.2879,11.5091,11.6215,11.5134,11.7434,11.895,11.895,11.9455,12.03,12.1637,12.1916,12.2779,12.4165,12.445,12.5877,12.844,12.8903,13.0323,13.2544,13.2879,13.3533,13.4545,13.4698,0.0,13.5838,13.5838,13.6272,13.6867,13.6867,13.6867,13.6867,13.6867,13.6867,13.702,13.8423,13.8955,13.8897,13.8947,13.891,13.9257,14.0952,14.1047,14.0754,14.1273,14.1047,14.0308,13.8901,13.8752,13.8525,13.6875,13.6649,13.6942,13.7243,13.8373,13.9573,14.0089,14.1571,14.2091,14.0163,13.9796,13.9119,13.7168,13.6867,13.6867,13.6867,13.6867,13.6867,13.6867,13.6867,13.6867,13.6867,13.6867,13.6867,13.6867,13.6574,13.5761,13.4139,13.2509,13.0871,12.9226,12.7822,12.7154,12.7154,12.7154,12.7154,12.7154,12.7154,12.7154,9.6698,9.6711,9.7091,10.0009,10.0848,10.1692,10.4392,10.3912,10.3328,10.4662,10.3719,10.3072,10.4619,10.3873,10.4396,10.8932,10.8749,10.9081,11.1998,11.2613,11.2742,11.2742,11.295,11.295,11.2747,11.3099,11.3795,11.4991,11.549,11.5704,11.5704,11.8296,11.9812,12.0026,12.1358,12.2202,12.2422,12.3873,12.4813,12.5248,12.7261,12.9181,13.1001,13.245,13.3973,13.5521,13.6255,13.6575,13.6661,13.6661,13.6713,13.6867,13.6867,13.6867,13.6867,13.6867,13.6867,13.6871,13.709,13.7168,13.7168,13.7164,13.716,13.7528,13.9165,13.7767,13.607,13.8901,13.7712,13.5476,13.5183,13.6137,13.6801,13.5171,13.584,13.7247,13.8748,13.9198,14.0238,14.3044,14.4983,14.5144,14.2095,14.1571,14.0523,13.7317,13.6867,13.6867,13.6867,13.6867,13.6867,13.6867,13.6867,13.6867,13.6867,13.6867,13.6867,13.6867,13.5617,13.4065,13.2364,13.0793,12.9151,12.7525,12.7228,12.7154,12.7154,12.7154,12.7154,12.7154,12.7154,12.7154,9.5878,9.572,9.6204,9.8946,9.9591,10.0339,10.3362,10.3484,10.321,10.3905,10.3399,10.3003,10.3562,10.3115,10.39,10.7733,10.7951,10.8873,11.214,11.2675,11.2742,11.2742,11.2742,11.2742,11.2742,11.2742,11.3027,11.3724,11.3795,11.4146,11.5062,11.6358,11.7939,11.9669,12.0371,12.1215,12.2059,12.2785,12.3659,12.4605,12.5623,12.7503,13.0019,13.1762,13.3409,13.5107,0.0,13.6867,13.6867,13.6867,13.6867,13.6867,13.6867,13.6867,13.6867,13.6867,13.6867,13.6867,13.6867,13.6867,13.6867,13.6867,13.6249,13.571,13.6434,13.4944,13.3361,13.4808,13.4221,13.3103,13.3103,13.3619,13.3916,13.3252,13.4358,13.5765,13.6442,13.7333,13.8365,13.9768,14.1418,14.2173,14.0758,14.0461,13.9635,13.7243,13.6867,13.6867,13.6867,13.6867,13.6867,13.6867,13.6867,13.6867,13.6867,13.6867,13.65,13.5617,13.4878,13.3392,13.0793,13.0046,12.8854,12.7157,12.7154,12.7154,12.7154,12.7154,12.7154,12.7154,12.7154,12.7154,9.5615,9.5075,9.5522,9.833,9.8709,9.9302,10.2434,10.3141,10.3125,10.3078,10.3104,10.3067,10.2769,10.2763,10.3871,10.7006,10.7658,10.8978,11.2291,11.2742,11.2742,11.2742,11.2742,11.2742,11.2742,11.2742,11.2742,11.2742,11.2742,11.323,11.4426,11.4848,11.6138,11.8444,11.9307,12.0306,12.1494,12.1845,12.2713,12.3951,12.4399,12.6071,12.892,13.0599,13.232,13.392,13.5097,13.5836,13.6281,13.6281,13.65,13.6867,13.6867,13.6867,13.6867,13.6867,13.6867,13.6867,13.6867,13.6867,13.6793,13.6402,13.5706,13.4956,13.4147,13.3021,13.1876,13.1536,13.1098,13.073,13.073,13.1098,13.1395,13.1395,13.2657,13.3846,13.3846,13.5097,13.6351,13.6797,13.822,13.9647,14.0456,14.0312,13.9268,13.7168,13.6867,13.6867,13.6867,13.6867,13.6867,13.6867,13.6867,13.6867,13.6867,13.65,13.5761,13.4585,13.3764,13.22,12.9746,12.9226,12.8413,12.7154,12.7154,12.7154,12.7154,12.7154,12.7154,12.7154,12.7154,12.7154,9.6744,9.5798,9.5642,9.8896,9.9207,9.9511,10.264,10.3424,10.3296,10.3104,10.3219,10.3291,10.3012,10.3203,10.4413,10.7512,10.8022,10.9174,11.2314,11.2742,11.2742,11.2742,11.2742,11.2742,11.2742,11.2742,11.2742,11.2742,0.0,11.2813,11.2885,11.4283,11.5134,11.5276,11.8159,11.9812,11.9877,12.1358,12.2124,12.2226,12.3798,12.5532,12.7301,12.8984,13.0654,13.2141,13.2216,13.3177,13.4655,13.4655,13.5542,13.6867,13.6867,13.6867,13.6867,13.6867,13.6867,13.6867,13.6867,13.6867,13.6562,13.5084,13.5549,13.6125,13.3029,13.2082,13.1648,13.0203,12.8635,12.7376,12.7376,12.8561,12.9746,12.9746,13.0941,13.2141,13.2141,13.3474,13.5101,13.6574,13.822,14.0386,14.3489,14.2751,14.0675,13.7317,13.6867,13.6867,13.6867,13.6867,13.6867,13.6867,13.6867,13.6867,13.6867,13.5468,13.4585,13.451,13.1606,12.982,12.9671,12.8115,12.7228,12.7154,12.7154,12.7154,12.7154,12.7154,12.7154,12.7154,12.7154,12.7154,9.6914,9.644,9.6407,9.7751,9.7903,9.8502,10.1297,10.1891,10.2151,10.3062,10.3388,10.3307,10.3033,10.3125,10.3889,10.5949,10.717,10.8649,11.0925,11.2094,11.2742,11.2742,11.2742,11.2742,11.2742,11.2742,11.2742,11.2742,11.2742,11.2742,11.2742,11.3236,11.4075,11.5062,11.6138,11.7725,11.9741,12.0306,12.1346,12.2997,12.4101,12.5238,12.643,12.8069,12.9431,13.057,13.1547,13.2364,13.288,13.288,13.3177,13.3693,13.3693,13.3693,13.3842,13.4952,13.532,13.5167,13.4096,13.3737,13.367,13.3095,13.2576,13.2031,13.0837,12.9734,12.8728,12.8197,12.7596,12.7154,12.7154,12.7599,12.8041,12.8041,12.9307,13.0496,13.0496,13.1762,13.3029,13.3619,13.5918,13.7771,13.7923,13.9268,13.9487,13.7168,13.5984,13.5691,13.6723,13.6867,13.6867,13.6867,13.5988,13.532,13.532,13.3842,13.2431,13.1461,13.0265,12.9151,12.8045,12.7451,12.7154,12.7154,12.7154,12.7154,12.7154,12.6121,12.5605,12.5605,12.4476,12.4027,9.8076,9.7845,9.7806,9.8485,9.7898,9.7762,10.0121,10.0881,10.1406,10.2451,10.3017,10.3327,10.3193,10.3167,10.366,10.5221,10.6371,10.7849,11.0135,11.1304,11.2165,11.267,11.2742,11.2742,11.2742,11.2742,11.2881,11.3127,11.2931,11.2887,11.3133,11.2848,11.3236,11.4289,11.4777,11.6227,11.8561,11.9664,12.1166,12.308,12.4094,12.5101,12.602,12.7289,12.823,12.8858,12.9909,13.0652,13.1246,13.1246,13.1543,13.1993,13.1993,13.1993,13.2141,13.3252,13.331,13.2771,13.2166,13.1606,13.1191,13.1236,13.0484,12.9545,12.8988,12.8401,12.7855,12.731,12.7154,12.7154,12.7154,12.7154,12.7154,12.7154,12.7967,12.878,12.878,13.005,13.1246,13.1246,13.3392,13.5023,13.4585,13.5851,13.6672,13.6137,13.5171,13.4659,13.5171,13.5245,13.5245,13.5245,13.4284,13.3623,13.3623,13.2134,13.0797,12.9742,12.9077,12.8264,12.7154,12.7154,12.7154,12.7154,12.6637,12.6344,12.6344,12.471,12.3967,12.3893,12.2768,12.2241,10.0256,9.9754,9.9643,10.114,9.9343,9.7652,9.9238,10.0403,10.1085,10.106,10.2314,10.344,10.344,10.344,10.3939,10.5453,10.5672,10.6814,10.9866,11.0365,11.0941,11.2522,11.2742,11.2753,11.2786,11.2786,11.3084,11.3807,11.3219,11.3122,11.3863,11.324,11.282,11.2792,11.4257,11.5392,11.6178,11.9361,12.134,12.2224,12.3796,12.506,12.5993,12.6726,12.7154,12.7154,12.7154,12.8041,12.9597,12.9597,13.0496,13.1848,13.1848,13.1848,13.1848,13.1848,13.0915,12.9826,13.1301,13.0771,12.9482,12.9497,12.9489,12.917,12.7621,12.8245,12.9177,12.7543,12.7154,12.7154,12.7154,12.7154,12.7154,12.7154,12.7154,12.7154,12.7154,12.8413,12.9597,12.9597,13.0871,13.2435,13.4065,13.3029,13.2583,13.4213,13.4362,13.3772,13.2141,13.1918,13.1993,13.1993,13.1918,13.1922,13.1922,13.0496,12.9597,12.9597,12.8041,12.7154,12.7154,12.7154,12.7079,12.7079,12.5605,12.4795,12.4721,12.2991,12.2167,12.2167,12.2167,12.2092,9.8479,9.8306,9.8187,9.8162,9.8409,9.858,9.8057,9.9916,10.1645,10.1179,10.2314,10.344,10.344,10.344,10.3583,10.3939,10.5025,10.6024,10.6885,10.9021,11.0579,11.1013,11.2094,11.2942,11.355,11.3612,11.3445,11.31,11.3376,11.3649,11.3893,11.4246,11.4167,11.3628,11.4034,11.4609,11.5386,11.6852,11.857,12.0574,12.2746,12.4215,12.513,12.6486,12.7154,12.7154,12.7154,12.7376,12.7822,12.7822,12.8049,12.8494,12.8494,12.8494,12.8494,12.8494,12.8186,12.7718,12.702,12.65,12.6106,12.6166,12.5316,12.4671,12.6534,12.667,12.625,12.6942,12.7154,12.7154,12.7154,12.7154,12.7154,12.7154,12.7154,12.7154,12.7154,12.7525,12.7822,12.7822,12.9155,13.0418,13.0938,13.1539,13.2141,13.2587,13.1684,13.0785,13.0344,13.132,13.1993,13.1993,13.0945,13.0269,13.0269,12.8784,12.7822,12.7822,12.7376,12.7154,12.7154,12.7154,12.6637,12.5456,12.5014,12.4194,12.2994,12.1283,12.0466,12.0388,11.9284,11.8768,9.7591,9.833,9.8929,9.9165,9.8769,9.8041,9.7219,9.9142,10.0979,10.056,10.2035,10.3476,10.3766,10.3608,10.3481,10.3771,10.4323,10.5025,10.5672,10.7308,10.9094,11.0699,11.1679,11.2397,11.2924,11.3787,11.4216,11.3777,11.3812,11.4053,11.4401,11.454,11.4549,11.442,11.4088,11.425,11.5074,11.5905,11.7324,11.9385,12.1446,12.2892,12.3819,12.5453,12.6125,12.6195,12.686,12.7154,12.7154,12.7154,12.7154,12.7154,12.7154,12.7154,12.7154,12.7154,12.7154,12.692,12.5368,12.4829,12.4658,12.3976,12.3055,12.2598,12.4512,12.4431,12.4054,12.5695,12.617,12.6344,12.6931,12.7154,12.7154,12.7154,12.7154,12.7154,12.7154,12.7154,12.7154,12.7154,12.7896,12.8635,12.8635,12.9307,12.9909,12.9909,12.9163,12.8635,12.8635,12.9386,12.9909,12.9909,12.9749,12.9671,12.9671,12.8115,12.7154,12.7154,12.7154,12.686,12.6195,12.6125,12.5378,12.3741,12.3079,12.2181,12.1205,11.9578,11.8768,11.8768,11.7809,11.6989,9.6848,9.833,9.9884,10.161,9.9492,9.6965,0.0,9.8586,9.9849,9.9587,10.1617,10.3561,10.4057,10.3878,10.3801,10.4292,10.3929,10.4017,10.5385,10.5664,10.7094,11.0886,11.1214,11.1344,11.1792,11.3665,11.4877,11.5091,11.454,11.4502,11.5186,11.4595,11.4543,11.5203,11.4564,11.4483,11.5087,11.5983,11.7013,11.8214,12.0095,12.1251,12.1922,12.3716,12.4494,12.4569,12.5969,12.6708,12.6857,12.7079,12.7154,12.7154,12.7154,12.7001,12.6845,12.6845,12.6998,12.692,12.5368,12.4711,12.426,12.2751,12.2043,12.1819,12.2158,12.2124,12.2372,12.4074,12.4511,12.4862,12.6188,12.6708,12.6857,12.6857,12.7009,12.7154,12.7154,12.7154,12.7154,12.7154,12.7154,12.7154,12.7154,12.7154,12.7154,12.7154,12.7154,12.7154,12.7154,12.7154,12.7228,12.7376,12.8784,12.9671,12.9671,12.8115,12.7012,12.6882,12.6868,12.6121,12.4569,12.4494,12.367,12.2018,12.0462,11.9649,11.95,11.8103,11.7289,11.7137,11.7137,11.6239,0.0,0.0,0.0,0.0,0.0,0.0,0.0,10.0089,10.0778,9.883,10.0937,10.2965,10.2568,10.3908,10.4955,10.4474,10.4264,10.4305,10.4593,10.5313,10.6674,10.921,10.9009,10.9837,11.3015,11.3211,11.3676,11.495,11.5531,11.5851,11.5982,11.6467,11.6501,11.6003,11.586,11.557,11.5096,11.5859,11.6078,11.577,11.8626,11.9727,11.9353,12.1727,12.2764,12.2764,12.3062,12.396,12.5311,12.6637,12.7154,12.7154,12.7154,12.6378,12.5216,12.5216,12.6066,12.692,12.5368,12.3936,12.2677,12.2357,12.0462,11.8821,12.1508,12.1321,12.0576,12.2294,12.2754,12.2839,12.3132,12.4257,12.5237,12.5237,12.6195,12.7154,12.7154,12.7154,12.7154,12.7154,12.7154,12.7154,12.7154,12.7154,12.7154,12.7154,12.7154,12.7154,12.7154,12.7154,12.7674,12.9007,12.9445,12.9671,12.9671,12.8115,12.6611,12.5468,12.5298,12.4491,12.2842,12.2764,12.1948,12.0243,11.9946,11.9136,11.788,11.7586,11.6691,11.5334,11.5334,11.4521,0.0,0.0,0.0,0.0,0.0,0.0,0.0,0.0,0.0,0.0,0.0,10.1749,10.183,0.0,10.3794,10.3717,10.4059,10.4395,10.4395,10.5117,10.6073,10.72,10.8002,10.924,11.1165,11.289,11.3995,11.4356,11.5549,11.6264,11.6264,11.6585,11.6834,11.6834,11.6444,11.6023,11.5663,11.5659,11.5659,11.5668,11.7259,11.8014,11.8099,12.0105,12.0982,12.1053,12.187,12.2764,12.3589,12.4402,12.4695,12.4706,12.4707,12.4201,12.3557,12.3562,12.4048,12.436,12.195,12.1044,12.0706,11.9077,11.7469,11.6576,11.9082,11.8636,11.7802,12.03,12.0971,12.1205,12.2018,12.2917,12.3518,12.3518,12.4105,12.4695,12.4695,12.5375,12.5976,12.5976,12.6637,12.7154,12.7154,12.5813,12.5293,12.6857,12.6492,12.6567,12.8193,12.7674,12.7777,12.956,13.0545,13.0727,12.9907,12.9847,12.8469,12.5259,12.4164,12.2853,12.106,12.0982,12.0243,11.8619,11.7718,11.6897,11.6161,11.5351,11.4531,11.3704,11.2816,11.2076,0.0,0.0,0.0,0.0,0.0,0.0,0.0,0.0,0.0,0.0,0.0,0.0,0.0,0.0,0.0,10.3069,10.3833,10.4401,10.4772,10.5485,10.5926,10.5926,10.7491,10.8753,10.9171,11.2017,11.3836,11.3895,11.5197,11.6156,11.6463,11.6463,11.6778,11.7424,11.6811,11.6463,11.6463,11.5831,11.5764,11.6264,0.0,0.0,11.7198,11.8642,11.9284,11.9355,12.0763,12.1498,12.1788,12.1788,12.2011,12.2177,12.1563,12.132,12.1368,12.1664,12.1963,12.1808,11.8853,11.85,11.8816,11.5854,11.4666,11.4649,11.6074,11.551,0.0,11.7623,11.8369,11.8757,12.0384,12.1056,12.1428,12.1725,12.2018,12.2241,12.2241,12.3369,12.4346,12.4346,12.53,12.6188,12.6188,12.4027,12.3284,12.6262,12.5608,12.5753,12.8342,12.7525,12.7368,12.9156,13.0595,13.0883,12.9679,13.1442,13.0483,12.5526,12.3806,12.2203,12.0417,12.0035,11.9285,11.7931,11.6276,11.5064,11.4443,11.3187,11.2377,11.2005,11.0998,11.0329,0.0,0.0,0.0,0.0,0.0,0.0,0.0,0.0,0.0,0.0,0.0,0.0,0.0,0.0,0.0,0.0,10.3987,10.4531,10.6086,10.6917,10.7426,10.7426,10.7033,10.7631,10.9723,10.9819,11.1143,11.446,11.4933,11.5688,11.719,0.0,0.0,0.0,0.0,11.7264,11.7264,11.7198,11.6848,11.6272,11.6932,11.6943,11.6401,11.7269,11.766,11.7657,11.788,11.8754,12.0059,12.0059,12.0887,12.1948,11.9082,11.7981,11.8133,11.9498,12.0962,12.1969,12.011,0.0,0.0,11.5476,11.3968,11.2808,11.3006,11.2971,11.29,11.3261,11.3339,11.3707,11.5331,11.6826,11.8326,11.9726,12.1205,12.2241,12.2241,12.239,12.2542,12.2542,12.2687,12.2835,12.2835,12.2535,12.2917,12.4791,12.4944,12.494,12.5315,12.5163,12.5741,12.7448,0.0,0.0,12.7806,13.0846,13.0575,12.5458,12.5112,12.4223,12.2369,12.1015,12.014,11.9873,11.8145,11.5845,11.2822,11.26,11.1783,11.0307,11.1762,11.1604,0.0,0.0,0.0,0.0,0.0,0.0,0.0,0.0,0.0,0.0,0.0,0.0,0.0,0.0,0.0,0.0,10.2813,10.4504,10.559,10.5988,10.6574,10.7536,10.7407,10.758,10.8564,10.9276,11.0281,11.1912,11.2964,11.4227,11.5864,11.5939,11.6388,11.7363,11.7438,11.7438,11.7438,11.7438,11.724,11.6914,11.7247,11.7233,11.6917,11.725,11.7438,11.7438,11.7438,11.7802,11.8379,11.8379,11.8832,0.0,0.0,0.0,0.0,0.0,11.8836,11.9225,11.7519,11.5913,11.4498,11.3749,11.1828,11.0068,11.1989,11.1847,11.1321,11.2299,11.2525,11.2671,11.3339,11.4747,11.608,11.6745,11.8238,11.9433,11.9433,12.0172,12.0759,12.0759,12.1573,0.0,11.9804,11.9433,12.0324,12.292,12.3295,12.4038,12.5898,12.6204,12.6878,12.8572,12.896,12.8639,12.7791,12.9197,0.0,0.0,0.0,12.1755,11.9992,11.8333,0.0,0.0,0.0,0.0,0.0,0.0,0.0,0.0,11.0962,11.0845,0.0,0.0,0.0,0.0,0.0,0.0,0.0,0.0,0.0,0.0,0.0,0.0,0.0,0.0,0.0,0.0,10.1504,10.3292,10.3775,10.4204,10.5095,10.6797,10.7017,10.7168,10.7688,10.8734,10.9558,11.0006,11.1192,11.2522,11.4146,11.422,11.4966,11.6688,11.6685,11.6914,11.7438,11.7438,11.7438,11.7438,11.7438,11.7438,11.7438,11.7438,11.7438,11.7438,11.7438,11.7438,11.7438,11.7438,11.7438,11.7438,11.7438,11.7438,11.7438,11.7438,11.7438,11.7208,11.5496,11.4156,11.3019,11.2159,11.0246,10.8676,11.0594,11.0359,10.9606,11.0882,11.1185,11.1334,11.1783,11.2667,11.3626,11.4149,11.5196,11.6171,11.6614,11.7573,11.8535,11.8984,11.9352,11.898,11.7056,11.6685,11.7947,12.1725,12.2241,0.0,12.6117,12.6594,12.714,12.8405,12.8758,12.8392,12.734,12.7742,12.6159,12.1672,12.1276,12.0257,11.8105,11.718,11.5735,11.3563,11.3167,11.2687,0.0,0.0,0.0,0.0,0.0,0.0,0.0,0.0,0.0,0.0,0.0,0.0,0.0,0.0,0.0,0.0,0.0,0.0,0.0,0.0,0.0,0.0,0.0,0.0,10.0475,10.1753,10.3321,10.5021,10.5243,10.5906,10.7536,10.7759,10.836,10.9932,11.0081,11.082,11.2525,11.26,11.3336,11.4885,11.4956,11.5787,11.7363,11.7438,11.7438,11.7438,11.7438,11.7438,11.7438,11.7438,11.7438,11.7438,11.7438,11.7438,11.7438,11.7438,11.7438,11.7438,11.7438,11.7438,11.7438,11.7438,11.7438,11.7208,11.5496,11.4805,11.4312,11.1091,11.0014,10.9701,10.8301,10.7834,10.7759,10.7837,10.7834,10.8208,10.9706,11.0158,11.0601,11.2231,11.2674,11.3116,11.4592,11.5034,11.5486,11.714,11.4983,11.3339,11.474,11.4956,11.6668,12.1498,12.2241,0.0,12.4643,12.4873,12.4987,12.5265,12.5305,12.5413,12.5596,12.7122,12.6676,12.3147,12.2994,12.1502,11.8298,11.9722,11.8968,11.5662,11.3982,11.2225,11.0474,0.0,0.0,0.0,0.0,0.0,0.0,0.0,0.0,0.0,0.0,0.0,0.0,0.0,0.0,0.0,0.0,0.0,0.0,0.0,0.0,0.0,0.0,0.0,0.0,10.1675,10.2873,10.3393,10.4504,10.5389,10.5986,10.702,10.7908,10.8437,10.8434,10.918,11.0749,11.0898,11.1637,11.3265,11.3336,11.4075,11.5709,11.5709,11.6313,11.7438,11.7438,11.7438,11.7438,11.7438,11.7438,11.7438,11.7438,11.7438,11.7438,11.7438,11.7438,11.7438,11.7438,11.7438,11.7438,11.7438,11.7438,11.7208,11.5496,11.5652,11.6057,11.2737,11.0949,10.9933,10.9391,10.8536,10.7908,10.8957,10.8508,10.8059,10.9632,11.001,11.0452,11.2157,11.2525,11.2671,11.3261,11.3336,11.3488,11.4088,11.3342,11.3042,11.4588,11.4882,11.5854,11.8616,11.9946,12.1247,12.299,12.4284,12.5489,12.662,12.6954,12.6248,12.3929,12.4376,12.3305,12.0018,11.8741,11.7694,11.6578,11.4944,11.3601,11.2476,11.1764,11.1199,11.0643,0.0,0.0,0.0,0.0,0.0,0.0,0.0,0.0,0.0,0.0,0.0,0.0,0.0,0.0,0.0,0.0,0.0,0.0,0.0,0.0,0.0,0.0,0.0,0.0,0.0,0.0,10.1756,10.2792,0.0,10.4207,10.5834,10.6797,10.6797,10.7314,10.8134,10.9112,10.9183,10.9929,11.1563,11.1637,11.2448,11.3998,11.4055,11.4572,11.5699,11.6212,11.6509,11.6509,11.713,11.7438,11.7438,11.7438,11.7438,11.7438,11.7438,11.7438,11.7438,11.7438,11.7438,11.7438,11.7438,11.7438,11.7282,11.6198,11.6499,11.695,11.4289,11.1879,10.9933,10.9391,10.8505,10.7922,10.8944,10.8434,10.7911,10.8957,10.9183,10.948,11.0591,11.0814,11.0966,11.1489,11.1637,11.1637,11.1637,11.1637,11.2322,11.4593,11.4968,11.5718,11.7951,11.9181,12.0496,12.2254,12.4023,12.5613,12.6619,12.7541,12.6892,12.4084,12.3329,12.1655,11.8379,11.6581,11.5155,11.3964,11.2474,11.1432,11.0839,11.0689,11.0687,0.0,0.0,0.0,0.0,0.0,0.0,0.0,0.0,0.0,0.0,0.0,0.0,0.0,0.0,0.0,0.0,0.0,0.0,0.0,0.0,0.0,0.0,0.0,0.0,0.0,0.0,0.0,9.9958,10.0181,0.0,0.0,0.0,0.0,10.5243,10.6723,10.7611,10.7685,10.7611,10.8285,10.9858,10.9932,11.0746,11.2448,11.2395,11.2446,11.2598,11.4073,11.4734,11.4801,11.6435,11.7211,11.7286,11.7292,11.7296,11.7363,11.7218,11.7144,11.7144,11.7144,11.7144,11.7144,11.7147,11.7151,11.7151,11.7056,11.7071,11.6847,11.5199,11.258,10.9779,10.823,10.7748,0.0,0.0,10.7756,10.7685,10.7685,10.7685,10.7685,10.7685,10.7685,10.8063,10.9561,10.9932,10.9932,0.0,10.9932,11.0946,11.4357,0.0,11.6084,11.9345,11.9917,12.0558,12.2146,12.3888,12.506,12.5338,12.6776,12.7057,12.554,12.3901,12.158,11.8379,11.6581,11.4263,11.1133,11.2543,11.254,11.0839,11.0911,0.0,0.0,0.0,0.0,0.0,0.0,0.0,0.0,0.0,0.0,0.0,0.0,0.0,0.0,0.0,0.0,0.0,0.0,0.0,0.0,0.0,0.0,0.0,0.0,0.0,0.0,9.8113,9.9364,9.8479,9.8402,9.9522,0.0,0.0,0.0,0.0,0.0,0.0,10.7611,10.65,10.6577,10.8208,10.8285,10.9022,11.0646,11.0668,11.1336,11.258,11.2948,11.3114,11.3172,11.3621,11.4471,11.5503,11.553,11.6218,11.7215,11.476,11.3791,11.3791,11.3791,11.3791,11.3801,11.3824,11.3785,11.3601,11.2383,11.2747,11.3499,11.1793,11.0717,10.9937,10.9546,0.0,0.0,0.0,0.0,10.7685,10.7685,10.7685,10.7685,10.7685,10.7685,10.7834,10.8211,10.8285,10.8285,0.0,10.8285,10.9373,11.2782,0.0,0.0,0.0,0.0,11.9053,12.0763,12.1397,12.2666,12.5257,12.4747,12.4158,12.3745,12.2264,12.0401,11.8307,11.6581,11.5307,11.4485,11.3731,11.254,11.0839,0.0,0.0,0.0,0.0,0.0,0.0,0.0,0.0,0.0,0.0,0.0,0.0,0.0,0.0,0.0,0.0,0.0,0.0,0.0,0.0,0.0,0.0,0.0,0.0,0.0,0.0,0.0,9.4991,9.6688,9.5728,9.5654,9.6699,0.0,0.0,0.0,0.0,0.0,0.0,0.0,0.0,0.0,10.6524,10.7295,10.774,10.7848,10.8596,10.9507,11.0439,11.114,11.1411,11.1488,11.2238,11.3007,11.3821,11.3837,11.438,11.514,11.332,11.2561,11.2558,0.0,0.0,0.0,0.0,11.2571,11.2398,11.1466,11.1724,0.0,11.0558,0.0,0.0,0.0,0.0,0.0,0.0,0.0,0.0,0.0,0.0,10.7685,10.7685,10.7094,10.6797,10.7536,10.7685,10.793,0.0,10.8822,10.9704,11.2418,0.0,0.0,0.0,0.0,11.7494,11.9235,12.011,12.1368,12.3231,12.3228,12.2776,12.2109,12.1226,11.9656,11.7257,11.6205,11.5403,11.4857,11.395,11.3055,0.0,0.0,0.0,0.0,0.0,0.0,0.0,0.0,0.0,0.0,0.0,0.0,0.0,0.0,0.0,0.0,0.0,0.0,0.0,0.0,0.0,0.0,0.0,0.0,0.0,0.0,0.0,0.0,0.0,9.2455,9.2826,0.0,0.0,0.0,0.0,0.0,0.0,0.0,0.0,0.0,0.0,0.0,0.0,0.0,10.633,10.551,10.6518,10.7001,10.702,10.8416,10.919,10.9426,11.0891,11.1809,11.2181,11.154,0.0,11.1204,11.0987,0.0,0.0,0.0,0.0,0.0,0.0,0.0,0.0,0.0,0.0,0.0,0.0,0.0,0.0,0.0,0.0,0.0,0.0,0.0,0.0,0.0,0.0,10.6942,10.6794,10.5909,10.5544,0.0,10.6905,10.7251,10.8944,10.9266,0.0,0.0,0.0,0.0,0.0,0.0,0.0,11.749,11.9218,12.0481,12.0709,12.1738,12.1959,12.0783,12.0484,11.9132,11.6205,11.5811,11.5201,11.4075,11.3837,0.0,0.0,0.0,0.0,0.0,0.0,0.0,0.0,0.0,0.0,0.0,0.0,0.0,0.0,0.0,0.0,0.0,0.0,0.0,0.0,0.0,0.0,0.0,0.0,0.0,0.0,0.0,0.0,0.0,0.0,0.0,0.0,0.0,0.0,0.0,0.0,0.0,0.0,0.0,0.0,0.0,0.0,0.0,0.0,0.0,0.0,0.0,0.0,0.0,0.0,10.3779,10.4632,10.6021,10.6288,10.7927,11.0253,10.6097,10.4373,10.4243,10.2956,0.0,0.0,0.0,0.0,0.0,0.0,0.0,0.0,0.0,0.0,0.0,0.0,0.0,0.0,0.0,0.0,0.0,0.0,0.0,0.0,0.0,0.0,0.0,0.0,10.3381,10.4899,0.0,0.0,0.0,0.0,0.0,0.0,0.0,0.0,0.0,0.0,0.0,0.0,11.6027,11.7542,11.9129,12.0556,11.9728,11.95,12.0634,11.9431,11.8382,11.7781,11.6614,11.5851,0.0,0.0,0.0,0.0,0.0,0.0,0.0,0.0,0.0,0.0,0.0,0.0,0.0,0.0,0.0,0.0,0.0,0.0,0.0,0.0,0.0,0.0,0.0,0.0,0.0,0.0,0.0,0.0,0.0,0.0,0.0,0.0,0.0,0.0,0.0,0.0,0.0,0.0,0.0,0.0,0.0,0.0,0.0,0.0,0.0,0.0,0.0,0.0,0.0,0.0,0.0,0.0,0.0,0.0,0.0,0.0,0.0,0.0,0.0,10.0122,0.0,0.0,0.0,0.0,0.0,0.0,0.0,0.0,0.0,0.0,0.0,0.0,0.0,0.0,0.0,0.0,0.0,0.0,0.0,0.0,0.0,0.0,0.0,0.0,0.0,0.0,0.0,0.0,0.0,0.0,0.0,0.0,0.0,0.0,0.0,0.0,0.0,0.0,0.0,0.0,11.5762,11.7245,11.8531,11.9282,11.8681,11.8554,11.9537,11.888,11.8452,11.8594,11.7077,0.0,0.0,0.0,0.0,0.0,0.0,0.0,0.0,0.0,0.0,0.0,0.0,0.0,0.0,0.0,0.0,0.0,0.0,0.0,0.0,0.0,0.0,0.0,0.0,0.0,0.0,0.0,0.0,0.0,0.0,0.0,0.0,0.0,0.0,0.0,0.0,0.0,0.0,0.0,0.0,0.0,0.0,0.0,0.0,0.0,0.0,0.0,0.0,0.0,0.0,0.0,0.0,0.0,0.0,0.0,0.0,0.0,0.0,0.0,9.8556,0.0,0.0,0.0,0.0,0.0,0.0,0.0,0.0,0.0,0.0,0.0,0.0,0.0,0.0,0.0,0.0,0.0,0.0,0.0,0.0,0.0,0.0,0.0,0.0,0.0,0.0,0.0,0.0,0.0,0.0,0.0,0.0,0.0,0.0,0.0,0.0,0.0,0.0,0.0,0.0,0.0,11.4756,11.6637,11.7893,11.8293,11.8378,11.8437,11.8596,11.862,11.856,11.8383,11.6781,0.0,0.0,0.0,0.0,0.0,0.0,0.0,0.0,0.0,0.0,0.0,0.0,0.0,0.0,0.0,0.0,0.0,0.0,0.0,0.0,0.0,0.0,0.0,0.0,0.0,0.0,0.0,0.0,0.0,0.0,0.0,0.0,0.0,0.0,0.0,0.0,0.0,0.0,0.0,0.0,0.0,0.0,0.0,0.0,0.0,0.0,0.0,0.0,0.0,0.0,0.0,0.0,0.0,0.0,0.0,0.0,0.0,0.0,0.0,0.0,0.0,0.0,0.0,0.0,0.0,0.0,0.0,0.0,0.0,0.0,0.0,0.0,0.0,0.0,0.0,0.0,0.0,0.0,0.0,0.0,0.0,0.0,0.0,0.0,0.0,0.0,0.0,0.0,0.0,0.0,0.0,0.0,0.0,0.0,0.0,0.0,0.0,0.0,0.0,0.0,0.0,11.1418,11.4425,11.7083,11.8678,11.8859,11.887,11.8899,11.89,11.819,11.6623,0.0,0.0,0.0,0.0,0.0,0.0,0.0,0.0,0.0,0.0,0.0,0.0,0.0,0.0,0.0,0.0,0.0,0.0,0.0,0.0,0.0,0.0,0.0,0.0,0.0,0.0,0.0,0.0,0.0,0.0,0.0,0.0,0.0,0.0,0.0,0.0,0.0,0.0,0.0,0.0,0.0,0.0,0.0,0.0,0.0,0.0,0.0,0.0,0.0,0.0,0.0,0.0,0.0,0.0,0.0,0.0,0.0,0.0,0.0,0.0,0.0,0.0,0.0,0.0,0.0,0.0,0.0,0.0,0.0,0.0,0.0,0.0,0.0,0.0,0.0,0.0,0.0,0.0,0.0,0.0,0.0,0.0,0.0,0.0,0.0,0.0,0.0,0.0,0.0,0.0,0.0,0.0,0.0,0.0,0.0,0.0,0.0,0.0,0.0,0.0,0.0,0.0,11.2466,11.5053,11.7136,11.8779,11.8943,11.9087,11.9315,11.8412,11.7522,11.6967,0.0,0.0,0.0,0.0,0.0,0.0,0.0,0.0,0.0,0.0,0.0,0.0,0.0,0.0,0.0,0.0,0.0,0.0,0.0,0.0,0.0,0.0,0.0,0.0,0.0,0.0,0.0,0.0,0.0,0.0,0.0,0.0,0.0,0.0,0.0,0.0,0.0,0.0,0.0,0.0,0.0,0.0,0.0,0.0,0.0,0.0,0.0,0.0,0.0,0.0,0.0,0.0,0.0,0.0,0.0,0.0,0.0,0.0,0.0,0.0,0.0,0.0,0.0,0.0,0.0,0.0,0.0,0.0,0.0,0.0,0.0,0.0,0.0,0.0,0.0,0.0,0.0,0.0,0.0,0.0,0.0,0.0,0.0,0.0,0.0,0.0,0.0,0.0,0.0,0.0,0.0,0.0,0.0,0.0,0.0,0.0,0.0,0.0,0.0,0.0,0.0,0.0,11.276,11.4976,11.6816,11.9012,11.9246,11.9386,11.9672,11.8086,11.6979,11.6588,0.0,0.0,0.0,0.0,0.0,0.0,0.0,0.0,0.0,0.0,0.0,0.0,0.0,0.0,0.0,0.0,0.0,0.0,0.0,0.0,0.0,0.0,0.0,0.0,0.0,0.0,0.0,0.0,0.0,0.0,0.0,0.0,0.0,0.0,0.0,0.0,0.0,0.0,0.0,0.0,0.0,0.0,0.0,0.0,0.0,0.0,0.0,0.0,0.0,0.0,0.0,0.0,0.0,0.0,0.0,0.0,0.0,0.0,0.0,0.0,0.0,0.0,0.0,0.0,0.0,0.0,0.0,0.0,0.0,0.0,0.0,0.0,0.0,0.0,0.0,0.0,0.0,0.0,0.0,0.0,0.0,0.0,0.0,0.0,0.0,0.0,0.0,0.0,0.0,0.0,0.0,0.0,0.0,0.0,0.0,0.0,0.0,0.0,0.0,0.0,0.0,0.0,11.1274,11.3563,11.5891,11.9579,11.9892,11.9968,11.997,11.8378,11.6592,0.0,0.0,0.0,0.0,0.0,0.0,0.0,0.0,0.0,0.0,0.0,0.0,0.0,0.0,0.0,0.0,0.0,0.0,0.0,0.0,0.0,0.0,0.0,0.0,0.0,0.0,0.0,0.0,0.0,0.0,0.0,0.0,0.0,0.0,0.0,0.0,0.0,0.0,0.0,0.0,0.0,0.0,0.0,0.0,0.0,0.0,0.0,0.0,0.0,0.0,0.0,0.0,0.0,0.0,0.0,0.0,0.0,0.0,0.0,0.0,0.0,0.0,0.0,0.0,0.0,0.0,0.0,0.0,0.0,0.0,0.0,0.0,0.0,0.0,0.0,0.0,0.0,0.0,0.0,0.0,0.0,0.0,0.0,0.0,0.0,0.0,0.0,0.0,0.0,0.0,0.0,0.0,0.0,0.0,0.0,0.0,0.0,0.0,0.0,0.0,0.0,0.0,0.0,10.946,11.2892,11.5612,0.0,11.9213,11.9441,11.8304,11.6634,11.4497,11.158,0.0,0.0,0.0,0.0,0.0,0.0,0.0,0.0,0.0,0.0,0.0,0.0,0.0,0.0,0.0,0.0,0.0,0.0,0.0,0.0,0.0,0.0,0.0,0.0,0.0,0.0,0.0,0.0,0.0,0.0,0.0,0.0,0.0,0.0,0.0,0.0,0.0,0.0,0.0,0.0,0.0,0.0,0.0,0.0,0.0,0.0,0.0,0.0,0.0,0.0,0.0,0.0,0.0,0.0,0.0,0.0,0.0,0.0,0.0,0.0,0.0,0.0,0.0,0.0,0.0,0.0,0.0,0.0,0.0,0.0,0.0,0.0,0.0,0.0,0.0,0.0,0.0,0.0,0.0,0.0,0.0,0.0,0.0,0.0,0.0,0.0,0.0,0.0,0.0,0.0,0.0,0.0,0.0,0.0,0.0,0.0,0.0,0.0,0.0,0.0,0.0,0.0,0.0,11.2195,11.4813,0.0,11.891,11.8985,11.6635,11.5495,11.3219,10.935,0.0,0.0,0.0,0.0,0.0,0.0,0.0,0.0,0.0,0.0,0.0,0.0,0.0,0.0,0.0,0.0,0.0,0.0,0.0,0.0,0.0,0.0,0.0,0.0,0.0,0.0,0.0,0.0,0.0,0.0,0.0,0.0,0.0,0.0,0.0,0.0,0.0,0.0,0.0,0.0,0.0,0.0,0.0,0.0,0.0,0.0,0.0,0.0,0.0,0.0,0.0,0.0,0.0,0.0,0.0,0.0,0.0,0.0,0.0,0.0,0.0,0.0,0.0,0.0,0.0,0.0,0.0,0.0,0.0,0.0,0.0,0.0,0.0,0.0,0.0,0.0,0.0,0.0,0.0,0.0,0.0,0.0,0.0,0.0,0.0,0.0,0.0,0.0,0.0,0.0,0.0,0.0,0.0,0.0,0.0,0.0,0.0,0.0,0.0,0.0,0.0,0.0,0.0,11.0944,11.3297,11.656,11.8303,11.7998,11.4812,11.4508,11.246,10.7455,10.4041,0.0,0.0,0.0,0.0,0.0,0.0,0.0,0.0,0.0,0.0,0.0,0.0,0.0,0.0,0.0,0.0,0.0,0.0,0.0,0.0,0.0,0.0,0.0,0.0,0.0,0.0,0.0,0.0,0.0,0.0,0.0,0.0,0.0,0.0,0.0,0.0,0.0,0.0,0.0,0.0,0.0,0.0,0.0,0.0,0.0,0.0,0.0,0.0,0.0,0.0,0.0,0.0,0.0,0.0,0.0,0.0,0.0,0.0,0.0,0.0,0.0,0.0,0.0,0.0,0.0,0.0,0.0,0.0,0.0,0.0,0.0,0.0,0.0,0.0,0.0,0.0,0.0,0.0,0.0,0.0,0.0,0.0,0.0,0.0,0.0,0.0,0.0,0.0,0.0,0.0,0.0,0.0,0.0,0.0,0.0,0.0,0.0,0.0,0.0,0.0,0.0,0.0,10.6848,10.9427,11.155,11.2156,11.208,11.1246,11.117,10.9046,10.3965,10.1687,0.0,0.0,0.0,0.0,0.0,0.0,0.0,0.0,0.0,0.0,0.0,0.0,0.0,0.0,0.0,0.0,0.0,0.0,0.0,0.0,0.0,0.0,0.0,0.0,0.0,0.0,0.0,0.0,0.0,0.0,0.0,0.0,0.0,0.0,0.0,0.0,0.0,0.0,0.0,0.0,0.0,0.0,0.0,0.0,0.0,0.0,0.0,0.0,0.0,0.0,0.0,0.0,0.0,0.0,0.0,0.0,0.0,0.0,0.0,0.0,0.0,0.0,0.0,0.0,0.0,0.0,0.0,0.0,0.0,0.0,0.0,0.0,0.0,0.0,0.0,0.0,0.0,0.0,0.0,0.0,0.0,0.0,0.0,0.0,0.0,0.0,0.0,0.0,0.0,0.0,0.0,0.0,0.0,0.0,0.0,0.0,0.0,0.0,0.0,0.0,0.0,0.0,10.2598,10.6165,10.8592,10.9577,10.9425,10.7831,10.8439,10.6391,10.0472,9.9257,0.0,0.0,0.0,0.0,0.0,0.0,0.0,0.0,0.0,0.0,0.0,0.0,0.0,0.0,0.0,0.0,0.0,0.0,0.0,0.0,0.0,0.0,0.0,0.0,0.0,0.0,0.0,0.0,0.0,0.0,0.0,0.0,0.0,0.0,0.0,0.0,0.0,0.0,0.0,0.0,0.0,0.0,0.0,0.0,0.0,0.0,0.0,0.0,0.0,0.0,0.0,0.0,0.0,0.0,0.0,0.0,0.0,0.0,0.0,0.0,0.0,0.0,0.0,0.0,0.0,0.0,0.0,0.0,0.0,0.0,0.0,0.0,0.0,0.0,0.0,0.0,0.0,0.0,0.0,0.0,0.0,0.0,0.0,0.0,0.0,0.0,0.0,0.0,0.0,0.0,0.0,0.0,0.0,0.0,0.0,0.0,0.0,0.0,0.0,0.0,0.0,0.0,0.0,10.313,10.6013,10.7605,10.7452,10.4797,10.5936,10.4039,9.7812,0.0,0.0,0.0,0.0,0.0,0.0,0.0,0.0,0.0,0.0,0.0,0.0,0.0,0.0,0.0,0.0,0.0,0.0,0.0,0.0,0.0,0.0,0.0,0.0,0.0,0.0,0.0,0.0,0.0,0.0,0.0,0.0,0.0,0.0,0.0,0.0,0.0,0.0,0.0,0.0,0.0,0.0,0.0,0.0,0.0,0.0,0.0,0.0,0.0,0.0,0.0,0.0,0.0,0.0,0.0,0.0,0.0,0.0,0.0,0.0,0.0,0.0,0.0,0.0,0.0,0.0,0.0,0.0,0.0,0.0,0.0,0.0,0.0,0.0,0.0,0.0,0.0,0.0,0.0,0.0,0.0,0.0,0.0,0.0,0.0,0.0,0.0,0.0,0.0,0.0,0.0,0.0,0.0,0.0,0.0,0.0,0.0,0.0,0.0,0.0,0.0,0.0,0.0,0.0,0.0,10.1003,10.1306,10.1838,10.275,10.3054,10.1535,9.7661,0.0,0.0,0.0,0.0,0.0,0.0,0.0,0.0,0.0,0.0,0.0,0.0,0.0,0.0]}],[{"header":{"parameterUnit":"kt","parameterCategory":2,"dx":1,"dy":1,"la1":29.285339999999998,"la2":30.599998999999997,"lo1":-89.70041500000002,"lo2":-87.6738589999976,"nx":112,"ny":82,"refTime":"2022-10-15T00:00:00:Z","depth":0,"parameterNumber":2,"parameterNumberName":"V-component_of_WINDS"},"data":[7.5645,7.5607,0.0,7.5116,7.5514,0.0,7.4888,0.0,0.0,0.0,0.0,0.0,0.0,0.0,0.0,0.0,0.0,0.0,0.0,5.2471,0.0,0.0,0.0,0.0,0.0,0.0,0.0,0.0,0.0,0.0,0.0,0.0,6.2314,6.336,6.4355,6.4964,6.5157,6.6259,6.6907,6.7106,6.6907,6.7049,6.7419,6.7021,6.7049,6.747,6.747,6.747,6.747,6.747,6.747,6.747,6.747,6.747,6.747,6.747,6.747,6.747,6.747,6.747,6.747,6.747,6.747,6.747,6.747,6.747,6.747,6.747,6.747,6.747,6.747,6.747,6.747,6.747,6.747,6.747,6.747,6.747,6.747,6.747,6.747,6.747,6.747,6.747,6.747,6.747,6.747,6.747,6.747,6.747,6.747,6.747,6.747,6.747,6.747,6.747,6.747,6.747,6.747,6.747,6.747,6.747,6.747,6.747,6.747,6.747,6.747,6.747,6.747,6.747,6.747,6.6992,0.0,0.0,7.3688,7.337,0.0,0.0,0.0,0.0,0.0,0.0,0.0,0.0,0.0,0.0,0.0,0.0,0.0,0.0,0.0,0.0,5.2554,5.3607,0.0,0.0,0.0,0.0,0.0,0.0,0.0,0.0,0.0,6.1696,6.2314,6.3388,6.3971,6.4468,6.4917,6.552,6.6145,6.6793,6.6594,6.6822,6.7419,6.6992,6.7049,6.747,6.747,6.747,6.747,6.747,6.747,6.747,6.747,6.747,6.747,6.747,6.747,6.747,6.747,6.747,6.747,6.747,6.747,6.747,6.747,6.747,6.747,6.747,6.747,6.747,6.747,6.747,6.747,6.747,6.747,6.747,6.747,6.747,6.747,6.747,6.747,6.747,6.747,6.7078,6.6793,6.6793,6.6793,6.6793,6.6793,6.6793,6.6793,6.6793,6.6793,6.6793,6.6793,6.6793,6.6793,6.6793,6.6793,6.6793,6.6793,6.6793,6.6793,6.6793,6.6793,6.6793,6.6793,6.6793,6.6793,6.6793,6.6793,6.6316,0.0,0.0,0.0,7.219,0.0,0.0,0.0,0.0,6.8468,0.0,0.0,0.0,0.0,0.0,0.0,0.0,0.0,0.0,0.0,0.0,5.4166,5.5997,0.0,0.0,0.0,0.0,0.0,0.0,0.0,0.0,6.0928,6.1468,6.2094,6.2762,6.3438,6.3758,6.3787,6.4269,6.4873,6.5498,6.6174,6.6822,6.7419,6.7442,6.747,6.747,6.747,6.747,6.747,6.747,6.747,6.747,6.747,6.7419,6.7442,6.7442,6.747,6.747,6.747,6.747,6.747,6.747,6.747,6.747,6.747,6.747,6.747,6.747,6.747,6.747,6.747,6.747,6.747,6.747,6.747,6.747,6.747,6.747,6.7442,6.7442,6.7419,6.7413,6.739,6.6316,6.5469,6.5498,6.5498,6.5498,6.5498,6.5498,6.5469,6.5469,6.5469,6.5469,6.5469,6.5498,6.5498,6.5498,6.5498,6.5498,6.5498,6.5498,6.5498,6.5498,6.5498,6.5498,6.5498,6.5498,6.5498,6.5498,6.5469,6.5441,7.0637,0.0,0.0,0.0,0.0,0.0,0.0,0.0,0.0,0.0,0.0,0.0,0.0,0.0,0.0,0.0,0.0,5.5569,0.0,5.3514,5.4718,0.0,0.0,0.0,0.0,0.0,0.0,0.0,0.0,6.1724,6.0879,6.1468,6.2094,6.2762,6.3438,6.3936,6.4326,6.4453,6.4873,6.5498,6.6174,6.6594,6.6765,6.7242,6.747,6.747,6.747,6.747,6.747,6.747,6.747,6.747,6.747,6.7163,6.6822,6.7277,6.747,6.747,6.747,6.747,6.747,6.747,6.747,6.747,6.747,6.747,6.747,6.747,6.747,6.747,6.747,6.747,6.747,6.747,6.747,6.747,6.747,6.747,6.7305,6.685,6.6765,6.6594,6.6117,6.5356,6.4986,6.5441,6.5498,6.5498,6.5498,6.51,6.4816,6.4816,6.4816,6.4816,6.4816,6.5242,6.5498,6.5498,6.5498,6.5498,6.5498,6.5498,6.5498,6.5498,6.5498,6.5498,6.5498,6.5498,6.5498,6.5469,6.4626,6.4249,0.0,0.0,0.0,0.0,0.0,0.0,6.5924,0.0,6.5643,0.0,0.0,0.0,0.0,0.0,0.0,0.0,5.6393,0.0,0.0,0.0,5.614,0.0,0.0,0.0,0.0,0.0,0.0,0.0,6.1078,6.1411,6.0509,6.1049,6.1696,6.2371,6.2741,6.3367,6.4206,6.3928,6.4241,6.51,6.5469,6.5782,6.6088,6.6458,6.6793,6.7049,6.7049,6.7191,6.7442,6.7163,6.7049,6.7078,6.7356,6.722,6.6935,6.7305,6.747,6.747,6.747,6.747,6.747,6.747,6.747,6.747,6.747,6.747,6.747,6.747,6.747,6.747,6.747,6.747,6.7362,6.7106,6.7049,6.6964,6.6708,6.6651,6.643,6.5804,6.5662,6.5492,6.4882,6.4462,6.4234,6.4348,6.4604,6.4661,6.4405,6.4291,6.4206,6.4206,6.4206,6.4206,6.4206,6.4547,6.4774,6.4774,6.4774,6.4774,6.4774,6.4774,6.4774,6.4774,6.4774,6.4774,6.4774,6.4774,6.4774,6.4746,6.4071,6.378,0.0,0.0,0.0,0.0,6.5529,0.0,0.0,0.0,0.0,6.6205,0.0,6.7303,6.5408,0.0,0.0,0.0,0.0,0.0,5.4539,5.5988,5.7705,5.9266,5.8672,0.0,0.0,6.1042,6.0928,5.975,6.0814,6.1013,5.9855,6.0452,6.1135,6.1781,6.1887,6.2513,6.373,6.3189,6.3431,6.4446,6.4532,6.4844,6.5384,6.5469,6.581,6.6373,6.6373,6.6708,6.7214,6.6708,6.6458,6.6515,6.6935,6.7106,6.7134,6.7299,6.7333,6.7333,6.7442,6.747,6.747,6.747,6.739,6.7333,6.7333,6.7333,6.7333,6.7333,6.7333,6.7305,6.7271,6.7242,6.7078,6.6486,6.6373,6.6202,6.5611,6.5498,6.5299,6.4652,6.4538,6.4333,6.3758,6.3644,6.3495,6.299,6.3388,6.3531,6.299,6.3274,6.3559,6.3637,6.3581,6.3559,6.3644,6.3723,6.378,6.378,6.378,6.378,6.378,6.378,6.378,6.378,6.378,6.378,6.378,6.378,6.378,6.378,6.378,6.378,0.0,0.0,0.0,0.0,0.0,6.4913,0.0,0.0,0.0,6.7063,6.9016,6.9178,6.4472,6.4063,6.2541,5.68,0.0,0.0,0.0,5.6566,0.0,5.6908,5.761,0.0,0.0,5.8769,5.872,5.8464,5.9167,5.948,5.9253,6.0265,6.1135,6.1781,6.2314,6.299,6.3751,6.3637,6.3673,6.3908,6.4355,6.4595,6.4759,6.5271,6.5577,6.5719,6.5719,6.5754,6.5918,6.6316,6.6458,6.6373,6.5492,6.51,6.5214,6.631,6.6679,6.6714,6.7271,6.747,6.747,6.747,6.7106,6.6679,6.6679,6.6679,6.6679,6.6679,6.6679,6.6543,6.6032,6.5889,6.5861,6.5725,6.5719,6.5662,6.5526,6.5498,6.5299,6.4652,6.4538,6.4191,6.3139,6.299,6.3104,6.3502,6.3694,6.3723,6.3588,6.2762,6.24,6.2933,6.2513,6.24,6.2912,6.3445,6.378,6.378,6.378,6.378,6.378,6.378,6.378,6.378,6.378,6.378,6.378,6.378,6.378,6.378,6.378,6.378,0.0,0.0,0.0,6.4913,0.0,0.0,0.0,6.6607,6.733,6.656,6.8079,6.7937,6.2444,6.2717,6.2074,5.7012,5.6737,5.6927,5.6272,5.6728,5.7155,5.7155,5.7459,0.0,5.8085,5.8133,5.8133,5.8133,5.8731,5.9093,5.9093,6.0209,6.1135,6.1781,6.2456,6.3104,6.3751,6.378,6.378,6.378,6.405,6.4149,6.417,6.4483,6.4752,6.5015,6.5015,6.5192,6.5498,6.5498,6.5498,6.5469,6.5157,6.5015,6.51,6.5747,6.6003,6.6032,6.6373,6.6458,6.6401,6.6088,6.5754,6.5441,6.5194,6.5109,6.5109,6.5109,6.5109,6.5046,6.4711,6.4626,6.4569,6.4227,6.4398,6.4518,6.4206,6.4398,6.4455,6.3779,6.3921,6.3971,6.3388,6.3018,6.2769,6.2769,6.2769,6.2769,6.2769,6.2513,6.2407,6.2741,6.2485,6.2314,6.2314,6.2599,6.2933,6.3246,6.3274,6.3417,6.373,6.378,6.378,6.378,6.378,6.378,6.378,6.378,6.378,6.378,6.378,6.378,0.0,0.0,0.0,0.0,0.0,0.0,6.6313,6.7839,6.8585,6.6037,6.69,6.64,6.093,6.1271,6.1169,5.7368,5.7411,5.7487,5.6197,5.6538,5.7098,5.7496,5.7203,0.0,5.7687,5.7744,5.7744,5.7744,5.8199,5.8674,5.9065,6.0001,6.0956,6.1973,6.24,6.2969,6.3751,6.378,6.378,6.378,6.378,6.378,6.378,6.378,6.3993,6.439,6.439,6.4696,6.5122,6.4702,6.4475,6.4418,6.4951,6.515,6.5179,6.5271,6.5327,6.5327,6.5469,6.5498,6.5435,6.4901,6.4624,6.4475,6.4028,6.3929,6.3901,6.3787,6.378,6.378,6.378,6.3644,6.3474,6.3075,6.3189,6.3303,6.3047,6.3274,6.3445,6.3047,6.3388,6.3723,6.3588,6.3132,6.2599,6.2087,6.2001,6.2037,6.2172,6.2542,6.2848,6.2961,6.2741,6.2428,6.2037,6.2001,6.2229,6.2741,6.2883,6.3218,6.3751,6.378,6.378,6.378,6.378,6.378,6.378,6.378,6.378,6.378,6.378,6.378,6.3797,6.4337,6.4913,6.4913,6.6121,0.0,6.6449,6.8766,7.0156,6.7003,6.7717,6.7197,6.1713,6.0903,5.9812,5.6049,5.6462,5.6794,5.5496,5.5874,5.6092,5.5581,5.5978,5.631,5.6386,5.6396,5.6396,5.6396,5.6472,5.7259,5.8988,5.9216,6.0355,6.262,6.22,6.2513,6.373,6.378,6.378,6.378,6.378,6.378,6.378,6.378,6.3808,6.3844,6.3844,6.3872,6.3986,6.4383,6.4269,6.3844,6.3929,6.3958,6.4015,6.4468,6.4674,6.4737,6.5299,6.5498,6.5498,6.5413,6.5015,6.451,6.4453,6.4446,6.4355,6.3901,6.378,6.378,6.378,6.3331,6.3018,6.3531,6.2819,6.2314,6.3417,6.3246,6.3025,6.3559,6.3701,6.3581,6.299,6.2826,6.2762,6.2684,6.2684,6.2883,6.3474,6.3104,6.3018,6.3588,6.2599,6.2122,6.2627,6.2684,6.2684,6.2791,6.3331,6.3673,6.378,6.378,6.378,6.378,6.378,6.378,6.378,6.378,6.378,6.378,6.378,6.378,6.3068,6.363,6.4337,6.4815,0.0,0.0,6.7709,6.9586,7.0698,6.8433,6.7085,6.5059,6.1029,5.9423,5.7933,5.5606,5.5988,5.6263,5.5353,5.5761,5.6083,5.5789,5.6007,5.6168,5.6168,5.6168,5.6168,5.6168,5.6168,5.6699,5.7886,5.8976,6.0209,6.161,6.2122,6.2826,6.3751,6.378,6.378,6.378,6.378,6.378,6.378,6.378,6.378,6.378,6.378,6.378,6.3758,6.3993,6.3964,6.378,6.378,6.378,6.3787,6.4021,6.4085,6.4114,6.442,6.4505,6.437,6.3609,6.3182,6.2791,6.2031,6.2109,6.2336,6.2122,6.2343,6.2648,6.2648,6.2428,6.2265,6.2542,6.2513,6.2513,6.3075,6.3274,6.3218,6.2734,6.2648,6.2542,6.2257,6.2229,6.2229,6.2229,6.2229,6.2456,6.3104,6.2961,6.2741,6.2627,6.2143,6.1781,6.1667,6.1639,6.1952,6.2762,6.3047,6.336,6.373,6.378,6.378,6.378,6.378,6.378,6.378,6.378,6.378,6.378,6.378,6.378,6.2588,0.0,0.0,0.0,0.0,0.0,6.8642,6.9638,6.984,6.7811,6.5094,6.2186,5.9143,5.766,5.649,5.5382,5.5761,5.6026,5.5543,5.5893,5.6168,5.6168,5.6168,5.6168,5.6168,5.6168,0.0,0.0,5.6168,5.6472,5.7098,5.8757,6.0103,6.1078,6.203,6.2826,6.3474,6.3644,6.378,6.378,6.378,6.378,6.378,6.378,6.378,6.378,6.378,6.378,6.378,6.378,6.378,6.378,6.378,6.378,6.378,6.378,6.378,6.378,6.378,6.378,6.3588,6.2656,6.2343,6.2172,6.1241,6.1269,6.161,6.1419,6.1859,6.2314,6.2122,6.1952,6.1866,6.2058,6.2009,6.2087,6.2428,6.2883,6.2961,6.198,6.181,6.1753,6.1582,6.1696,6.181,6.181,6.1973,6.2314,6.299,6.2904,6.2599,6.2122,6.1944,6.161,6.1155,6.1277,6.1696,6.2456,6.2876,6.3189,6.3495,6.3644,6.378,6.378,6.378,6.378,6.378,6.378,6.378,6.378,6.378,6.378,0.0,0.0,0.0,6.6015,6.7519,6.8772,6.881,6.8454,6.7211,6.4008,6.156,5.907,5.5938,5.5817,5.5978,5.5325,5.5761,5.6168,5.614,5.6168,5.6168,5.6168,5.6168,5.6168,5.6168,5.6168,5.6168,0.0,5.6168,5.6472,5.7098,5.837,5.9936,6.1745,6.181,6.2172,6.2798,6.3445,6.378,6.378,6.378,6.378,6.378,6.378,6.378,6.378,6.378,6.378,6.378,6.378,6.378,6.378,6.378,6.378,6.378,6.378,6.378,6.378,6.378,6.378,6.3751,6.3723,6.3701,6.3694,6.3666,6.3666,6.3552,6.2883,6.3189,6.3581,6.2933,6.2265,6.1952,6.2599,6.1326,6.029,6.1582,6.1838,6.1866,6.181,6.181,6.161,6.0964,6.1391,6.181,6.181,6.2343,6.299,6.3644,6.3189,6.2791,6.2762,6.2179,6.183,6.1781,6.2371,6.2485,6.1866,6.3047,6.3445,6.2848,6.3417,6.378,6.378,6.378,6.378,6.378,6.378,6.378,6.378,6.378,6.378,6.2436,6.3357,6.4337,6.5172,6.6668,6.7883,6.7883,6.8646,6.8743,6.6686,6.4034,6.1298,5.8758,5.7149,5.5978,5.5306,5.5761,5.6168,5.6168,5.6168,5.6168,5.6168,5.6168,5.6168,5.6168,5.6168,5.6168,5.6168,0.0,0.0,5.6481,5.7326,5.8285,5.9318,6.0131,6.1049,6.2122,6.2769,6.3104,6.3132,6.3531,6.378,6.378,6.378,6.378,6.378,6.378,6.378,6.378,6.378,6.378,6.378,6.378,6.378,6.378,6.378,6.378,6.378,6.378,6.378,6.3637,6.2741,6.2456,6.2314,6.144,6.1468,6.1781,6.1554,6.1973,6.2428,6.22,6.1952,6.1866,6.2066,6.1639,6.1298,6.1724,6.0542,5.9367,5.9367,5.9367,5.929,5.9062,5.9594,6.0115,6.0481,6.1078,6.1887,6.299,6.2563,6.2314,6.2762,6.22,6.181,6.181,6.2009,6.2037,6.1838,6.2627,6.3018,6.2769,6.3417,6.378,6.378,6.378,6.3331,6.2456,6.2456,6.2456,6.2456,6.2456,6.2456,6.2749,6.3812,6.48,6.5301,6.5895,6.6296,6.6063,6.5592,6.5051,6.4352,6.195,5.9637,5.8415,5.7093,5.6035,5.5628,5.5922,5.6168,5.6168,5.6168,5.6111,5.5865,5.6054,5.6064,5.5846,5.6054,5.6168,5.6168,5.6396,5.6529,5.6529,5.7354,5.8048,5.8447,5.9392,6.0375,6.1468,6.2094,6.2428,6.2456,6.2876,6.3189,6.3417,6.3417,6.3552,6.373,6.3502,6.3417,6.3417,6.3644,6.378,6.378,6.378,6.378,6.378,6.378,6.378,6.378,6.378,6.378,6.3637,6.2769,6.2513,6.2371,6.1525,6.1391,6.1497,6.1248,6.1497,6.1753,6.1525,6.1468,6.1411,6.1163,6.0977,6.077,6.0542,5.9253,5.8133,5.8133,5.8133,5.8133,5.8133,5.8646,5.9216,5.9554,6.0282,6.1049,6.1667,6.1582,6.1554,6.1724,6.1582,6.1468,6.1468,6.1667,6.1724,6.1497,6.2087,6.2343,6.2115,6.2712,6.3075,6.3075,6.3075,6.2656,6.181,6.181,6.181,6.181,6.181,6.181,6.3531,6.4822,6.5989,6.6152,6.5204,6.4029,6.3375,6.0065,5.726,5.7559,5.5941,5.4638,5.5098,5.5704,5.614,5.6168,5.6168,5.6168,5.6168,5.6168,5.595,5.5278,5.5761,5.5846,5.524,5.5761,5.614,5.614,5.6728,5.7098,5.7155,5.8361,5.9065,5.9093,5.9591,6.0176,6.0793,6.1411,6.1724,6.1753,6.1781,6.2143,6.2741,6.2741,6.3075,6.3637,6.3018,6.2741,6.2769,6.3388,6.3694,6.3701,6.3701,6.3701,6.378,6.378,6.378,6.378,6.378,6.378,6.373,6.3694,6.3644,6.3644,6.3581,6.3111,6.2513,6.1944,6.1724,6.1582,6.0993,6.0793,6.0594,5.9977,5.9412,5.8894,5.8247,5.8057,5.8,5.8,5.8,5.8,5.8,5.8532,5.8951,5.9008,5.9924,6.0452,5.9912,6.0367,6.0517,5.9977,6.0481,6.0822,6.0793,6.1391,6.1447,6.0814,6.1383,6.1497,6.0879,6.1468,6.181,6.181,6.1753,6.1724,6.1724,6.1724,6.1724,6.1724,6.1724,6.1724,6.338,6.2736,6.2224,6.4665,6.3637,6.192,6.1559,6.1982,6.1207,5.7022,5.689,5.7089,5.5507,5.5353,5.56,5.6111,5.6168,5.6168,5.6168,5.6168,5.595,5.5278,5.5353,5.5211,5.4549,5.5051,5.5457,5.5457,5.6064,5.6642,5.7146,5.7914,5.8589,5.9093,5.9591,5.9949,6.0119,6.029,6.0623,6.1078,6.1582,6.1895,6.2058,6.2058,6.2151,6.2314,6.2122,6.2058,6.2066,6.2257,6.2599,6.3047,6.3047,6.3331,6.378,6.378,6.378,6.378,6.378,6.378,6.3609,6.2648,6.2314,6.2122,6.1155,6.0737,6.068,6.0993,6.0737,6.0432,6.0765,6.018,5.948,5.9338,5.8817,5.8333,5.8162,5.7373,5.6652,5.6652,5.6652,5.6652,5.6652,5.6794,5.7089,5.7573,5.7895,5.8379,5.9196,5.9443,5.9802,6.0509,6.0737,6.0651,6.0148,6.0708,6.0643,5.9594,6.0522,6.1021,6.085,6.1468,6.181,6.181,6.085,6.0347,6.0347,6.0347,6.0347,6.0347,6.0347,6.0347,6.0871,6.0143,5.9114,6.0635,5.9527,5.7923,5.7396,5.7778,5.7399,5.4402,5.4718,5.5236,5.4175,5.4235,5.4737,5.5618,5.5761,5.5846,5.614,5.6168,5.595,5.5278,5.5193,5.5051,5.471,5.4738,5.4994,5.5571,5.6253,5.6756,5.7126,5.8265,5.8948,5.9093,5.9591,5.975,5.9526,5.977,5.994,6.0087,6.0672,6.1127,6.1383,6.1383,6.1241,6.0964,6.1269,6.1383,6.1411,6.1696,6.2009,6.2371,6.2371,6.2762,6.3331,6.3331,6.3502,6.378,6.378,6.378,6.3637,6.2883,6.2656,6.2542,6.1781,6.1383,6.1184,6.1269,6.0993,6.068,6.0481,5.9753,5.9036,5.8751,5.7943,5.7259,5.7259,5.6699,5.6168,5.6168,5.6168,5.6168,5.6168,5.6168,5.6282,5.6671,5.6975,5.7297,5.7744,5.8304,5.8911,5.9583,5.9639,5.9611,5.9526,5.9867,5.9773,5.913,5.9924,6.0424,6.0424,6.0765,6.0964,6.0964,6.0233,5.9863,5.9863,5.9863,5.9863,5.9863,5.9863,5.9863,5.706,5.7361,5.6924,5.6191,5.4777,5.3423,5.2734,5.174,5.1012,5.1212,5.1257,5.1467,5.2195,5.2885,5.3693,5.4804,5.5126,5.541,5.5978,5.614,5.595,5.5278,5.5193,5.5136,5.4984,5.4521,5.4681,5.5836,5.651,5.6956,5.7146,5.8738,5.9449,5.9122,5.9591,5.9619,5.9073,5.9619,5.9619,5.9073,5.9619,6.0176,6.0708,6.0708,6.0403,5.992,6.0481,6.0708,6.0765,6.1326,6.161,6.1696,6.1696,6.2087,6.2656,6.2656,6.3075,6.3616,6.3616,6.3673,6.373,6.3666,6.3616,6.3588,6.3502,6.3104,6.2542,6.1952,6.1696,6.1277,6.0148,5.9355,5.8674,5.8114,5.7089,5.6168,5.6168,5.6168,5.6168,5.6168,5.6168,5.6168,5.6168,5.6168,5.6168,5.6168,5.6671,5.6813,5.6253,5.7259,5.7971,5.7971,5.8057,5.8361,5.8922,5.9016,5.9093,5.9093,5.9591,5.9863,5.9863,5.9863,5.9863,5.9863,5.9863,5.9863,5.9863,5.9863,5.9863,5.9863,5.9863,5.9863,5.332,5.4896,5.6686,5.6128,5.3714,5.1564,5.195,5.2591,5.252,5.0341,4.9898,5.0284,5.1438,5.2213,5.2896,5.3636,5.4576,5.525,5.5353,5.5865,5.595,5.5278,5.5193,5.4814,5.3863,5.4046,5.4322,5.4549,5.5164,5.5998,5.7098,5.7971,5.8626,5.9093,5.9591,5.9619,5.9073,5.9619,5.9619,5.9073,5.9619,5.992,6.0034,6.0034,5.9977,5.9872,6.0005,6.0034,6.0062,6.0148,6.0538,6.1021,6.1021,6.1411,6.2001,6.2001,6.24,6.2961,6.2961,6.3303,6.3644,6.3132,6.2961,6.2826,6.2314,6.2066,6.1952,6.1859,6.1021,6.0148,5.992,5.8681,5.7459,5.7345,5.6728,5.6168,5.6168,5.6168,5.6168,5.6168,5.6168,5.6168,5.6168,5.6168,5.6168,5.6168,5.6282,5.6329,5.6197,5.6842,5.7316,5.7316,5.78,5.8142,5.8276,5.8788,5.9093,5.9093,5.9591,5.9863,5.9863,5.9863,5.9863,5.9863,5.9863,5.9863,5.9863,5.9863,5.9863,5.9863,5.9863,5.9863,5.1066,5.162,5.1974,5.1375,4.9746,4.8554,4.9547,5.021,5.0319,4.9348,4.9374,4.9756,5.0398,5.1023,5.1683,5.2309,5.3219,5.4008,5.4625,5.5268,5.5656,5.5704,5.5429,5.5116,5.4888,5.4225,5.4093,5.471,5.5022,5.5628,5.6566,5.7573,5.8256,5.8561,5.9147,5.9196,5.8589,5.9449,5.9619,5.9073,5.9619,5.9863,5.9863,5.9863,5.9863,5.9863,5.9863,5.9863,5.9863,5.9863,6.0062,6.0339,6.0339,6.0716,6.1326,6.1326,6.1724,6.2286,6.2286,6.2684,6.3189,6.2883,6.3018,6.3246,6.2933,6.2826,6.2741,6.2428,6.1866,6.1241,6.0566,5.927,5.8076,5.7744,5.7155,5.6566,5.6253,5.6168,5.6168,5.6168,5.6168,5.6035,5.5627,5.557,5.5399,5.4934,5.4858,5.4858,5.4858,5.5556,5.6152,5.6509,5.6876,5.7402,5.8057,5.8418,5.8731,5.9065,5.9591,5.9863,5.9863,5.9863,5.9863,5.9863,5.9863,5.9863,5.9863,5.9863,5.9863,5.9863,5.9611,5.944,4.9304,4.8922,4.7709,4.7164,4.6566,4.6367,4.7379,4.7607,4.7851,4.8636,4.9311,4.9756,4.9568,5.021,5.087,5.1239,5.1854,5.2633,5.3705,5.4416,5.5116,5.5893,5.5514,5.541,5.5922,5.4688,5.4215,5.5136,5.5193,5.5486,5.614,5.7288,5.7914,5.7914,5.8532,5.8561,5.7934,5.8965,5.9298,0.0,5.944,5.975,5.9863,5.977,5.9685,5.9713,5.9807,5.9863,5.9863,5.9863,5.9863,5.9863,5.9863,6.0176,6.0623,6.0623,6.1049,6.161,6.161,6.2009,6.257,6.257,6.3018,6.3531,6.3531,6.3644,6.3609,6.2819,6.2485,6.2058,6.0615,5.9574,5.878,5.8247,5.7516,5.6813,5.6282,5.6035,5.5903,5.5903,5.5751,5.5428,5.4848,5.4734,5.4467,5.3772,5.3658,5.3658,5.3677,5.4315,5.4947,5.5446,5.5737,5.646,5.7706,5.8016,5.8447,5.9196,5.9648,5.9863,5.9863,5.9863,5.9863,5.9863,5.9863,5.9863,5.9863,5.9863,5.9863,5.9863,5.944,5.9216,4.7523,4.7943,4.7778,4.7749,4.7221,4.6794,4.6908,4.6952,4.7294,4.8522,4.9697,5.0267,4.967,5.0597,5.1239,5.071,5.12,5.1854,5.2537,5.3209,5.4034,5.5155,5.525,5.5221,5.5278,5.5155,5.5098,5.5193,5.5193,5.5486,5.614,5.6842,5.7259,5.7259,5.7857,5.7886,5.724,5.7943,5.8256,5.8219,5.8845,5.9403,5.9863,5.9375,5.9159,5.9187,5.9656,5.9863,5.9863,5.9863,5.9863,5.9863,5.9863,5.992,5.9977,5.9977,6.0395,6.0936,6.0936,6.1354,6.1916,6.1916,6.2343,6.2876,6.2876,6.3274,6.3524,6.2257,6.1468,6.0615,5.8834,5.8304,5.819,5.8133,5.7155,5.6253,5.6197,5.5627,5.5095,5.5095,5.4448,5.3906,5.3952,5.383,5.3734,5.3658,5.3658,5.3677,5.3819,5.3895,5.3941,5.3873,5.4609,5.5578,5.6794,5.7643,5.8606,5.9741,5.9835,5.9863,5.9863,5.9863,5.9863,5.9863,5.9863,5.9863,5.9863,5.9863,5.9863,5.9863,5.9807,5.9534,4.7294,4.7823,4.7908,4.8307,4.7908,4.7237,4.6437,4.6551,4.7107,4.8022,4.9123,4.9983,5.0142,5.0239,5.0511,5.104,5.0682,5.0841,5.2298,5.2384,5.3002,5.4984,5.4852,5.4927,5.5704,5.5439,5.5193,5.5193,5.5193,5.5325,5.5571,5.6225,5.6586,5.6586,5.7183,5.7383,5.7155,5.78,5.8133,5.8133,5.839,5.8598,5.8786,5.8617,5.8504,5.8532,5.9119,5.9403,5.9432,5.9741,5.9863,5.9863,5.9863,5.9863,5.9863,5.9863,6.0034,6.0261,6.0261,6.068,6.1241,6.1241,6.1667,6.22,6.22,6.2371,6.24,6.1497,6.1049,6.0594,5.9477,5.8644,5.7797,5.6557,5.6141,5.581,5.4846,5.4401,5.4109,5.379,5.3444,5.2938,5.2117,5.1905,5.1718,5.1248,5.1173,5.1192,5.1248,5.2434,5.3255,5.3198,5.472,5.6061,5.6916,5.7331,5.8066,5.9318,5.9403,5.9554,5.9863,5.9863,5.9863,5.9863,5.9863,5.9863,5.9863,5.9863,5.9863,5.9863,5.9534,5.9281,4.6465,4.7095,4.7493,4.8522,4.8164,4.7335,4.6608,4.6952,4.7436,4.7522,4.8611,4.9699,5.017,5.004,5.0153,5.1069,5.0284,5.0097,5.1683,5.1683,5.2291,5.4434,5.4426,5.4681,5.5789,5.5647,5.5514,5.5514,5.5514,5.5514,5.5514,5.5922,5.6168,5.6168,5.6642,5.687,5.687,5.7316,5.763,5.7829,5.7829,5.7744,5.7544,5.7744,5.7829,5.7905,5.8731,5.9093,5.913,5.9676,5.9863,5.9863,5.9863,5.9863,5.9863,5.9863,5.9863,5.9863,5.9863,6.0176,6.0566,6.0566,6.0993,6.1525,6.1525,6.1667,6.1667,6.1021,6.085,6.0594,5.9619,5.8531,5.7215,5.5153,5.487,5.4726,5.3467,5.2971,5.2693,5.2298,5.2049,5.156,5.0547,5.0382,5.0215,4.9658,4.8777,4.82,4.82,4.8728,4.9126,4.9126,5.1762,5.3787,5.4428,5.5943,5.743,5.8723,5.9008,5.848,5.7159,5.7346,5.8051,5.9205,5.9152,5.9358,5.9863,5.9649,5.9649,5.9863,5.9497,5.9244,4.4629,4.5397,4.6351,4.8307,4.7823,4.7022,4.768,4.8307,4.8392,4.7107,4.8311,4.9585,4.9568,5.0097,5.0557,5.054,4.9983,4.9812,5.0455,5.1097,5.1996,5.3312,5.3923,5.4493,5.5136,5.5789,5.6168,5.6168,5.6168,5.6168,5.6168,5.6168,5.6168,5.6168,5.6197,5.6197,5.6197,5.6197,5.6529,5.7155,5.7155,5.6813,5.6225,5.687,5.7155,5.7212,5.8532,5.9093,5.913,5.9676,5.9863,5.9863,5.9863,5.9863,5.9863,5.9863,5.9863,5.9863,5.9863,5.9872,5.9872,5.9872,6.0318,6.085,6.085,6.1326,6.1667,6.1021,6.085,6.0444,5.8626,5.7447,5.6277,5.4349,5.3355,5.2756,5.2239,5.1382,5.0761,5.0735,5.0123,4.9603,4.9603,4.9603,4.9584,4.9584,4.6924,4.4929,4.4929,4.2257,4.0366,4.0366,4.4549,4.7597,4.8238,5.3145,5.6756,5.8028,5.8751,5.6528,5.0884,5.1492,5.38,5.7665,5.7493,5.8202,5.9863,5.9082,5.9102,5.9863,5.9863,5.9591,4.4999,4.5397,4.5767,4.8193,4.8136,4.7322,4.6652,4.7009,4.7367,4.6936,4.7648,4.8611,4.9415,4.9078,4.9225,5.0944,4.9994,4.9697,5.1615,5.0881,5.0966,5.3198,5.3191,5.3439,5.4436,5.471,5.5041,5.5467,5.5514,5.5704,5.614,5.6168,5.6168,5.6168,5.6168,5.6168,5.6168,5.6168,5.6282,5.6481,5.5928,5.5882,5.6197,5.6386,5.65,5.651,5.7383,5.7772,5.7829,5.8911,5.9338,5.9375,5.9741,5.9863,5.9863,5.9863,5.9863,5.9863,5.9863,5.9863,5.9863,5.9863,6.0005,6.0176,6.0176,6.0318,6.0432,6.0233,6.0176,5.9487,5.6514,5.5517,5.4698,5.2278,5.1544,5.1226,5.052,5.0141,4.9825,4.9451,4.9189,4.8876,4.8432,4.6583,4.5172,4.5172,4.2511,4.0503,4.0503,3.9653,3.9426,4.0394,4.2628,4.4117,4.4359,4.616,4.7641,4.8497,5.1095,5.3192,5.4606,5.4936,5.5834,5.744,5.7388,5.7612,5.8141,5.7904,5.7897,5.8141,5.8141,5.8078,4.4075,4.4345,4.4715,4.681,4.7038,4.6566,4.601,4.6566,4.7208,4.7208,4.7522,4.8018,4.8782,4.8286,4.8445,5.0443,4.9806,4.964,5.1154,5.0739,5.0898,5.2526,5.2782,5.3152,5.3866,5.4113,5.4407,5.4823,5.4833,5.5126,5.5761,5.5789,5.5922,5.6168,5.6168,5.6168,5.6168,5.5893,5.5893,5.6168,5.5684,5.5551,5.5741,5.5741,5.557,5.5266,5.6275,5.6711,5.6815,5.8167,5.8894,5.9122,5.944,5.9685,5.9863,5.9863,5.9863,5.9863,5.9863,5.9863,5.9863,5.9863,5.9863,5.9863,5.9863,5.9863,5.9831,5.9527,5.9426,5.8838,5.6122,5.5201,5.4311,5.1723,5.0689,5.0126,4.9409,4.9091,4.8813,4.8468,4.8434,4.7924,4.6314,4.4452,4.2744,4.1558,3.873,3.6712,3.6712,3.5682,3.5298,3.6197,3.7012,3.8108,3.9565,4.1596,4.362,4.5541,4.3868,4.5309,5.0889,5.1458,5.3197,5.6474,5.6425,5.6696,5.7348,5.6981,5.7002,5.7348,5.7348,5.7348,4.2155,4.2624,4.3378,4.4529,4.4785,4.4885,4.5511,4.668,4.7607,4.7664,4.7766,4.7778,4.7766,4.7749,4.8103,4.9204,4.9443,4.9545,4.9642,5.0682,5.1467,5.157,5.2658,5.3369,5.3369,5.3837,5.4142,5.418,5.418,5.4454,5.5108,5.5193,5.5467,5.6064,5.614,5.6168,5.6168,5.5456,5.5399,5.5998,5.5941,5.5608,5.5028,5.5028,5.4543,5.3819,5.5286,5.5872,5.5919,5.7341,5.8269,5.8772,5.8886,5.9235,5.9726,5.9843,5.9863,5.9863,5.9863,5.9863,5.9863,5.9863,5.9823,5.9762,5.9754,5.9693,5.954,5.8851,5.8547,5.8175,5.6781,5.5898,5.4701,5.2112,5.0483,4.9369,4.8842,4.826,4.7817,4.7817,4.7637,4.6551,4.365,4.278,4.1485,3.8584,3.5498,3.3503,3.3503,3.0942,2.917,2.917,2.917,3.0628,3.4261,3.8664,4.2962,4.7028,3.7686,3.5061,4.1903,4.3025,4.7037,5.4608,5.4529,5.5328,5.7165,5.6315,5.6335,5.7165,5.7165,5.7165,4.2041,4.2311,4.2695,4.386,4.3477,4.2994,4.3648,4.473,4.571,4.6238,4.7107,4.7664,4.7164,4.7095,4.7164,4.7433,4.8331,4.9299,5.0199,5.0568,5.1126,5.2138,5.2526,5.2714,5.2714,5.2821,5.3106,5.3589,5.3618,5.3884,5.4436,5.4919,5.5297,5.541,5.5922,5.6168,5.6168,5.6007,5.5333,5.423,5.3628,5.3933,5.5028,5.5028,5.4914,5.4723,5.5091,5.4841,5.4283,5.5623,5.5996,5.5756,5.6752,5.758,5.8377,5.9451,5.9863,5.9863,5.9863,5.9863,5.9863,5.9863,5.9467,5.8876,5.838,5.8085,5.7957,5.7958,5.7304,5.6103,5.3771,5.3035,5.2308,5.0008,4.9223,4.8816,4.8182,4.7939,4.7817,4.7817,4.586,4.3994,4.327,3.9187,3.5775,3.5019,3.2244,3.0235,3.0235,2.9602,2.917,2.917,2.917,2.9527,3.0442,3.1562,3.3955,3.7975,3.6267,3.7239,4.1982,4.2568,4.517,5.0182,5.0506,5.2218,5.5389,5.5184,5.5211,5.5389,5.5389,5.5389,4.1628,4.1728,4.1884,4.2538,4.2439,4.2283,4.2624,4.3861,4.5113,4.5739,4.668,4.7351,4.7278,4.7294,4.7294,4.7294,4.7863,4.8677,4.9612,4.9754,5.0193,5.1438,5.1872,5.2156,5.2458,5.2469,5.2658,5.2999,5.3028,5.3266,5.3837,5.3849,5.3994,5.4322,5.453,5.4649,5.4649,5.4649,5.4315,5.3658,5.3227,5.3303,5.3846,5.3846,5.3647,5.3322,0.0,5.3571,5.3204,5.4249,5.4668,5.4714,5.5407,5.612,5.6859,5.7948,5.8351,5.8407,5.8625,5.898,5.9264,5.8831,5.8717,5.8587,5.7782,5.7447,5.7293,5.7014,5.6312,5.5317,5.4055,5.3026,5.1991,5.0467,4.9448,4.8764,4.8657,4.8198,4.7499,4.6354,4.453,4.2254,3.9352,3.605,3.3337,3.1909,3.0235,2.917,2.917,2.917,2.917,2.917,2.917,2.917,2.917,2.917,3.0208,3.2693,3.318,3.5352,3.9684,3.9982,4.1962,4.6026,4.6315,4.8148,5.1702,5.1702,5.2472,5.4015,5.4015,5.4015,4.1202,4.1131,4.1088,4.1202,4.1628,4.2083,4.2169,4.3363,4.4699,4.5426,4.6095,4.6737,4.7408,4.7623,4.7693,4.7778,4.7737,4.7908,4.8551,4.8722,4.9173,5.0273,5.0984,5.1609,5.227,5.2309,5.2366,5.2469,5.2469,5.2725,5.3284,5.2757,5.2721,5.3261,5.3079,5.271,5.2255,5.2336,5.265,5.316,5.316,5.2936,5.2488,5.2488,5.2097,5.1521,0.0,5.2411,5.2373,5.3097,5.3673,5.4109,5.4198,5.4666,5.5338,5.5894,5.6293,5.6611,5.7068,5.7801,5.8351,5.7592,5.7782,5.8128,5.7259,5.7009,5.6798,5.6029,5.548,5.5171,5.5295,5.3939,5.2404,5.1676,5.0141,4.8886,4.9221,4.8145,4.6461,4.439,4.2771,4.0046,3.4742,3.3448,3.2206,2.9581,2.917,2.917,2.917,2.917,2.917,2.917,2.917,2.917,2.917,2.917,2.9417,3.0004,3.0036,3.1836,3.5881,3.6057,3.7942,4.1899,4.2021,4.3782,4.7237,4.7135,4.8878,5.2284,5.2227,5.2504,4.1202,4.0819,4.0521,4.1074,4.1287,4.1486,4.2055,4.2382,4.2908,4.4002,4.4756,4.5397,4.6067,4.6608,4.718,4.7721,4.7351,4.7237,4.7879,4.8437,4.9031,4.9659,5.0284,5.0955,5.1581,5.1655,5.1882,5.2441,5.2469,5.2526,5.2611,5.3034,5.3321,5.3434,5.3298,5.1975,4.9427,4.9843,5.0393,5.1025,5.1025,5.1527,5.2488,5.2488,5.243,5.2315,0.0,0.0,5.1535,5.2101,5.2153,5.1877,5.229,5.3001,5.379,5.3916,5.5052,5.6577,5.6666,5.7081,5.7531,5.7388,5.6927,5.6296,5.5706,5.5386,5.5164,5.5021,5.4927,5.4759,5.4245,5.3152,5.1952,5.094,4.9707,4.866,4.8172,4.5858,4.3746,4.3364,3.894,3.4945,3.3985,3.163,2.9695,2.9245,2.917,2.917,2.917,2.917,2.917,2.917,2.917,2.917,2.917,2.917,2.9288,2.9622,2.9654,3.0112,3.1156,3.1192,3.3191,3.7444,3.7844,3.9901,4.3726,4.3169,4.4937,4.8762,4.8446,5.002,4.0346,4.0039,4.0051,4.0977,4.1202,4.1287,4.1572,4.1927,4.2453,4.3321,4.3974,4.4699,4.5682,4.6408,4.7066,4.7709,4.7863,4.7863,4.7806,4.8079,4.8461,4.9071,4.9676,5.0267,5.0927,5.1296,5.1452,5.1332,5.1652,5.1672,5.1235,5.1112,5.1062,5.1062,5.0912,5.038,4.9447,4.9226,4.9439,5.0011,5.036,5.0855,5.142,5.1716,5.1874,5.1874,5.1874,5.1636,5.1336,5.1576,5.1525,5.1336,5.1576,5.1932,5.2333,5.2628,5.3534,5.4692,5.4692,5.5237,5.5982,5.5982,5.5961,5.5873,5.5201,5.4919,5.4795,5.4795,5.4567,5.4214,5.3914,5.2771,5.155,5.1069,4.866,4.65,4.6524,4.3607,4.054,3.9105,3.6123,3.3281,3.1593,3.0105,2.917,2.917,2.917,2.917,2.917,2.917,2.917,2.917,2.917,2.917,2.917,2.917,2.9215,2.9316,2.9484,2.9619,2.9812,3.002,3.1169,3.3334,3.3709,3.5651,3.9285,3.8971,4.0731,4.4383,4.6034,4.7724,3.9159,0.0,3.9527,4.0684,4.1091,4.1202,0.0,4.16,4.2126,4.2766,4.3378,4.4087,4.5227,4.6051,4.6823,4.7493,4.8136,4.8364,4.7908,4.7661,4.7654,4.8004,4.8787,4.9436,4.978,5.0413,5.0716,5.0423,5.0675,5.0742,5.0453,4.9696,4.925,4.925,4.8793,4.8855,4.9454,4.8873,4.8842,4.9376,4.9892,5.0197,5.0334,5.0906,5.1147,5.1147,5.1258,5.131,5.131,5.131,5.131,5.131,5.131,5.131,5.1362,5.1765,5.2401,5.3064,5.3064,5.3859,5.4795,5.4795,5.5231,5.5599,5.5006,5.4795,5.4795,5.4795,5.4463,5.4084,5.4084,5.2915,5.148,5.0558,4.7458,4.4613,4.409,4.0862,3.7437,3.5288,3.377,3.2031,2.9581,2.917,2.917,2.917,2.917,2.917,2.917,2.917,2.917,2.917,2.917,2.917,2.917,2.917,2.917,2.917,2.9348,2.9452,2.9452,2.9739,3.0074,3.0445,3.0631,3.2054,3.4731,3.4642,3.6388,3.9846,4.2365,4.4036,0.0,3.8191,3.8834,4.0018,4.0756,4.1202,4.1202,4.1259,0.0,4.214,4.2766,4.3392,4.3974,4.5098,4.6152,4.6794,4.7465,4.7879,4.7806,4.721,4.6547,4.5986,4.7429,4.8276,4.7697,4.8342,4.9293,5.0437,4.9902,5.0019,5.1172,5.0489,5.0079,5.0079,4.865,4.7905,4.7959,4.7905,4.8216,4.886,4.8886,4.9154,4.9681,5.0308,5.0587,0.0,5.1121,5.131,5.131,5.131,5.131,5.131,5.131,5.131,5.131,5.1362,5.2083,5.3064,5.3064,5.3859,5.4795,5.4795,5.4836,5.4903,5.4842,5.4795,5.4795,5.4795,5.4769,5.4743,5.4743,5.3838,5.2013,4.8241,4.6375,4.4352,4.037,3.7182,3.4887,3.4076,3.1731,2.9701,2.9236,2.917,2.917,2.917,2.917,2.917,2.917,2.917,2.917,2.917,2.917,2.917,2.917,2.917,2.917,2.917,2.9167,2.9183,2.9183,2.9215,2.9351,2.9638,2.9651,2.9958,3.0562,3.0191,3.1935,3.5623,3.5496,3.7512,3.7308,3.7511,3.7851,3.9763,4.0433,4.07,4.1105,4.1202,4.1401,4.2041,4.2724,4.3307,4.3832,4.5012,4.6095,4.6737,4.698,4.7225,4.7634,4.6752,4.5952,4.5709,4.6281,4.6757,4.6908,4.7507,4.7901,4.799,4.841,4.8659,4.8653,4.8662,4.8687,4.8687,4.814,4.7817,4.7817,4.7817,4.7939,4.819,4.8608,4.8894,4.9102,4.9655,4.9933,4.9959,5.0568,5.0828,0.0,5.1199,5.131,5.131,5.131,5.0034,4.818,4.818,4.8663,4.9289,4.8947,5.0987,5.3734,5.3734,5.3948,5.4286,5.4691,5.4301,5.3344,5.146,5.1167,5.0895,4.8638,4.7305,4.6116,4.4401,4.1795,3.9179,3.7406,3.4496,3.2117,3.1634,3.046,2.9468,2.9196,2.917,2.917,2.917,2.917,2.917,2.917,2.917,2.917,2.917,2.917,2.917,2.917,2.917,2.917,2.917,2.917,2.917,2.917,2.917,2.9272,2.954,2.954,2.9748,3.0114,2.9969,3.0627,3.2106,3.4295,3.6042,3.6821,3.6999,3.7164,3.9007,3.9849,4.0351,4.0798,4.1049,4.1344,4.1771,4.2539,4.3265,4.3619,4.4699,4.5705,4.617,4.6507,4.6719,4.6747,4.6166,4.5596,4.5385,4.5157,4.5351,4.6207,4.6623,4.6701,4.6468,4.6949,4.7323,4.7411,4.7528,4.7575,4.7575,4.7757,4.7817,4.7817,4.7817,4.7817,4.7817,4.826,4.8486,4.8512,4.9057,4.9299,0.0,4.8922,4.8755,4.8705,4.8069,4.7875,4.7983,4.7964,4.6595,4.4676,4.4676,4.4609,4.4701,4.6052,4.9487,5.3229,5.3104,5.3304,5.3694,5.4145,5.3708,5.2619,5.0589,4.949,4.836,4.5869,4.3974,4.2284,4.0763,3.8393,3.599,3.4195,3.2164,3.054,2.9932,2.9654,2.9468,2.9196,2.917,2.917,2.917,2.917,2.917,2.917,2.917,2.917,2.917,2.917,2.917,2.917,2.917,2.917,2.917,2.917,2.917,2.917,2.917,2.9243,2.9405,2.944,2.955,2.9822,2.9692,2.9645,2.9702,3.2159,3.3207,3.6258,3.6721,3.6889,3.7566,3.8996,4.0243,4.0226,4.0728,4.1202,4.1202,4.2254,4.3165,4.3151,4.4089,4.49,4.4901,4.5985,4.6377,4.5076,4.5312,4.5417,4.4767,4.4018,4.4058,4.5336,4.5482,4.5738,4.6373,4.5725,0.0,4.8086,4.7446,4.7014,4.7032,4.7541,4.7817,4.7817,4.7817,4.7817,4.7817,4.7817,4.7817,4.7843,4.8486,4.8782,4.8589,4.6003,4.4873,0.0,4.152,4.0467,4.081,4.0654,4.0832,4.1153,4.1153,4.0251,3.9821,4.5107,4.9862,5.3573,5.3144,5.3019,5.3064,5.2959,5.2959,5.2979,5.2959,5.0565,4.798,4.79,4.5383,4.1777,3.7502,3.6778,3.5695,3.0645,3.0185,3.0397,2.9373,2.9377,2.9484,2.9215,2.9151,2.917,2.917,2.917,2.917,2.917,2.917,2.917,2.917,2.917,2.917,2.917,2.9154,2.9154,2.917,2.9154,2.9154,2.917,2.917,2.917,2.917,2.9154,2.9154,2.9154,2.8748,2.8572,2.8556,2.8157,2.8207,3.5914,3.6205,3.6656,3.8504,3.9327,3.9893,4.0742,4.1077,4.1202,4.1202,4.187,4.2596,4.3065,4.3747,4.4486,4.5325,4.507,4.4783,4.4748,4.4104,4.3444,4.2848,4.3239,4.3549,4.3574,4.4313,4.4879,4.5096,4.5228,4.5525,4.612,4.5923,4.6028,4.6469,4.7006,4.7274,4.7274,4.7627,4.7817,4.7817,4.7817,4.7817,4.7817,4.8016,4.6913,4.4809,4.4488,4.305,0.0,4.0425,4.0315,4.0423,4.0385,3.8978,3.7002,3.729,3.7522,3.7873,3.8991,4.4929,5.1652,4.9512,5.0429,5.1421,4.628,4.6364,4.7894,4.5954,4.6264,4.6196,4.176,3.7828,3.4622,3.3097,3.2784,3.2409,3.0719,3.0686,3.0844,3.035,3.009,2.9827,2.9484,2.9272,2.917,2.917,2.917,2.917,2.917,2.917,2.917,2.917,2.917,2.917,2.917,2.8911,2.8861,2.9136,2.8911,2.8861,2.9136,2.917,2.917,2.917,2.8896,2.8751,2.8751,2.8367,2.8175,2.8175,2.8047,2.8207,3.5728,3.5954,3.6349,3.7959,3.8914,3.9658,4.0352,4.0868,4.1202,4.1202,4.1728,4.2382,4.3037,4.3356,4.3785,4.4491,4.4212,4.3773,4.3308,4.3001,4.2523,4.1708,4.2555,4.3048,4.2509,4.3695,4.4407,4.4156,4.4642,4.498,4.498,4.518,4.5465,4.5863,4.6426,4.6824,4.7058,4.736,4.7601,4.7817,4.7817,4.7817,4.7817,4.7817,4.6785,4.4965,4.4092,0.0,0.0,3.8027,3.7007,3.5989,3.5989,3.4827,3.3204,3.3447,3.3793,3.4355,3.5585,4.0241,4.5576,4.4912,4.6686,4.8108,4.2804,4.2623,4.3901,4.2259,4.3155,4.3413,3.8186,3.5056,3.2844,3.093,3.0595,3.0603,3.0176,3.0422,3.0615,3.0292,3.0036,2.9827,2.9588,2.9332,2.917,2.917,2.917,2.917,2.917,2.917,2.917,2.917,2.917,2.917,2.917,2.8943,2.8911,2.9136,2.8943,2.8893,2.9136,2.9006,2.8927,2.8927,2.854,2.8288,2.818,2.7941,2.7767,2.7608,2.7608,2.7736,3.5662,3.5979,3.6126,3.6812,3.8187,3.9437,3.9585,4.0394,4.1119,4.112,4.1643,4.2297,4.2921,4.2962,4.2928,4.3122,4.3491,4.3147,4.144,4.209,4.232,4.1146,4.2009,4.2509,4.202,4.3425,4.413,4.3571,4.4088,4.4407,4.4407,4.4911,4.5215,4.5215,4.5854,4.6417,4.6858,4.6988,4.7282,4.7739,4.7809,4.7817,4.7799,4.753,4.7242,4.6785,4.365,0.0,0.0,3.4557,3.1855,2.9512,2.9512,2.9717,3.0039,3.0086,2.9922,3.023,3.3948,3.6189,3.7775,3.9985,4.1837,4.2824,4.0831,4.0423,4.0598,4.0368,4.07,4.0283,3.6315,3.5539,3.4717,3.0586,2.989,3.0008,2.9436,2.9774,3.0095,2.9745,2.9666,2.9654,2.9603,2.938,2.9183,2.9151,2.917,2.917,2.917,2.917,2.917,2.917,2.917,2.917,2.917,2.912,2.912,2.917,2.912,2.9104,2.9104,2.8767,2.8556,2.8525,2.8159,2.7846,2.7599,2.7568,2.7378,2.7027,2.7027,2.7027,3.5661,3.5962,3.6425,3.8373,3.8765,3.908,4.0512,4.063,4.0463,4.0441,4.0967,4.1615,4.2286,4.2361,4.2812,4.4255,4.3299,4.243,4.2538,4.1903,4.1317,4.1059,4.1703,4.2098,4.201,4.2681,4.3256,4.3519,4.3665,4.3743,4.3743,4.4338,4.4693,4.4693,4.5214,4.5543,4.5656,4.6573,4.7092,4.7222,4.7627,4.7817,4.7745,4.5265,4.2816,4.0301,3.7172,0.0,3.1093,3.044,2.9799,2.9243,2.9243,2.9291,2.9386,2.9594,2.9505,2.9482,3.0875,3.4962,3.9293,3.7524,3.5236,3.318,3.2997,3.4593,3.6017,3.3866,3.6949,3.9485,3.3369,3.3763,3.4789,3.093,3.0311,3.0555,3.0397,3.0639,3.0863,3.0784,3.0587,3.0378,3.0051,2.9705,2.9392,2.9183,2.917,2.917,2.917,2.917,2.917,2.917,2.917,2.917,2.917,2.888,2.883,2.9136,2.8861,2.8701,2.8701,2.8603,2.8446,2.8144,2.7832,2.7663,2.7599,2.7297,2.709,2.7027,2.7027,2.7027,3.4963,3.5488,3.5934,3.7717,3.8301,3.881,4.008,4.0294,4.0226,4.0235,4.0519,4.0925,4.1607,4.1466,4.174,4.3252,4.2187,4.1339,4.1932,4.1431,4.1017,4.1017,4.1599,4.1864,4.1547,4.2285,4.2763,4.2805,4.325,4.3545,4.3545,4.3863,4.4182,4.4501,4.478,4.5041,4.5293,4.5907,4.6477,4.704,4.7308,4.6782,4.5518,4.3886,4.1431,3.8382,3.6749,3.4299,3.1389,3.1389,3.0514,2.917,2.917,2.917,2.9186,2.9319,2.927,2.9241,2.9755,3.2213,3.4864,3.3361,3.164,3.0172,3.035,3.1541,3.2463,3.1046,3.3093,3.4824,3.1114,3.1467,3.2253,3.0165,2.9812,2.9974,2.9974,3.0165,3.0359,3.0359,3.0402,3.0311,2.9925,2.9685,2.9449,2.9199,2.917,2.917,2.917,2.917,2.917,2.917,2.917,2.917,2.917,2.8975,2.8943,2.9136,2.8959,2.8782,2.8588,2.8414,2.8146,2.7817,2.7487,2.7347,2.7347,2.7106,2.7027,2.7027,2.7027,2.7027,3.3778,3.4692,3.5306,3.6584,3.7558,3.8406,3.9262,3.9722,3.9961,4.0072,4.01,4.0295,4.0975,4.0534,4.0516,4.1819,4.1028,4.0461,4.1082,4.1094,4.1017,4.1017,4.1479,4.1599,4.1085,4.189,4.2353,4.1994,4.2779,4.3276,4.3276,4.3441,4.3785,4.4329,4.4449,4.4745,4.5154,4.5258,4.5777,4.6729,4.6341,4.5053,4.2966,4.1917,4.005,3.7649,3.7098,0.0,3.3004,3.3004,3.15,2.917,2.917,2.917,2.917,2.917,2.917,2.9183,2.9521,2.9575,2.9484,2.9613,2.9784,2.9977,3.0041,2.996,2.9878,2.9988,2.996,2.9783,2.9465,2.9433,2.9405,2.9133,2.9104,2.9186,2.9231,2.9392,2.9588,2.9717,3.0051,3.0162,2.9733,2.9635,2.9531,2.9215,2.917,2.917,2.917,2.917,2.917,2.917,2.917,2.917,2.917,2.917,2.917,2.917,2.9088,2.8896,2.8493,2.8128,2.7799,2.7505,2.7169,2.7027,2.7027,2.7027,2.7027,2.7027,2.7027,2.7027,3.1901,3.3522,3.5398,3.7143,3.7283,3.7406,3.9079,3.9061,3.889,3.9441,3.9571,3.9775,4.0405,4.0019,4.0139,4.1883,4.1083,4.0631,4.1718,4.1371,4.1017,4.1017,4.1111,4.1111,4.1002,4.1147,4.1453,4.1942,4.2124,4.2202,4.2202,4.3074,4.3571,4.3649,4.4208,4.4553,4.4615,4.5067,4.5371,4.5509,4.3451,4.25,4.2308,3.6965,3.4511,3.428,3.1574,3.0161,2.9769,2.9769,2.9527,2.917,2.917,2.917,2.917,2.917,2.917,2.9151,2.9218,2.9215,2.9215,2.9233,2.9252,2.935,2.968,2.9322,2.8903,2.9465,2.9213,2.8777,2.8695,2.8956,2.9117,2.8751,2.8893,2.9212,2.9452,2.9528,2.9748,3.0425,3.0796,3.0769,3.0142,3.0051,2.9869,2.9246,2.917,2.917,2.917,2.917,2.917,2.917,2.917,2.917,2.917,2.917,2.917,2.917,2.8846,2.8477,2.8078,2.7801,2.7489,2.7106,2.7043,2.7027,2.7027,2.7027,2.7027,2.7027,2.7027,2.7027,3.0489,3.1955,3.3361,3.6074,3.6741,3.7126,3.8581,3.8691,3.8556,3.8865,3.8917,3.9105,3.977,3.9663,3.9948,4.1405,4.0832,4.0537,4.1336,4.1202,4.1017,4.1017,4.1017,4.1017,4.1017,4.1017,4.1121,4.1427,4.1453,4.1599,4.1968,4.2405,4.2945,4.3519,4.3811,4.4156,4.4501,4.4728,4.4989,4.5276,4.4235,4.2256,3.9344,3.6889,3.3959,3.0804,0.0,2.917,2.917,2.917,2.917,2.917,2.917,2.917,2.917,2.917,2.917,2.917,2.917,2.917,2.917,2.917,2.9155,2.9136,2.9019,2.8722,2.8499,2.8635,2.8472,2.8254,2.8254,2.8383,2.8446,2.8286,2.8559,2.8877,2.8982,2.9171,2.943,2.9768,3.0039,3.0139,2.9859,2.9796,2.9661,2.9231,2.917,2.917,2.917,2.917,2.917,2.917,2.917,2.917,2.917,2.917,2.9072,2.8846,2.8669,2.8353,2.7801,2.7661,2.7426,2.701,2.7027,2.7027,2.7027,2.7027,2.7027,2.7027,2.7027,2.7027,2.8237,3.0006,3.1585,3.4413,3.5836,3.6865,3.8028,3.8306,3.8349,3.8475,3.8405,3.8503,3.908,3.9094,3.9386,4.0541,4.0319,4.0255,4.0923,4.1017,4.1017,4.1017,4.1017,4.1017,4.1017,4.1017,4.1017,4.1017,4.1017,4.123,4.1718,4.189,4.2343,4.311,4.3406,4.3769,4.4277,4.4423,4.4702,4.5076,4.3594,4.0773,3.6891,3.5682,3.2685,2.8427,2.8735,2.8911,2.9006,2.9006,2.9072,2.917,2.917,2.917,2.917,2.917,2.917,2.917,2.917,2.917,2.9154,2.9168,2.9155,2.9032,2.8456,2.8275,2.8182,2.7959,2.7828,2.7732,2.7732,2.7828,2.7891,2.7891,2.8159,2.8412,2.8412,2.8735,2.9041,2.9136,2.938,2.9603,2.9815,2.9764,2.9563,2.9215,2.917,2.917,2.917,2.917,2.917,2.917,2.917,2.917,2.917,2.9072,2.8896,2.8588,2.8432,2.8119,2.7615,2.7505,2.7313,2.7027,2.7027,2.7027,2.7027,2.7027,2.7027,2.7027,2.7027,2.7027,2.4401,2.7611,3.122,3.2507,3.4432,3.6296,3.7469,3.7755,3.7884,3.8405,3.8095,3.7898,3.8435,3.8138,3.8148,3.9181,3.9333,3.9719,4.0861,4.1017,4.1017,4.1017,4.1017,4.1017,4.1017,4.1017,4.1017,4.1017,0.0,4.1043,4.1069,4.1666,4.1994,4.2046,4.3006,4.3571,4.3613,4.4208,4.4544,4.4487,3.8903,3.6311,3.6202,3.065,2.8088,2.8031,2.8047,2.827,2.8622,2.8622,2.883,2.917,2.917,2.917,2.917,2.917,2.917,2.917,2.917,2.917,2.9144,2.9156,2.916,2.9012,2.8238,2.7943,2.7795,2.7657,2.7361,2.7075,2.7075,2.7345,2.7615,2.7615,2.7832,2.8031,2.8031,2.8333,2.8717,2.9088,2.938,2.978,3.052,3.0343,2.9881,2.9246,2.917,2.917,2.917,2.917,2.917,2.917,2.917,2.917,2.917,2.8814,2.8588,2.8572,2.7992,2.7631,2.7599,2.725,2.7043,2.7027,2.7027,2.7027,2.7027,2.7027,2.7027,2.7027,2.7027,2.7027,2.3715,2.5278,2.7417,3.1114,3.2609,3.3917,3.6494,3.7085,3.7259,3.7862,3.7854,3.7856,3.8378,3.8349,3.8472,3.9251,3.967,4.0049,4.0459,4.0799,4.1017,4.1017,4.1017,4.1017,4.1017,4.1017,4.1017,4.1017,4.1017,4.1017,4.1017,4.1214,4.1573,4.1968,4.2343,4.2867,4.3545,4.3769,4.312,4.1602,3.7664,3.4842,3.3047,3.1209,2.9399,2.7754,2.7905,2.8078,2.8207,2.8207,2.827,2.8398,2.8398,2.8398,2.843,2.8685,2.8782,2.8769,2.8694,2.856,2.8508,2.9012,2.8539,2.7819,2.7959,2.7668,2.7289,2.7231,2.7139,2.7027,2.7027,2.7122,2.7234,2.7234,2.7485,2.7738,2.7738,2.7988,2.8238,2.8383,2.889,2.9304,2.9316,2.9563,2.9629,2.9215,2.8943,2.8861,2.912,2.917,2.917,2.917,2.8925,2.8782,2.8782,2.843,2.813,2.7943,2.7726,2.7489,2.7217,2.709,2.7027,2.7027,2.7027,2.7027,2.7027,2.6772,2.6644,2.6644,2.6476,2.6398,2.277,2.3745,2.5152,2.8706,3.0647,3.2311,3.4811,3.608,3.6862,3.7321,3.7543,3.78,3.8166,3.8236,3.8435,3.903,3.9424,3.9804,4.0188,4.0528,4.0825,4.0991,4.1017,4.1017,4.1017,4.1017,4.0633,3.9714,4.0494,4.0617,3.9698,4.0499,4.1214,4.1651,4.1864,4.1873,4.1657,4.1953,4.0854,3.8401,3.6629,3.4198,3.1274,3.0559,2.9199,2.7408,2.7576,2.7734,2.786,2.786,2.7923,2.7999,2.7999,2.7999,2.8031,2.8286,2.8374,2.8354,2.8281,2.7992,2.7755,2.8269,2.7791,2.7093,2.7528,2.7366,2.7013,2.7024,2.7027,2.7027,2.7027,2.7027,2.7027,2.7027,2.7218,2.741,2.741,2.7643,2.786,2.786,2.8353,2.8719,2.8588,2.8837,2.8992,2.8956,2.8751,2.8603,2.8751,2.8767,2.8767,2.8767,2.8543,2.8364,2.8364,2.8067,2.7783,2.7633,2.7473,2.7282,2.7027,2.7027,2.7027,2.7027,2.69,2.6819,2.6819,2.6472,2.6315,2.6299,2.6113,2.6035,2.1367,2.293,2.47,2.529,2.8471,3.167,3.2439,3.4694,3.6636,3.6705,3.7255,3.7713,3.7713,3.7713,3.7895,3.8398,3.8462,3.8877,4.0039,4.0221,4.0414,4.0955,4.1017,4.0987,4.0894,4.0894,3.9837,3.7236,3.9451,3.9729,3.7065,3.9389,4.0802,4.0879,4.1516,4.0597,3.8047,3.8819,3.7859,3.5174,3.548,3.4059,3.1067,2.8276,2.7027,2.7027,2.7027,2.7234,2.7584,2.7584,2.7738,2.795,2.795,2.795,2.795,2.795,2.7957,2.7966,2.7965,2.7536,2.7024,2.6954,2.6989,2.7033,2.7018,2.7004,2.6998,2.7019,2.7027,2.7027,2.7027,2.7027,2.7027,2.7027,2.7027,2.7027,2.7027,2.7313,2.7584,2.7584,2.7799,2.8112,2.8477,2.8238,2.8144,2.8509,2.854,2.8396,2.8031,2.7984,2.7999,2.7999,2.7984,2.7966,2.7966,2.7738,2.7584,2.7584,2.7234,2.7027,2.7027,2.7027,2.7012,2.7012,2.6644,2.6437,2.6421,2.616,2.602,2.602,2.602,2.6004,2.096,2.1401,2.2288,2.4048,2.5551,2.7542,3.1153,3.3053,3.4581,3.6374,3.7255,3.7713,3.7713,3.7713,3.7765,3.7895,3.8242,3.8606,3.8903,3.9697,4.0299,4.044,4.0799,4.0238,3.8252,3.8066,3.8561,3.9791,3.8762,3.7716,3.6972,3.5867,3.6117,3.8019,3.8242,3.9148,4.0843,3.9151,3.7048,3.4592,3.3015,3.0665,2.7759,2.7246,2.7027,2.7027,2.7027,2.7075,2.7169,2.7169,2.7199,2.7294,2.7294,2.7294,2.7294,2.7294,2.7283,2.7293,2.7289,2.7177,2.6841,2.5812,2.6173,2.7015,2.7022,2.6744,2.653,2.6928,2.7027,2.7027,2.7027,2.7027,2.7027,2.7027,2.7027,2.7027,2.7027,2.7106,2.7169,2.7169,2.7471,2.774,2.785,2.7941,2.8031,2.8126,2.799,2.7837,2.7724,2.7876,2.7999,2.7999,2.7815,2.7708,2.7708,2.7392,2.7169,2.7169,2.7075,2.7027,2.7027,2.7027,2.69,2.6613,2.6501,2.6345,2.6143,2.5797,2.5623,2.5624,2.5338,2.5211,2.0757,2.0929,2.1395,2.278,2.3798,2.5155,2.7891,3.074,3.3222,3.4702,3.6462,3.7391,3.6348,3.7024,3.7377,3.6334,3.7279,3.8242,3.8462,3.9074,3.927,3.8607,3.8795,3.8342,3.6759,3.5809,3.5961,3.757,3.722,3.6474,3.5369,3.4916,3.4885,3.5306,3.6366,3.7346,3.8242,3.7905,3.5939,3.2356,3.109,2.9026,2.6283,2.663,2.6755,2.6788,2.6947,2.7027,2.7027,2.7027,2.7027,2.7027,2.7027,2.7027,2.7027,2.7027,2.7027,2.7032,2.7023,2.664,2.5982,2.5153,2.5858,2.6899,2.6306,2.6324,2.6634,2.695,2.6908,2.6819,2.698,2.7027,2.7027,2.7027,2.7027,2.7027,2.7027,2.7027,2.7027,2.7027,2.7185,2.7361,2.7361,2.7485,2.7576,2.7576,2.7436,2.7361,2.7361,2.7483,2.7576,2.7576,2.7598,2.7599,2.7599,2.725,2.7027,2.7027,2.7027,2.6947,2.6788,2.6755,2.6614,2.6284,2.6109,2.5953,2.5797,2.5417,2.5211,2.5211,2.4974,2.4817,2.0599,2.0929,2.1288,2.1569,2.2712,2.3825,0.0,2.808,3.1782,3.2103,3.4664,3.6244,3.4313,3.5562,3.6249,3.4327,3.5881,3.7458,3.7918,3.8263,3.7645,3.5411,3.5383,3.5474,3.5315,3.3872,3.2974,3.3053,3.4916,3.5041,3.2723,3.4472,3.4644,3.266,3.4838,3.5103,3.3069,3.539,3.4331,2.9937,2.9613,2.8376,2.6437,2.6402,2.6391,2.6407,2.6758,2.6933,2.6964,2.7012,2.7027,2.7027,2.7027,2.7013,2.7016,2.7016,2.703,2.7032,2.7023,2.61,2.4893,2.5079,2.5871,2.6554,2.5322,2.5854,2.6867,2.6904,2.6679,2.6487,2.6822,2.6933,2.6964,2.6964,2.6978,2.7027,2.7027,2.7027,2.7027,2.7027,2.7027,2.7027,2.7027,2.7027,2.7027,2.7027,2.7027,2.7027,2.7027,2.7027,2.7043,2.7075,2.7392,2.7599,2.7599,2.725,2.6961,2.6843,2.6912,2.6772,2.6407,2.6391,2.6252,2.5988,2.5639,2.5449,2.5418,2.5053,2.4864,2.4848,2.4848,2.4691,0.0,0.0,0.0,0.0,0.0,0.0,0.0,2.5725,2.7283,2.8879,3.0319,3.1741,3.3249,3.2544,3.2245,3.3772,3.4413,3.4773,3.4869,3.6986,3.6065,2.955,3.0567,3.1268,3.0018,3.133,3.2479,3.2995,3.1481,3.0282,2.9776,2.8146,2.8003,2.9697,3.025,3.1339,3.3037,3.1434,3.1205,3.2327,2.8257,2.7212,2.8809,2.6969,2.6129,2.6129,2.6193,2.6348,2.6564,2.69,2.7027,2.7027,2.7027,2.7025,2.7008,2.7008,2.703,2.7032,2.7023,2.6096,2.5063,2.6217,2.6,2.5324,2.5464,2.5615,2.5835,2.6151,2.618,2.6145,2.6225,2.6412,2.6549,2.6549,2.6788,2.7027,2.7027,2.7027,2.7027,2.7027,2.7027,2.7027,2.7027,2.7027,2.7027,2.7027,2.7027,2.7027,2.7027,2.7027,2.7138,2.744,2.757,2.7599,2.7599,2.725,2.6659,2.5812,2.6258,2.6408,2.6128,2.6129,2.5956,2.5576,2.5512,2.5306,2.5006,2.4927,2.4754,2.4564,2.4564,2.4375,0.0,0.0,0.0,0.0,0.0,0.0,0.0,0.0,0.0,0.0,0.0,2.9446,2.944,0.0,3.1888,3.188,3.3075,3.4014,3.4014,3.425,3.3,2.9132,2.8781,2.8553,2.7765,2.8065,2.8967,3.0591,2.9631,2.8971,2.8971,2.7653,2.6923,2.6923,2.8241,2.9618,3.0992,3.1008,3.1008,3.0976,2.8422,2.7212,2.718,2.6215,2.575,2.5782,2.5956,2.6129,2.627,2.646,2.654,2.6489,2.6117,2.594,2.6052,2.6757,2.7022,2.7019,2.7018,2.6541,2.595,2.5939,2.5472,2.4929,2.5193,2.5099,2.5006,2.5673,2.5799,2.5797,2.5988,2.6144,2.6237,2.6237,2.6397,2.654,2.654,2.6631,2.6723,2.6723,2.69,2.7027,2.7027,2.676,2.665,2.6964,2.6851,2.6867,2.7248,2.7138,2.7014,2.7022,2.7135,2.7005,2.6467,2.6381,2.5918,2.4933,2.5367,2.5711,2.5749,2.575,2.5576,2.5179,2.5038,2.4881,2.4691,2.4486,2.4328,2.4201,2.3996,2.3823,0.0,0.0,0.0,0.0,0.0,0.0,0.0,0.0,0.0,0.0,0.0,0.0,0.0,0.0,0.0,2.9251,3.0972,3.2495,3.258,3.0465,2.8894,2.8894,2.7736,2.6769,2.6336,2.5507,2.5726,2.7475,2.7906,2.8138,2.8162,2.8162,2.7162,2.4959,2.7018,2.8162,2.8162,3.0361,3.0613,2.8971,0.0,0.0,2.5647,2.5438,2.5338,2.537,2.5686,2.5877,2.5974,2.5974,2.6021,2.597,2.5199,2.4872,2.502,2.619,2.6603,2.6604,2.6604,2.644,2.6069,2.5039,2.4782,2.486,2.4738,2.447,0.0,2.5119,2.5261,2.526,2.564,2.5766,2.5845,2.5908,2.5988,2.6035,2.6035,2.6205,2.636,2.636,2.6616,2.6822,2.6822,2.6398,2.624,2.6838,2.6627,2.6676,2.728,2.7106,2.6746,2.635,2.6514,2.6238,2.528,2.5364,2.5123,2.4364,2.4451,2.4724,2.5115,2.5087,2.4964,2.4765,2.4516,2.4376,2.4375,2.4075,2.387,2.3792,2.3419,2.3278,0.0,0.0,0.0,0.0,0.0,0.0,0.0,0.0,0.0,0.0,0.0,0.0,0.0,0.0,0.0,0.0,2.6727,2.7049,2.7405,2.5314,2.377,2.377,2.548,2.5918,2.3933,2.5575,2.6251,2.5015,2.4987,2.5085,2.5327,0.0,0.0,0.0,0.0,2.5343,2.5343,2.5647,2.6859,2.8939,2.6493,2.6445,2.8416,2.6031,2.4942,2.4958,2.5006,2.5276,2.5708,2.5708,2.5833,2.5956,2.5193,2.4893,2.4908,2.506,2.5108,2.511,2.5102,0.0,0.0,2.3888,2.442,2.4751,2.4197,2.3997,2.3965,2.4091,2.4091,2.4185,2.458,2.4849,2.51,2.5449,2.5797,2.6035,2.6035,2.6067,2.6082,2.6082,2.613,2.6162,2.6162,2.6115,2.6144,2.6454,2.6469,2.6486,2.6547,2.6533,2.6369,2.5984,0.0,0.0,2.497,2.4842,2.4643,2.4315,2.37,2.3497,2.389,2.3694,2.3812,2.4371,2.4104,2.398,2.3965,2.3918,2.3744,2.3384,2.3103,2.3118,0.0,0.0,0.0,0.0,0.0,0.0,0.0,0.0,0.0,0.0,0.0,0.0,0.0,0.0,0.0,0.0,2.5798,2.5602,2.4317,2.3239,2.2683,2.2904,2.3858,2.4127,2.3184,2.4195,2.4575,2.3867,2.4027,2.4296,2.4628,2.4643,2.4722,2.4879,2.4895,2.4895,2.4895,2.4895,2.5455,2.6572,2.5423,2.5487,2.6556,2.5407,2.4895,2.4895,2.4895,2.5006,2.5213,2.5213,2.5275,0.0,0.0,0.0,0.0,0.0,2.4887,2.4884,2.4879,2.4027,2.2986,2.3239,2.3531,2.3772,2.3868,2.3806,2.3725,2.387,2.3902,2.3949,2.4091,2.4407,2.4707,2.4865,2.5149,2.5369,2.5369,2.5543,2.5703,2.5703,2.5893,0.0,2.5448,2.5369,2.5559,2.6127,2.619,2.6347,2.6725,2.6376,2.612,2.6176,2.5396,2.4659,2.4244,2.3745,0.0,0.0,0.0,2.2652,2.2578,2.2767,0.0,0.0,0.0,0.0,0.0,0.0,0.0,0.0,2.2465,2.2662,0.0,0.0,0.0,0.0,0.0,0.0,0.0,0.0,0.0,0.0,0.0,0.0,0.0,0.0,0.0,0.0,2.4442,2.4144,2.2339,2.2149,2.2339,2.2731,2.2793,2.281,2.2921,2.3112,2.3256,2.3336,2.3603,2.3917,2.4311,2.4327,2.447,2.477,2.4785,2.4801,2.4895,2.4895,2.4895,2.4895,2.4895,2.4895,2.4895,2.4895,2.4895,2.4895,2.4895,2.4895,2.4895,2.4895,2.4895,2.4895,2.4895,2.4895,2.4895,2.4895,2.4895,2.488,2.4895,2.4265,2.3396,2.3058,2.2931,2.3022,2.3492,2.3505,2.3391,2.36,2.3633,2.3665,2.3744,2.3964,2.4201,2.4296,2.4486,2.4643,2.4754,2.4991,2.5212,2.5291,2.5386,2.5307,2.4864,2.4785,2.5054,2.5908,2.6035,0.0,2.6789,2.6368,2.5975,2.5851,2.4846,2.3923,2.335,2.283,2.2192,2.1403,2.1896,2.1983,2.1507,2.1916,2.2202,2.2235,2.1885,2.1968,0.0,0.0,0.0,0.0,0.0,0.0,0.0,0.0,0.0,0.0,0.0,0.0,0.0,0.0,0.0,0.0,0.0,0.0,0.0,0.0,0.0,0.0,0.0,0.0,2.1428,2.1628,2.1917,2.2323,2.237,2.2541,2.2904,2.2951,2.3048,2.332,2.3351,2.3524,2.3902,2.3918,2.4106,2.4485,2.4517,2.4628,2.4879,2.4895,2.4895,2.4895,2.4895,2.4895,2.4895,2.4895,2.4895,2.4895,2.4895,2.4895,2.4895,2.4895,2.4895,2.4895,2.4895,2.4895,2.4895,2.4895,2.4895,2.488,2.4895,2.4861,2.4624,2.3344,2.293,2.2943,2.2958,2.2967,2.2951,2.2952,2.2967,2.3031,2.3287,2.3352,2.3462,2.3824,2.3934,2.4044,2.4406,2.4517,2.458,2.4832,2.4391,2.4091,2.4438,2.4517,2.4865,2.5877,2.6035,0.0,2.6423,2.6436,2.5891,2.4509,2.4304,2.374,2.2323,2.2415,2.2319,2.1783,2.1774,2.1492,2.0859,2.1093,2.0994,2.0508,2.0836,2.1148,2.1412,0.0,0.0,0.0,0.0,0.0,0.0,0.0,0.0,0.0,0.0,0.0,0.0,0.0,0.0,0.0,0.0,0.0,0.0,0.0,0.0,0.0,0.0,0.0,0.0,2.1626,2.1837,2.1947,2.2198,2.2416,2.2528,2.2778,2.2983,2.3049,2.3064,2.3207,2.3493,2.3525,2.3697,2.4075,2.4106,2.428,2.4628,2.4628,2.4707,2.4895,2.4895,2.4895,2.4895,2.4895,2.4895,2.4895,2.4895,2.4895,2.4895,2.4895,2.4895,2.4895,2.4895,2.4895,2.4895,2.4895,2.4895,2.488,2.4895,2.4896,2.4818,2.4365,2.3646,2.2944,2.294,2.2946,2.2983,2.316,2.308,2.3,2.3272,2.3321,2.343,2.3808,2.3902,2.3949,2.4091,2.4106,2.4123,2.4218,2.4075,2.4028,2.4422,2.4501,2.4675,2.5196,2.5512,2.5599,2.5425,2.5162,2.4944,2.4702,2.3762,2.2989,2.2585,2.2246,2.1759,2.1162,2.0971,2.0786,2.0556,2.0203,1.9951,1.9769,2.0305,2.0437,2.0101,0.0,0.0,0.0,0.0,0.0,0.0,0.0,0.0,0.0,0.0,0.0,0.0,0.0,0.0,0.0,0.0,0.0,0.0,0.0,0.0,0.0,0.0,0.0,0.0,0.0,0.0,2.1614,2.1849,0.0,2.2135,2.2511,2.2731,2.2731,2.2856,2.3015,2.3161,2.3192,2.3335,2.3682,2.3697,2.3902,2.428,2.4373,2.45,2.4675,2.4818,2.4881,2.4881,2.488,2.4895,2.4895,2.4895,2.4895,2.4895,2.4895,2.4895,2.4895,2.4895,2.4895,2.4895,2.4895,2.4895,2.4896,2.4881,2.4563,2.4259,2.4733,2.402,2.2944,2.294,2.3094,2.3278,2.3219,2.3064,2.2968,2.316,2.3192,2.3255,2.3507,2.3554,2.3571,2.3666,2.3697,2.3697,2.3697,2.3697,2.3763,2.4031,2.4093,2.4218,2.4668,2.4722,2.4738,2.4855,2.4529,2.431,2.4308,2.3513,2.2839,2.2578,2.2059,2.1502,2.084,2.054,2.0321,2.0079,1.9785,1.957,1.9435,1.9844,1.986,0.0,0.0,0.0,0.0,0.0,0.0,0.0,0.0,0.0,0.0,0.0,0.0,0.0,0.0,0.0,0.0,0.0,0.0,0.0,0.0,0.0,0.0,0.0,0.0,0.0,0.0,0.0,2.1304,2.1351,0.0,0.0,0.0,0.0,2.237,2.2715,2.2919,2.2935,2.2919,2.3032,2.3304,2.332,2.3508,2.3902,2.4147,2.427,2.4287,2.4654,2.4829,2.4877,2.4865,2.4864,2.488,2.4848,2.4832,2.4879,2.4832,2.4816,2.4816,2.4816,2.4816,2.4816,2.48,2.4784,2.4784,2.4864,2.4051,2.3242,2.447,2.401,2.2943,2.2928,2.3364,0.0,0.0,2.2966,2.2935,2.2935,2.2935,2.2935,2.2935,2.2935,2.2985,2.3241,2.332,2.332,0.0,2.332,2.3298,2.3299,0.0,2.3568,2.4298,2.3768,2.3656,2.4625,2.4432,2.3973,2.3318,2.3479,2.3208,2.2207,2.1882,2.1489,2.084,2.054,2.0132,1.9518,1.9829,1.9844,1.9435,1.9463,0.0,0.0,0.0,0.0,0.0,0.0,0.0,0.0,0.0,0.0,0.0,0.0,0.0,0.0,0.0,0.0,0.0,0.0,0.0,0.0,0.0,0.0,0.0,0.0,0.0,0.0,2.0855,2.1177,2.096,2.0958,2.1168,0.0,0.0,0.0,0.0,0.0,0.0,2.2919,2.2668,2.2669,2.3031,2.3032,2.322,2.3613,2.387,2.4015,2.401,2.4104,2.4414,2.4863,2.4588,2.4609,2.4864,2.4376,2.4422,2.4848,2.4344,2.4155,2.4155,2.4155,2.4155,2.4108,2.3627,2.3441,2.3581,2.4561,2.4673,2.4432,2.4768,2.4007,2.2929,2.2942,0.0,0.0,0.0,0.0,2.2935,2.2935,2.2935,2.2935,2.2935,2.2935,2.2967,2.3016,2.3032,2.3032,0.0,2.3032,2.303,2.3042,0.0,0.0,0.0,0.0,2.3041,2.2996,2.2911,2.2735,2.2492,2.233,2.2172,2.1889,2.1541,2.1179,2.0811,2.054,2.0332,2.0187,2.0086,1.9844,1.9435,0.0,0.0,0.0,0.0,0.0,0.0,0.0,0.0,0.0,0.0,0.0,0.0,0.0,0.0,0.0,0.0,0.0,0.0,0.0,0.0,0.0,0.0,0.0,0.0,0.0,0.0,0.0,2.0205,2.0621,2.0389,2.0373,2.0568,0.0,0.0,0.0,0.0,0.0,0.0,0.0,0.0,0.0,2.2916,2.2944,2.3039,2.3262,2.3393,2.3495,2.349,2.3481,2.3665,2.4031,2.3793,2.3827,2.4015,2.3937,2.3938,2.4015,2.3813,2.3733,2.3748,0.0,0.0,0.0,0.0,2.2935,2.3027,2.3772,2.4018,0.0,2.402,0.0,0.0,0.0,0.0,0.0,0.0,0.0,0.0,0.0,0.0,2.2935,2.2935,2.2794,2.2731,2.2904,2.2935,2.288,0.0,2.2697,2.2553,2.2154,0.0,0.0,0.0,0.0,2.1892,2.2082,2.1939,2.181,2.1746,2.1763,2.1701,2.1548,2.1307,2.1031,2.0643,2.049,1.9781,1.8432,1.8335,1.8159,0.0,0.0,0.0,0.0,0.0,0.0,0.0,0.0,0.0,0.0,0.0,0.0,0.0,0.0,0.0,0.0,0.0,0.0,0.0,0.0,0.0,0.0,0.0,0.0,0.0,0.0,0.0,0.0,0.0,1.9718,1.9797,0.0,0.0,0.0,0.0,0.0,0.0,0.0,0.0,0.0,0.0,0.0,0.0,0.0,2.2737,2.2938,2.2945,2.2866,2.2778,2.2782,2.2789,2.2776,2.2813,2.2875,2.2951,2.3423,0.0,2.2799,2.3101,0.0,0.0,0.0,0.0,0.0,0.0,0.0,0.0,0.0,0.0,0.0,0.0,0.0,0.0,0.0,0.0,0.0,0.0,0.0,0.0,0.0,0.0,2.2777,2.2745,2.2527,2.2419,0.0,2.2586,2.2415,2.2103,2.2044,0.0,0.0,0.0,0.0,0.0,0.0,0.0,2.1494,2.1323,2.1159,2.1182,2.1466,2.1522,2.1195,2.1143,2.0939,2.049,2.0095,1.8681,1.5969,1.603,0.0,0.0,0.0,0.0,0.0,0.0,0.0,0.0,0.0,0.0,0.0,0.0,0.0,0.0,0.0,0.0,0.0,0.0,0.0,0.0,0.0,0.0,0.0,0.0,0.0,0.0,0.0,0.0,0.0,0.0,0.0,0.0,0.0,0.0,0.0,0.0,0.0,0.0,0.0,0.0,0.0,0.0,0.0,0.0,0.0,0.0,0.0,0.0,0.0,0.0,2.1955,2.1957,2.1992,2.2199,2.2526,2.2901,2.237,2.2081,2.1964,2.1811,0.0,0.0,0.0,0.0,0.0,0.0,0.0,0.0,0.0,0.0,0.0,0.0,0.0,0.0,0.0,0.0,0.0,0.0,0.0,0.0,0.0,0.0,0.0,0.0,2.2004,2.2163,0.0,0.0,0.0,0.0,0.0,0.0,0.0,0.0,0.0,0.0,0.0,0.0,2.0622,2.0775,2.0955,2.1173,2.1061,2.1038,2.1169,2.0992,2.0824,2.0735,1.8503,1.6959,0.0,0.0,0.0,0.0,0.0,0.0,0.0,0.0,0.0,0.0,0.0,0.0,0.0,0.0,0.0,0.0,0.0,0.0,0.0,0.0,0.0,0.0,0.0,0.0,0.0,0.0,0.0,0.0,0.0,0.0,0.0,0.0,0.0,0.0,0.0,0.0,0.0,0.0,0.0,0.0,0.0,0.0,0.0,0.0,0.0,0.0,0.0,0.0,0.0,0.0,0.0,0.0,0.0,0.0,0.0,0.0,0.0,0.0,0.0,2.1267,0.0,0.0,0.0,0.0,0.0,0.0,0.0,0.0,0.0,0.0,0.0,0.0,0.0,0.0,0.0,0.0,0.0,0.0,0.0,0.0,0.0,0.0,0.0,0.0,0.0,0.0,0.0,0.0,0.0,0.0,0.0,0.0,0.0,0.0,0.0,0.0,0.0,0.0,0.0,0.0,1.8545,1.9817,2.085,2.0966,2.0877,2.0272,1.8983,1.8762,1.805,1.6552,1.6438,0.0,0.0,0.0,0.0,0.0,0.0,0.0,0.0,0.0,0.0,0.0,0.0,0.0,0.0,0.0,0.0,0.0,0.0,0.0,0.0,0.0,0.0,0.0,0.0,0.0,0.0,0.0,0.0,0.0,0.0,0.0,0.0,0.0,0.0,0.0,0.0,0.0,0.0,0.0,0.0,0.0,0.0,0.0,0.0,0.0,0.0,0.0,0.0,0.0,0.0,0.0,0.0,0.0,0.0,0.0,0.0,0.0,0.0,0.0,2.0963,0.0,0.0,0.0,0.0,0.0,0.0,0.0,0.0,0.0,0.0,0.0,0.0,0.0,0.0,0.0,0.0,0.0,0.0,0.0,0.0,0.0,0.0,0.0,0.0,0.0,0.0,0.0,0.0,0.0,0.0,0.0,0.0,0.0,0.0,0.0,0.0,0.0,0.0,0.0,0.0,0.0,1.6575,1.8359,1.9629,1.9067,1.9014,1.8147,1.5976,1.5798,1.5083,1.3374,1.463,0.0,0.0,0.0,0.0,0.0,0.0,0.0,0.0,0.0,0.0,0.0,0.0,0.0,0.0,0.0,0.0,0.0,0.0,0.0,0.0,0.0,0.0,0.0,0.0,0.0,0.0,0.0,0.0,0.0,0.0,0.0,0.0,0.0,0.0,0.0,0.0,0.0,0.0,0.0,0.0,0.0,0.0,0.0,0.0,0.0,0.0,0.0,0.0,0.0,0.0,0.0,0.0,0.0,0.0,0.0,0.0,0.0,0.0,0.0,0.0,0.0,0.0,0.0,0.0,0.0,0.0,0.0,0.0,0.0,0.0,0.0,0.0,0.0,0.0,0.0,0.0,0.0,0.0,0.0,0.0,0.0,0.0,0.0,0.0,0.0,0.0,0.0,0.0,0.0,0.0,0.0,0.0,0.0,0.0,0.0,0.0,0.0,0.0,0.0,0.0,0.0,1.5783,1.6209,1.5837,1.3472,1.3214,1.3117,1.2857,1.2841,1.3727,1.5839,0.0,0.0,0.0,0.0,0.0,0.0,0.0,0.0,0.0,0.0,0.0,0.0,0.0,0.0,0.0,0.0,0.0,0.0,0.0,0.0,0.0,0.0,0.0,0.0,0.0,0.0,0.0,0.0,0.0,0.0,0.0,0.0,0.0,0.0,0.0,0.0,0.0,0.0,0.0,0.0,0.0,0.0,0.0,0.0,0.0,0.0,0.0,0.0,0.0,0.0,0.0,0.0,0.0,0.0,0.0,0.0,0.0,0.0,0.0,0.0,0.0,0.0,0.0,0.0,0.0,0.0,0.0,0.0,0.0,0.0,0.0,0.0,0.0,0.0,0.0,0.0,0.0,0.0,0.0,0.0,0.0,0.0,0.0,0.0,0.0,0.0,0.0,0.0,0.0,0.0,0.0,0.0,0.0,0.0,0.0,0.0,0.0,0.0,0.0,0.0,0.0,0.0,1.3638,1.3745,1.3589,1.255,1.2436,1.1778,1.0127,0.9986,0.9701,0.9013,0.0,0.0,0.0,0.0,0.0,0.0,0.0,0.0,0.0,0.0,0.0,0.0,0.0,0.0,0.0,0.0,0.0,0.0,0.0,0.0,0.0,0.0,0.0,0.0,0.0,0.0,0.0,0.0,0.0,0.0,0.0,0.0,0.0,0.0,0.0,0.0,0.0,0.0,0.0,0.0,0.0,0.0,0.0,0.0,0.0,0.0,0.0,0.0,0.0,0.0,0.0,0.0,0.0,0.0,0.0,0.0,0.0,0.0,0.0,0.0,0.0,0.0,0.0,0.0,0.0,0.0,0.0,0.0,0.0,0.0,0.0,0.0,0.0,0.0,0.0,0.0,0.0,0.0,0.0,0.0,0.0,0.0,0.0,0.0,0.0,0.0,0.0,0.0,0.0,0.0,0.0,0.0,0.0,0.0,0.0,0.0,0.0,0.0,0.0,0.0,0.0,0.0,1.0935,1.0897,1.0798,1.0102,1.004,0.9248,0.7319,0.7125,0.6547,0.525,0.0,0.0,0.0,0.0,0.0,0.0,0.0,0.0,0.0,0.0,0.0,0.0,0.0,0.0,0.0,0.0,0.0,0.0,0.0,0.0,0.0,0.0,0.0,0.0,0.0,0.0,0.0,0.0,0.0,0.0,0.0,0.0,0.0,0.0,0.0,0.0,0.0,0.0,0.0,0.0,0.0,0.0,0.0,0.0,0.0,0.0,0.0,0.0,0.0,0.0,0.0,0.0,0.0,0.0,0.0,0.0,0.0,0.0,0.0,0.0,0.0,0.0,0.0,0.0,0.0,0.0,0.0,0.0,0.0,0.0,0.0,0.0,0.0,0.0,0.0,0.0,0.0,0.0,0.0,0.0,0.0,0.0,0.0,0.0,0.0,0.0,0.0,0.0,0.0,0.0,0.0,0.0,0.0,0.0,0.0,0.0,0.0,0.0,0.0,0.0,0.0,0.0,0.7735,0.7661,0.6945,0.4617,0.4367,0.4353,0.432,0.4199,0.5154,0.0,0.0,0.0,0.0,0.0,0.0,0.0,0.0,0.0,0.0,0.0,0.0,0.0,0.0,0.0,0.0,0.0,0.0,0.0,0.0,0.0,0.0,0.0,0.0,0.0,0.0,0.0,0.0,0.0,0.0,0.0,0.0,0.0,0.0,0.0,0.0,0.0,0.0,0.0,0.0,0.0,0.0,0.0,0.0,0.0,0.0,0.0,0.0,0.0,0.0,0.0,0.0,0.0,0.0,0.0,0.0,0.0,0.0,0.0,0.0,0.0,0.0,0.0,0.0,0.0,0.0,0.0,0.0,0.0,0.0,0.0,0.0,0.0,0.0,0.0,0.0,0.0,0.0,0.0,0.0,0.0,0.0,0.0,0.0,0.0,0.0,0.0,0.0,0.0,0.0,0.0,0.0,0.0,0.0,0.0,0.0,0.0,0.0,0.0,0.0,0.0,0.0,0.0,0.7564,0.6194,0.4969,0.0,0.4228,0.4236,0.4147,0.4105,0.4374,0.507,0.0,0.0,0.0,0.0,0.0,0.0,0.0,0.0,0.0,0.0,0.0,0.0,0.0,0.0,0.0,0.0,0.0,0.0,0.0,0.0,0.0,0.0,0.0,0.0,0.0,0.0,0.0,0.0,0.0,0.0,0.0,0.0,0.0,0.0,0.0,0.0,0.0,0.0,0.0,0.0,0.0,0.0,0.0,0.0,0.0,0.0,0.0,0.0,0.0,0.0,0.0,0.0,0.0,0.0,0.0,0.0,0.0,0.0,0.0,0.0,0.0,0.0,0.0,0.0,0.0,0.0,0.0,0.0,0.0,0.0,0.0,0.0,0.0,0.0,0.0,0.0,0.0,0.0,0.0,0.0,0.0,0.0,0.0,0.0,0.0,0.0,0.0,0.0,0.0,0.0,0.0,0.0,0.0,0.0,0.0,0.0,0.0,0.0,0.0,0.0,0.0,0.0,0.0,0.4914,0.4025,0.0,0.4201,0.422,0.4089,0.408,0.4,0.3834,0.0,0.0,0.0,0.0,0.0,0.0,0.0,0.0,0.0,0.0,0.0,0.0,0.0,0.0,0.0,0.0,0.0,0.0,0.0,0.0,0.0,0.0,0.0,0.0,0.0,0.0,0.0,0.0,0.0,0.0,0.0,0.0,0.0,0.0,0.0,0.0,0.0,0.0,0.0,0.0,0.0,0.0,0.0,0.0,0.0,0.0,0.0,0.0,0.0,0.0,0.0,0.0,0.0,0.0,0.0,0.0,0.0,0.0,0.0,0.0,0.0,0.0,0.0,0.0,0.0,0.0,0.0,0.0,0.0,0.0,0.0,0.0,0.0,0.0,0.0,0.0,0.0,0.0,0.0,0.0,0.0,0.0,0.0,0.0,0.0,0.0,0.0,0.0,0.0,0.0,0.0,0.0,0.0,0.0,0.0,0.0,0.0,0.0,0.0,0.0,0.0,0.0,0.0,0.3874,0.3925,0.4054,0.418,0.4201,0.4072,0.4061,0.3958,0.3694,0.3562,0.0,0.0,0.0,0.0,0.0,0.0,0.0,0.0,0.0,0.0,0.0,0.0,0.0,0.0,0.0,0.0,0.0,0.0,0.0,0.0,0.0,0.0,0.0,0.0,0.0,0.0,0.0,0.0,0.0,0.0,0.0,0.0,0.0,0.0,0.0,0.0,0.0,0.0,0.0,0.0,0.0,0.0,0.0,0.0,0.0,0.0,0.0,0.0,0.0,0.0,0.0,0.0,0.0,0.0,0.0,0.0,0.0,0.0,0.0,0.0,0.0,0.0,0.0,0.0,0.0,0.0,0.0,0.0,0.0,0.0,0.0,0.0,0.0,0.0,0.0,0.0,0.0,0.0,0.0,0.0,0.0,0.0,0.0,0.0,0.0,0.0,0.0,0.0,0.0,0.0,0.0,0.0,0.0,0.0,0.0,0.0,0.0,0.0,0.0,0.0,0.0,0.0,0.3673,0.3791,0.3926,0.3963,0.3975,0.393,0.3928,0.3823,0.356,0.3523,0.0,0.0,0.0,0.0,0.0,0.0,0.0,0.0,0.0,0.0,0.0,0.0,0.0,0.0,0.0,0.0,0.0,0.0,0.0,0.0,0.0,0.0,0.0,0.0,0.0,0.0,0.0,0.0,0.0,0.0,0.0,0.0,0.0,0.0,0.0,0.0,0.0,0.0,0.0,0.0,0.0,0.0,0.0,0.0,0.0,0.0,0.0,0.0,0.0,0.0,0.0,0.0,0.0,0.0,0.0,0.0,0.0,0.0,0.0,0.0,0.0,0.0,0.0,0.0,0.0,0.0,0.0,0.0,0.0,0.0,0.0,0.0,0.0,0.0,0.0,0.0,0.0,0.0,0.0,0.0,0.0,0.0,0.0,0.0,0.0,0.0,0.0,0.0,0.0,0.0,0.0,0.0,0.0,0.0,0.0,0.0,0.0,0.0,0.0,0.0,0.0,0.0,0.3527,0.3649,0.3777,0.3856,0.3866,0.381,0.3802,0.3715,0.3509,0.3493,0.0,0.0,0.0,0.0,0.0,0.0,0.0,0.0,0.0,0.0,0.0,0.0,0.0,0.0,0.0,0.0,0.0,0.0,0.0,0.0,0.0,0.0,0.0,0.0,0.0,0.0,0.0,0.0,0.0,0.0,0.0,0.0,0.0,0.0,0.0,0.0,0.0,0.0,0.0,0.0,0.0,0.0,0.0,0.0,0.0,0.0,0.0,0.0,0.0,0.0,0.0,0.0,0.0,0.0,0.0,0.0,0.0,0.0,0.0,0.0,0.0,0.0,0.0,0.0,0.0,0.0,0.0,0.0,0.0,0.0,0.0,0.0,0.0,0.0,0.0,0.0,0.0,0.0,0.0,0.0,0.0,0.0,0.0,0.0,0.0,0.0,0.0,0.0,0.0,0.0,0.0,0.0,0.0,0.0,0.0,0.0,0.0,0.0,0.0,0.0,0.0,0.0,0.0,0.3545,0.3659,0.3758,0.3782,0.3674,0.367,0.3619,0.3509,0.0,0.0,0.0,0.0,0.0,0.0,0.0,0.0,0.0,0.0,0.0,0.0,0.0,0.0,0.0,0.0,0.0,0.0,0.0,0.0,0.0,0.0,0.0,0.0,0.0,0.0,0.0,0.0,0.0,0.0,0.0,0.0,0.0,0.0,0.0,0.0,0.0,0.0,0.0,0.0,0.0,0.0,0.0,0.0,0.0,0.0,0.0,0.0,0.0,0.0,0.0,0.0,0.0,0.0,0.0,0.0,0.0,0.0,0.0,0.0,0.0,0.0,0.0,0.0,0.0,0.0,0.0,0.0,0.0,0.0,0.0,0.0,0.0,0.0,0.0,0.0,0.0,0.0,0.0,0.0,0.0,0.0,0.0,0.0,0.0,0.0,0.0,0.0,0.0,0.0,0.0,0.0,0.0,0.0,0.0,0.0,0.0,0.0,0.0,0.0,0.0,0.0,0.0,0.0,0.0,0.3527,0.3552,0.3556,0.3532,0.3528,0.3518,0.3504,0.0,0.0,0.0,0.0,0.0,0.0,0.0,0.0,0.0,0.0,0.0,0.0,0.0,0.0]}]]]